<?xml version="1.0" encoding="UTF-8" standalone="no" ?>
<gpx xmlns="http://www.topografix.com/GPX/1/1" xmlns:xsi="http://www.w3.org/2001/XMLSchema-instance" xsi:schemaLocation="http://www.topografix.com/GPX/1/1 http://www.topografix.com/GPX/1/1/gpx.xsd" version="1.1" creator="VisuGPX - https://www.visugpx.com">
  <metadata>
    <name>course</name>
    <desc><![CDATA[route tranquille]]></desc>
  </metadata>
  <trk>
    <name><![CDATA[22/01/12 09:05]]></name>
    <desc><![CDATA[Charols 10 km ]]></desc>
    <trkseg>
      <trkpt lat="44.59217" lon="4.95097">
        <ele>258</ele>
        <time>2012-01-22T08:05:05Z</time>
      </trkpt>
      <trkpt lat="44.59217" lon="4.95097">
        <ele>258</ele>
        <time>2012-01-22T08:05:05Z</time>
      </trkpt>
      <trkpt lat="44.59217" lon="4.95097">
        <ele>258</ele>
        <time>2012-01-22T08:05:18Z</time>
      </trkpt>
      <trkpt lat="44.59218" lon="4.95105">
        <ele>257</ele>
        <time>2012-01-22T08:05:21Z</time>
      </trkpt>
      <trkpt lat="44.59218" lon="4.95112">
        <ele>260</ele>
        <time>2012-01-22T08:05:23Z</time>
      </trkpt>
      <trkpt lat="44.59218" lon="4.9512">
        <ele>263</ele>
        <time>2012-01-22T08:05:26Z</time>
      </trkpt>
      <trkpt lat="44.59218" lon="4.95128">
        <ele>264</ele>
        <time>2012-01-22T08:05:29Z</time>
      </trkpt>
      <trkpt lat="44.59217" lon="4.95135">
        <ele>264</ele>
        <time>2012-01-22T08:05:32Z</time>
      </trkpt>
      <trkpt lat="44.59221" lon="4.9514">
        <ele>262</ele>
        <time>2012-01-22T08:05:37Z</time>
      </trkpt>
      <trkpt lat="44.59221" lon="4.95146">
        <ele>262</ele>
        <time>2012-01-22T08:05:41Z</time>
      </trkpt>
      <trkpt lat="44.59219" lon="4.95153">
        <ele>261</ele>
        <time>2012-01-22T08:05:45Z</time>
      </trkpt>
      <trkpt lat="44.59215" lon="4.95158">
        <ele>259</ele>
        <time>2012-01-22T08:05:47Z</time>
      </trkpt>
      <trkpt lat="44.5921" lon="4.95164">
        <ele>255</ele>
        <time>2012-01-22T08:05:49Z</time>
      </trkpt>
      <trkpt lat="44.59206" lon="4.9517">
        <ele>254</ele>
        <time>2012-01-22T08:05:51Z</time>
      </trkpt>
      <trkpt lat="44.59207" lon="4.95176">
        <ele>253</ele>
        <time>2012-01-22T08:05:53Z</time>
      </trkpt>
      <trkpt lat="44.59206" lon="4.95185">
        <ele>252</ele>
        <time>2012-01-22T08:05:56Z</time>
      </trkpt>
      <trkpt lat="44.59206" lon="4.95193">
        <ele>250</ele>
        <time>2012-01-22T08:05:58Z</time>
      </trkpt>
      <trkpt lat="44.59205" lon="4.95202">
        <ele>245</ele>
        <time>2012-01-22T08:06:01Z</time>
      </trkpt>
      <trkpt lat="44.59206" lon="4.9521">
        <ele>245</ele>
        <time>2012-01-22T08:06:04Z</time>
      </trkpt>
      <trkpt lat="44.59205" lon="4.95216">
        <ele>245</ele>
        <time>2012-01-22T08:06:06Z</time>
      </trkpt>
      <trkpt lat="44.59203" lon="4.95223">
        <ele>246</ele>
        <time>2012-01-22T08:06:10Z</time>
      </trkpt>
      <trkpt lat="44.59204" lon="4.95232">
        <ele>249</ele>
        <time>2012-01-22T08:06:13Z</time>
      </trkpt>
      <trkpt lat="44.59205" lon="4.95241">
        <ele>250</ele>
        <time>2012-01-22T08:06:16Z</time>
      </trkpt>
      <trkpt lat="44.59199" lon="4.95246">
        <ele>256</ele>
        <time>2012-01-22T08:06:24Z</time>
      </trkpt>
      <trkpt lat="44.59199" lon="4.95254">
        <ele>257</ele>
        <time>2012-01-22T08:06:26Z</time>
      </trkpt>
      <trkpt lat="44.59197" lon="4.95263">
        <ele>260</ele>
        <time>2012-01-22T08:06:29Z</time>
      </trkpt>
      <trkpt lat="44.59192" lon="4.95269">
        <ele>259</ele>
        <time>2012-01-22T08:06:32Z</time>
      </trkpt>
      <trkpt lat="44.59188" lon="4.95279">
        <ele>259</ele>
        <time>2012-01-22T08:06:35Z</time>
      </trkpt>
      <trkpt lat="44.59186" lon="4.95288">
        <ele>261</ele>
        <time>2012-01-22T08:06:38Z</time>
      </trkpt>
      <trkpt lat="44.59185" lon="4.95295">
        <ele>262</ele>
        <time>2012-01-22T08:06:40Z</time>
      </trkpt>
      <trkpt lat="44.59186" lon="4.95304">
        <ele>262</ele>
        <time>2012-01-22T08:06:44Z</time>
      </trkpt>
      <trkpt lat="44.59185" lon="4.9531">
        <ele>262</ele>
        <time>2012-01-22T08:06:46Z</time>
      </trkpt>
      <trkpt lat="44.59183" lon="4.95318">
        <ele>262</ele>
        <time>2012-01-22T08:06:48Z</time>
      </trkpt>
      <trkpt lat="44.59184" lon="4.95326">
        <ele>263</ele>
        <time>2012-01-22T08:06:51Z</time>
      </trkpt>
      <trkpt lat="44.59182" lon="4.95335">
        <ele>261</ele>
        <time>2012-01-22T08:06:54Z</time>
      </trkpt>
      <trkpt lat="44.59182" lon="4.95343">
        <ele>262</ele>
        <time>2012-01-22T08:06:57Z</time>
      </trkpt>
      <trkpt lat="44.59183" lon="4.95351">
        <ele>262</ele>
        <time>2012-01-22T08:07:00Z</time>
      </trkpt>
      <trkpt lat="44.59185" lon="4.95357">
        <ele>262</ele>
        <time>2012-01-22T08:07:03Z</time>
      </trkpt>
      <trkpt lat="44.59182" lon="4.95364">
        <ele>260</ele>
        <time>2012-01-22T08:07:06Z</time>
      </trkpt>
      <trkpt lat="44.5918" lon="4.9537">
        <ele>257</ele>
        <time>2012-01-22T08:07:09Z</time>
      </trkpt>
      <trkpt lat="44.5918" lon="4.95378">
        <ele>253</ele>
        <time>2012-01-22T08:07:13Z</time>
      </trkpt>
      <trkpt lat="44.59179" lon="4.95386">
        <ele>253</ele>
        <time>2012-01-22T08:07:16Z</time>
      </trkpt>
      <trkpt lat="44.59183" lon="4.95393">
        <ele>254</ele>
        <time>2012-01-22T08:07:19Z</time>
      </trkpt>
      <trkpt lat="44.59185" lon="4.95401">
        <ele>255</ele>
        <time>2012-01-22T08:07:22Z</time>
      </trkpt>
      <trkpt lat="44.59184" lon="4.95409">
        <ele>256</ele>
        <time>2012-01-22T08:07:24Z</time>
      </trkpt>
      <trkpt lat="44.59184" lon="4.95415">
        <ele>256</ele>
        <time>2012-01-22T08:07:26Z</time>
      </trkpt>
      <trkpt lat="44.59183" lon="4.95423">
        <ele>257</ele>
        <time>2012-01-22T08:07:28Z</time>
      </trkpt>
      <trkpt lat="44.59183" lon="4.95431">
        <ele>258</ele>
        <time>2012-01-22T08:07:30Z</time>
      </trkpt>
      <trkpt lat="44.59183" lon="4.95439">
        <ele>259</ele>
        <time>2012-01-22T08:07:33Z</time>
      </trkpt>
      <trkpt lat="44.59184" lon="4.95448">
        <ele>259</ele>
        <time>2012-01-22T08:07:37Z</time>
      </trkpt>
      <trkpt lat="44.59184" lon="4.95456">
        <ele>260</ele>
        <time>2012-01-22T08:07:40Z</time>
      </trkpt>
      <trkpt lat="44.59184" lon="4.95464">
        <ele>261</ele>
        <time>2012-01-22T08:07:43Z</time>
      </trkpt>
      <trkpt lat="44.59184" lon="4.9547">
        <ele>262</ele>
        <time>2012-01-22T08:07:46Z</time>
      </trkpt>
      <trkpt lat="44.59187" lon="4.95476">
        <ele>263</ele>
        <time>2012-01-22T08:07:49Z</time>
      </trkpt>
      <trkpt lat="44.59186" lon="4.95486">
        <ele>264</ele>
        <time>2012-01-22T08:07:51Z</time>
      </trkpt>
      <trkpt lat="44.59186" lon="4.95492">
        <ele>265</ele>
        <time>2012-01-22T08:07:53Z</time>
      </trkpt>
      <trkpt lat="44.59188" lon="4.95498">
        <ele>265</ele>
        <time>2012-01-22T08:07:56Z</time>
      </trkpt>
      <trkpt lat="44.59191" lon="4.95504">
        <ele>267</ele>
        <time>2012-01-22T08:07:59Z</time>
      </trkpt>
      <trkpt lat="44.5919" lon="4.95512">
        <ele>268</ele>
        <time>2012-01-22T08:08:02Z</time>
      </trkpt>
      <trkpt lat="44.59188" lon="4.9552">
        <ele>268</ele>
        <time>2012-01-22T08:08:05Z</time>
      </trkpt>
      <trkpt lat="44.59186" lon="4.95527">
        <ele>269</ele>
        <time>2012-01-22T08:08:07Z</time>
      </trkpt>
      <trkpt lat="44.59186" lon="4.95535">
        <ele>269</ele>
        <time>2012-01-22T08:08:11Z</time>
      </trkpt>
      <trkpt lat="44.59184" lon="4.95541">
        <ele>270</ele>
        <time>2012-01-22T08:08:14Z</time>
      </trkpt>
      <trkpt lat="44.59184" lon="4.95549">
        <ele>272</ele>
        <time>2012-01-22T08:08:17Z</time>
      </trkpt>
      <trkpt lat="44.59182" lon="4.95555">
        <ele>271</ele>
        <time>2012-01-22T08:08:19Z</time>
      </trkpt>
      <trkpt lat="44.59179" lon="4.95561">
        <ele>270</ele>
        <time>2012-01-22T08:08:21Z</time>
      </trkpt>
      <trkpt lat="44.59175" lon="4.95568">
        <ele>270</ele>
        <time>2012-01-22T08:08:24Z</time>
      </trkpt>
      <trkpt lat="44.59175" lon="4.95576">
        <ele>273</ele>
        <time>2012-01-22T08:08:27Z</time>
      </trkpt>
      <trkpt lat="44.59174" lon="4.95583">
        <ele>274</ele>
        <time>2012-01-22T08:08:29Z</time>
      </trkpt>
      <trkpt lat="44.59175" lon="4.95592">
        <ele>275</ele>
        <time>2012-01-22T08:08:32Z</time>
      </trkpt>
      <trkpt lat="44.59174" lon="4.956">
        <ele>276</ele>
        <time>2012-01-22T08:08:35Z</time>
      </trkpt>
      <trkpt lat="44.59176" lon="4.95609">
        <ele>278</ele>
        <time>2012-01-22T08:08:38Z</time>
      </trkpt>
      <trkpt lat="44.59177" lon="4.95618">
        <ele>278</ele>
        <time>2012-01-22T08:08:41Z</time>
      </trkpt>
      <trkpt lat="44.59175" lon="4.95628">
        <ele>278</ele>
        <time>2012-01-22T08:08:44Z</time>
      </trkpt>
      <trkpt lat="44.59174" lon="4.95635">
        <ele>280</ele>
        <time>2012-01-22T08:08:46Z</time>
      </trkpt>
      <trkpt lat="44.59174" lon="4.95643">
        <ele>282</ele>
        <time>2012-01-22T08:08:49Z</time>
      </trkpt>
      <trkpt lat="44.59174" lon="4.95651">
        <ele>282</ele>
        <time>2012-01-22T08:08:52Z</time>
      </trkpt>
      <trkpt lat="44.59174" lon="4.95658">
        <ele>282</ele>
        <time>2012-01-22T08:08:55Z</time>
      </trkpt>
      <trkpt lat="44.59174" lon="4.95666">
        <ele>282</ele>
        <time>2012-01-22T08:08:58Z</time>
      </trkpt>
      <trkpt lat="44.59176" lon="4.95673">
        <ele>281</ele>
        <time>2012-01-22T08:09:01Z</time>
      </trkpt>
      <trkpt lat="44.59175" lon="4.95682">
        <ele>281</ele>
        <time>2012-01-22T08:09:05Z</time>
      </trkpt>
      <trkpt lat="44.59177" lon="4.95689">
        <ele>283</ele>
        <time>2012-01-22T08:09:08Z</time>
      </trkpt>
      <trkpt lat="44.59176" lon="4.95695">
        <ele>283</ele>
        <time>2012-01-22T08:09:10Z</time>
      </trkpt>
      <trkpt lat="44.59176" lon="4.95703">
        <ele>282</ele>
        <time>2012-01-22T08:09:13Z</time>
      </trkpt>
      <trkpt lat="44.59176" lon="4.95711">
        <ele>283</ele>
        <time>2012-01-22T08:09:16Z</time>
      </trkpt>
      <trkpt lat="44.59174" lon="4.95718">
        <ele>283</ele>
        <time>2012-01-22T08:09:18Z</time>
      </trkpt>
      <trkpt lat="44.59173" lon="4.95725">
        <ele>282</ele>
        <time>2012-01-22T08:09:21Z</time>
      </trkpt>
      <trkpt lat="44.59172" lon="4.95733">
        <ele>281</ele>
        <time>2012-01-22T08:09:24Z</time>
      </trkpt>
      <trkpt lat="44.59171" lon="4.9574">
        <ele>281</ele>
        <time>2012-01-22T08:09:26Z</time>
      </trkpt>
      <trkpt lat="44.59171" lon="4.95748">
        <ele>283</ele>
        <time>2012-01-22T08:09:28Z</time>
      </trkpt>
      <trkpt lat="44.5917" lon="4.95755">
        <ele>283</ele>
        <time>2012-01-22T08:09:30Z</time>
      </trkpt>
      <trkpt lat="44.59169" lon="4.95764">
        <ele>284</ele>
        <time>2012-01-22T08:09:33Z</time>
      </trkpt>
      <trkpt lat="44.59169" lon="4.95772">
        <ele>284</ele>
        <time>2012-01-22T08:09:37Z</time>
      </trkpt>
      <trkpt lat="44.59169" lon="4.9578">
        <ele>283</ele>
        <time>2012-01-22T08:09:40Z</time>
      </trkpt>
      <trkpt lat="44.59168" lon="4.95787">
        <ele>283</ele>
        <time>2012-01-22T08:09:43Z</time>
      </trkpt>
      <trkpt lat="44.59164" lon="4.95792">
        <ele>281</ele>
        <time>2012-01-22T08:09:45Z</time>
      </trkpt>
      <trkpt lat="44.59161" lon="4.95798">
        <ele>280</ele>
        <time>2012-01-22T08:09:47Z</time>
      </trkpt>
      <trkpt lat="44.5916" lon="4.95805">
        <ele>279</ele>
        <time>2012-01-22T08:09:50Z</time>
      </trkpt>
      <trkpt lat="44.59155" lon="4.95811">
        <ele>276</ele>
        <time>2012-01-22T08:09:52Z</time>
      </trkpt>
      <trkpt lat="44.59154" lon="4.95817">
        <ele>275</ele>
        <time>2012-01-22T08:09:54Z</time>
      </trkpt>
      <trkpt lat="44.59153" lon="4.95825">
        <ele>274</ele>
        <time>2012-01-22T08:09:57Z</time>
      </trkpt>
      <trkpt lat="44.59152" lon="4.95832">
        <ele>274</ele>
        <time>2012-01-22T08:09:59Z</time>
      </trkpt>
      <trkpt lat="44.5915" lon="4.95838">
        <ele>272</ele>
        <time>2012-01-22T08:10:02Z</time>
      </trkpt>
      <trkpt lat="44.59149" lon="4.95844">
        <ele>271</ele>
        <time>2012-01-22T08:10:04Z</time>
      </trkpt>
      <trkpt lat="44.59149" lon="4.9585">
        <ele>271</ele>
        <time>2012-01-22T08:10:06Z</time>
      </trkpt>
      <trkpt lat="44.59147" lon="4.95859">
        <ele>270</ele>
        <time>2012-01-22T08:10:09Z</time>
      </trkpt>
      <trkpt lat="44.59147" lon="4.95867">
        <ele>270</ele>
        <time>2012-01-22T08:10:12Z</time>
      </trkpt>
      <trkpt lat="44.59148" lon="4.95874">
        <ele>269</ele>
        <time>2012-01-22T08:10:14Z</time>
      </trkpt>
      <trkpt lat="44.59148" lon="4.95882">
        <ele>271</ele>
        <time>2012-01-22T08:10:16Z</time>
      </trkpt>
      <trkpt lat="44.5915" lon="4.95889">
        <ele>272</ele>
        <time>2012-01-22T08:10:19Z</time>
      </trkpt>
      <trkpt lat="44.59152" lon="4.95897">
        <ele>271</ele>
        <time>2012-01-22T08:10:22Z</time>
      </trkpt>
      <trkpt lat="44.59154" lon="4.95906">
        <ele>272</ele>
        <time>2012-01-22T08:10:26Z</time>
      </trkpt>
      <trkpt lat="44.59153" lon="4.95914">
        <ele>273</ele>
        <time>2012-01-22T08:10:29Z</time>
      </trkpt>
      <trkpt lat="44.5915" lon="4.9592">
        <ele>274</ele>
        <time>2012-01-22T08:10:33Z</time>
      </trkpt>
      <trkpt lat="44.59149" lon="4.95928">
        <ele>274</ele>
        <time>2012-01-22T08:10:36Z</time>
      </trkpt>
      <trkpt lat="44.59152" lon="4.95934">
        <ele>272</ele>
        <time>2012-01-22T08:10:38Z</time>
      </trkpt>
      <trkpt lat="44.59154" lon="4.95944">
        <ele>272</ele>
        <time>2012-01-22T08:10:40Z</time>
      </trkpt>
      <trkpt lat="44.59154" lon="4.95952">
        <ele>271</ele>
        <time>2012-01-22T08:10:43Z</time>
      </trkpt>
      <trkpt lat="44.59155" lon="4.95958">
        <ele>271</ele>
        <time>2012-01-22T08:10:45Z</time>
      </trkpt>
      <trkpt lat="44.59156" lon="4.95967">
        <ele>269</ele>
        <time>2012-01-22T08:10:48Z</time>
      </trkpt>
      <trkpt lat="44.59156" lon="4.95975">
        <ele>268</ele>
        <time>2012-01-22T08:10:51Z</time>
      </trkpt>
      <trkpt lat="44.59157" lon="4.95982">
        <ele>269</ele>
        <time>2012-01-22T08:10:54Z</time>
      </trkpt>
      <trkpt lat="44.59158" lon="4.9599">
        <ele>270</ele>
        <time>2012-01-22T08:10:57Z</time>
      </trkpt>
      <trkpt lat="44.59158" lon="4.95997">
        <ele>271</ele>
        <time>2012-01-22T08:11:00Z</time>
      </trkpt>
      <trkpt lat="44.59159" lon="4.96005">
        <ele>271</ele>
        <time>2012-01-22T08:11:03Z</time>
      </trkpt>
      <trkpt lat="44.5916" lon="4.96012">
        <ele>272</ele>
        <time>2012-01-22T08:11:06Z</time>
      </trkpt>
      <trkpt lat="44.59161" lon="4.9602">
        <ele>273</ele>
        <time>2012-01-22T08:11:09Z</time>
      </trkpt>
      <trkpt lat="44.59161" lon="4.96027">
        <ele>274</ele>
        <time>2012-01-22T08:11:12Z</time>
      </trkpt>
      <trkpt lat="44.59161" lon="4.96034">
        <ele>276</ele>
        <time>2012-01-22T08:11:15Z</time>
      </trkpt>
      <trkpt lat="44.59161" lon="4.96041">
        <ele>276</ele>
        <time>2012-01-22T08:11:19Z</time>
      </trkpt>
      <trkpt lat="44.5916" lon="4.9605">
        <ele>279</ele>
        <time>2012-01-22T08:11:22Z</time>
      </trkpt>
      <trkpt lat="44.59161" lon="4.96058">
        <ele>280</ele>
        <time>2012-01-22T08:11:25Z</time>
      </trkpt>
      <trkpt lat="44.5916" lon="4.96066">
        <ele>282</ele>
        <time>2012-01-22T08:11:28Z</time>
      </trkpt>
      <trkpt lat="44.59161" lon="4.96073">
        <ele>282</ele>
        <time>2012-01-22T08:11:31Z</time>
      </trkpt>
      <trkpt lat="44.59162" lon="4.96081">
        <ele>282</ele>
        <time>2012-01-22T08:11:34Z</time>
      </trkpt>
      <trkpt lat="44.59162" lon="4.96087">
        <ele>282</ele>
        <time>2012-01-22T08:11:37Z</time>
      </trkpt>
      <trkpt lat="44.59161" lon="4.96094">
        <ele>284</ele>
        <time>2012-01-22T08:11:39Z</time>
      </trkpt>
      <trkpt lat="44.59162" lon="4.96102">
        <ele>284</ele>
        <time>2012-01-22T08:11:42Z</time>
      </trkpt>
      <trkpt lat="44.59164" lon="4.9611">
        <ele>285</ele>
        <time>2012-01-22T08:11:45Z</time>
      </trkpt>
      <trkpt lat="44.59164" lon="4.96118">
        <ele>286</ele>
        <time>2012-01-22T08:11:48Z</time>
      </trkpt>
      <trkpt lat="44.59165" lon="4.96126">
        <ele>287</ele>
        <time>2012-01-22T08:11:51Z</time>
      </trkpt>
      <trkpt lat="44.59166" lon="4.96133">
        <ele>287</ele>
        <time>2012-01-22T08:11:53Z</time>
      </trkpt>
      <trkpt lat="44.59166" lon="4.96139">
        <ele>288</ele>
        <time>2012-01-22T08:11:55Z</time>
      </trkpt>
      <trkpt lat="44.59166" lon="4.96148">
        <ele>288</ele>
        <time>2012-01-22T08:11:58Z</time>
      </trkpt>
      <trkpt lat="44.59164" lon="4.96155">
        <ele>290</ele>
        <time>2012-01-22T08:12:01Z</time>
      </trkpt>
      <trkpt lat="44.59165" lon="4.96163">
        <ele>290</ele>
        <time>2012-01-22T08:12:04Z</time>
      </trkpt>
      <trkpt lat="44.59166" lon="4.96172">
        <ele>290</ele>
        <time>2012-01-22T08:12:07Z</time>
      </trkpt>
      <trkpt lat="44.59164" lon="4.96182">
        <ele>291</ele>
        <time>2012-01-22T08:12:10Z</time>
      </trkpt>
      <trkpt lat="44.59164" lon="4.96189">
        <ele>290</ele>
        <time>2012-01-22T08:12:13Z</time>
      </trkpt>
      <trkpt lat="44.59163" lon="4.96198">
        <ele>290</ele>
        <time>2012-01-22T08:12:16Z</time>
      </trkpt>
      <trkpt lat="44.59163" lon="4.96205">
        <ele>289</ele>
        <time>2012-01-22T08:12:18Z</time>
      </trkpt>
      <trkpt lat="44.59163" lon="4.96211">
        <ele>290</ele>
        <time>2012-01-22T08:12:20Z</time>
      </trkpt>
      <trkpt lat="44.59163" lon="4.96218">
        <ele>290</ele>
        <time>2012-01-22T08:12:22Z</time>
      </trkpt>
      <trkpt lat="44.59163" lon="4.96224">
        <ele>290</ele>
        <time>2012-01-22T08:12:24Z</time>
      </trkpt>
      <trkpt lat="44.59163" lon="4.96232">
        <ele>290</ele>
        <time>2012-01-22T08:12:27Z</time>
      </trkpt>
      <trkpt lat="44.59161" lon="4.96238">
        <ele>289</ele>
        <time>2012-01-22T08:12:29Z</time>
      </trkpt>
      <trkpt lat="44.59161" lon="4.96247">
        <ele>289</ele>
        <time>2012-01-22T08:12:32Z</time>
      </trkpt>
      <trkpt lat="44.59161" lon="4.96256">
        <ele>289</ele>
        <time>2012-01-22T08:12:35Z</time>
      </trkpt>
      <trkpt lat="44.5916" lon="4.96263">
        <ele>291</ele>
        <time>2012-01-22T08:12:37Z</time>
      </trkpt>
      <trkpt lat="44.59161" lon="4.96272">
        <ele>291</ele>
        <time>2012-01-22T08:12:40Z</time>
      </trkpt>
      <trkpt lat="44.59161" lon="4.9628">
        <ele>290</ele>
        <time>2012-01-22T08:12:43Z</time>
      </trkpt>
      <trkpt lat="44.59161" lon="4.96289">
        <ele>290</ele>
        <time>2012-01-22T08:12:46Z</time>
      </trkpt>
      <trkpt lat="44.5916" lon="4.96299">
        <ele>290</ele>
        <time>2012-01-22T08:12:49Z</time>
      </trkpt>
      <trkpt lat="44.5916" lon="4.96306">
        <ele>291</ele>
        <time>2012-01-22T08:12:51Z</time>
      </trkpt>
      <trkpt lat="44.59159" lon="4.96315">
        <ele>291</ele>
        <time>2012-01-22T08:12:53Z</time>
      </trkpt>
      <trkpt lat="44.5916" lon="4.96322">
        <ele>290</ele>
        <time>2012-01-22T08:12:56Z</time>
      </trkpt>
      <trkpt lat="44.5916" lon="4.96329">
        <ele>290</ele>
        <time>2012-01-22T08:12:59Z</time>
      </trkpt>
      <trkpt lat="44.5916" lon="4.96337">
        <ele>290</ele>
        <time>2012-01-22T08:13:02Z</time>
      </trkpt>
      <trkpt lat="44.59162" lon="4.96344">
        <ele>289</ele>
        <time>2012-01-22T08:13:06Z</time>
      </trkpt>
      <trkpt lat="44.59161" lon="4.96354">
        <ele>290</ele>
        <time>2012-01-22T08:13:09Z</time>
      </trkpt>
      <trkpt lat="44.59161" lon="4.96362">
        <ele>290</ele>
        <time>2012-01-22T08:13:12Z</time>
      </trkpt>
      <trkpt lat="44.59161" lon="4.96369">
        <ele>289</ele>
        <time>2012-01-22T08:13:15Z</time>
      </trkpt>
      <trkpt lat="44.59162" lon="4.96376">
        <ele>289</ele>
        <time>2012-01-22T08:13:18Z</time>
      </trkpt>
      <trkpt lat="44.59162" lon="4.96385">
        <ele>290</ele>
        <time>2012-01-22T08:13:21Z</time>
      </trkpt>
      <trkpt lat="44.59162" lon="4.96392">
        <ele>290</ele>
        <time>2012-01-22T08:13:23Z</time>
      </trkpt>
      <trkpt lat="44.59162" lon="4.96401">
        <ele>289</ele>
        <time>2012-01-22T08:13:26Z</time>
      </trkpt>
      <trkpt lat="44.59163" lon="4.96409">
        <ele>289</ele>
        <time>2012-01-22T08:13:29Z</time>
      </trkpt>
      <trkpt lat="44.59163" lon="4.96417">
        <ele>290</ele>
        <time>2012-01-22T08:13:32Z</time>
      </trkpt>
      <trkpt lat="44.59163" lon="4.96425">
        <ele>291</ele>
        <time>2012-01-22T08:13:35Z</time>
      </trkpt>
      <trkpt lat="44.59164" lon="4.96432">
        <ele>290</ele>
        <time>2012-01-22T08:13:38Z</time>
      </trkpt>
      <trkpt lat="44.59166" lon="4.96441">
        <ele>290</ele>
        <time>2012-01-22T08:13:41Z</time>
      </trkpt>
      <trkpt lat="44.59167" lon="4.96448">
        <ele>290</ele>
        <time>2012-01-22T08:13:44Z</time>
      </trkpt>
      <trkpt lat="44.59167" lon="4.96456">
        <ele>289</ele>
        <time>2012-01-22T08:13:47Z</time>
      </trkpt>
      <trkpt lat="44.59168" lon="4.96464">
        <ele>288</ele>
        <time>2012-01-22T08:13:50Z</time>
      </trkpt>
      <trkpt lat="44.59168" lon="4.96472">
        <ele>288</ele>
        <time>2012-01-22T08:13:52Z</time>
      </trkpt>
      <trkpt lat="44.59168" lon="4.96481">
        <ele>287</ele>
        <time>2012-01-22T08:13:55Z</time>
      </trkpt>
      <trkpt lat="44.59168" lon="4.96488">
        <ele>288</ele>
        <time>2012-01-22T08:13:57Z</time>
      </trkpt>
      <trkpt lat="44.59168" lon="4.96494">
        <ele>288</ele>
        <time>2012-01-22T08:14:00Z</time>
      </trkpt>
      <trkpt lat="44.59169" lon="4.96503">
        <ele>288</ele>
        <time>2012-01-22T08:14:03Z</time>
      </trkpt>
      <trkpt lat="44.59171" lon="4.96508">
        <ele>288</ele>
        <time>2012-01-22T08:14:06Z</time>
      </trkpt>
      <trkpt lat="44.59169" lon="4.96519">
        <ele>287</ele>
        <time>2012-01-22T08:14:09Z</time>
      </trkpt>
      <trkpt lat="44.59167" lon="4.96526">
        <ele>287</ele>
        <time>2012-01-22T08:14:11Z</time>
      </trkpt>
      <trkpt lat="44.59166" lon="4.96533">
        <ele>286</ele>
        <time>2012-01-22T08:14:13Z</time>
      </trkpt>
      <trkpt lat="44.59166" lon="4.96541">
        <ele>286</ele>
        <time>2012-01-22T08:14:15Z</time>
      </trkpt>
      <trkpt lat="44.59166" lon="4.96548">
        <ele>286</ele>
        <time>2012-01-22T08:14:17Z</time>
      </trkpt>
      <trkpt lat="44.59166" lon="4.96556">
        <ele>286</ele>
        <time>2012-01-22T08:14:19Z</time>
      </trkpt>
      <trkpt lat="44.59164" lon="4.96563">
        <ele>285</ele>
        <time>2012-01-22T08:14:21Z</time>
      </trkpt>
      <trkpt lat="44.59164" lon="4.96571">
        <ele>285</ele>
        <time>2012-01-22T08:14:23Z</time>
      </trkpt>
      <trkpt lat="44.59166" lon="4.96579">
        <ele>286</ele>
        <time>2012-01-22T08:14:27Z</time>
      </trkpt>
      <trkpt lat="44.59166" lon="4.96588">
        <ele>286</ele>
        <time>2012-01-22T08:14:30Z</time>
      </trkpt>
      <trkpt lat="44.59169" lon="4.96595">
        <ele>286</ele>
        <time>2012-01-22T08:14:33Z</time>
      </trkpt>
      <trkpt lat="44.5917" lon="4.96601">
        <ele>286</ele>
        <time>2012-01-22T08:14:35Z</time>
      </trkpt>
      <trkpt lat="44.59171" lon="4.96607">
        <ele>286</ele>
        <time>2012-01-22T08:14:38Z</time>
      </trkpt>
      <trkpt lat="44.59173" lon="4.96613">
        <ele>287</ele>
        <time>2012-01-22T08:14:40Z</time>
      </trkpt>
      <trkpt lat="44.59175" lon="4.96622">
        <ele>288</ele>
        <time>2012-01-22T08:14:43Z</time>
      </trkpt>
      <trkpt lat="44.59175" lon="4.96629">
        <ele>289</ele>
        <time>2012-01-22T08:14:46Z</time>
      </trkpt>
      <trkpt lat="44.59177" lon="4.96637">
        <ele>288</ele>
        <time>2012-01-22T08:14:50Z</time>
      </trkpt>
      <trkpt lat="44.59179" lon="4.96643">
        <ele>289</ele>
        <time>2012-01-22T08:14:53Z</time>
      </trkpt>
      <trkpt lat="44.59178" lon="4.96651">
        <ele>289</ele>
        <time>2012-01-22T08:14:56Z</time>
      </trkpt>
      <trkpt lat="44.5918" lon="4.96659">
        <ele>289</ele>
        <time>2012-01-22T08:15:00Z</time>
      </trkpt>
      <trkpt lat="44.5918" lon="4.96665">
        <ele>288</ele>
        <time>2012-01-22T08:15:03Z</time>
      </trkpt>
      <trkpt lat="44.59179" lon="4.96672">
        <ele>287</ele>
        <time>2012-01-22T08:15:05Z</time>
      </trkpt>
      <trkpt lat="44.59179" lon="4.9668">
        <ele>287</ele>
        <time>2012-01-22T08:15:07Z</time>
      </trkpt>
      <trkpt lat="44.59178" lon="4.96689">
        <ele>286</ele>
        <time>2012-01-22T08:15:09Z</time>
      </trkpt>
      <trkpt lat="44.59177" lon="4.96696">
        <ele>287</ele>
        <time>2012-01-22T08:15:11Z</time>
      </trkpt>
      <trkpt lat="44.59177" lon="4.96703">
        <ele>287</ele>
        <time>2012-01-22T08:15:14Z</time>
      </trkpt>
      <trkpt lat="44.59178" lon="4.96709">
        <ele>287</ele>
        <time>2012-01-22T08:15:17Z</time>
      </trkpt>
      <trkpt lat="44.59179" lon="4.96716">
        <ele>287</ele>
        <time>2012-01-22T08:15:22Z</time>
      </trkpt>
      <trkpt lat="44.59182" lon="4.96723">
        <ele>288</ele>
        <time>2012-01-22T08:15:25Z</time>
      </trkpt>
      <trkpt lat="44.59183" lon="4.9673">
        <ele>288</ele>
        <time>2012-01-22T08:15:29Z</time>
      </trkpt>
      <trkpt lat="44.59184" lon="4.96736">
        <ele>288</ele>
        <time>2012-01-22T08:15:31Z</time>
      </trkpt>
      <trkpt lat="44.59183" lon="4.96744">
        <ele>288</ele>
        <time>2012-01-22T08:15:34Z</time>
      </trkpt>
      <trkpt lat="44.59181" lon="4.9675">
        <ele>289</ele>
        <time>2012-01-22T08:15:47Z</time>
      </trkpt>
      <trkpt lat="44.59183" lon="4.96759">
        <ele>289</ele>
        <time>2012-01-22T08:15:49Z</time>
      </trkpt>
      <trkpt lat="44.59182" lon="4.96768">
        <ele>288</ele>
        <time>2012-01-22T08:15:51Z</time>
      </trkpt>
      <trkpt lat="44.59182" lon="4.96775">
        <ele>288</ele>
        <time>2012-01-22T08:15:53Z</time>
      </trkpt>
      <trkpt lat="44.59185" lon="4.9678">
        <ele>289</ele>
        <time>2012-01-22T08:15:55Z</time>
      </trkpt>
      <trkpt lat="44.59187" lon="4.96788">
        <ele>289</ele>
        <time>2012-01-22T08:15:57Z</time>
      </trkpt>
      <trkpt lat="44.5919" lon="4.96794">
        <ele>290</ele>
        <time>2012-01-22T08:15:59Z</time>
      </trkpt>
      <trkpt lat="44.5919" lon="4.968">
        <ele>290</ele>
        <time>2012-01-22T08:16:01Z</time>
      </trkpt>
      <trkpt lat="44.5919" lon="4.96808">
        <ele>291</ele>
        <time>2012-01-22T08:16:04Z</time>
      </trkpt>
      <trkpt lat="44.59189" lon="4.96816">
        <ele>290</ele>
        <time>2012-01-22T08:16:06Z</time>
      </trkpt>
      <trkpt lat="44.59189" lon="4.96824">
        <ele>291</ele>
        <time>2012-01-22T08:16:09Z</time>
      </trkpt>
      <trkpt lat="44.59188" lon="4.96832">
        <ele>291</ele>
        <time>2012-01-22T08:16:12Z</time>
      </trkpt>
      <trkpt lat="44.59188" lon="4.96841">
        <ele>291</ele>
        <time>2012-01-22T08:16:18Z</time>
      </trkpt>
      <trkpt lat="44.59188" lon="4.9685">
        <ele>291</ele>
        <time>2012-01-22T08:16:19Z</time>
      </trkpt>
      <trkpt lat="44.59188" lon="4.96859">
        <ele>290</ele>
        <time>2012-01-22T08:16:21Z</time>
      </trkpt>
      <trkpt lat="44.59188" lon="4.96868">
        <ele>288</ele>
        <time>2012-01-22T08:16:23Z</time>
      </trkpt>
      <trkpt lat="44.59188" lon="4.96875">
        <ele>287</ele>
        <time>2012-01-22T08:16:25Z</time>
      </trkpt>
      <trkpt lat="44.59186" lon="4.96884">
        <ele>287</ele>
        <time>2012-01-22T08:16:27Z</time>
      </trkpt>
      <trkpt lat="44.59187" lon="4.96895">
        <ele>287</ele>
        <time>2012-01-22T08:16:30Z</time>
      </trkpt>
      <trkpt lat="44.5919" lon="4.96904">
        <ele>287</ele>
        <time>2012-01-22T08:16:33Z</time>
      </trkpt>
      <trkpt lat="44.59188" lon="4.96911">
        <ele>286</ele>
        <time>2012-01-22T08:16:36Z</time>
      </trkpt>
      <trkpt lat="44.59188" lon="4.96919">
        <ele>284</ele>
        <time>2012-01-22T08:16:39Z</time>
      </trkpt>
      <trkpt lat="44.59186" lon="4.96925">
        <ele>282</ele>
        <time>2012-01-22T08:16:41Z</time>
      </trkpt>
      <trkpt lat="44.59186" lon="4.96933">
        <ele>283</ele>
        <time>2012-01-22T08:16:44Z</time>
      </trkpt>
      <trkpt lat="44.59187" lon="4.9694">
        <ele>281</ele>
        <time>2012-01-22T08:16:47Z</time>
      </trkpt>
      <trkpt lat="44.59187" lon="4.96947">
        <ele>282</ele>
        <time>2012-01-22T08:16:49Z</time>
      </trkpt>
      <trkpt lat="44.59189" lon="4.96953">
        <ele>282</ele>
        <time>2012-01-22T08:16:51Z</time>
      </trkpt>
      <trkpt lat="44.59188" lon="4.96961">
        <ele>282</ele>
        <time>2012-01-22T08:16:54Z</time>
      </trkpt>
      <trkpt lat="44.59189" lon="4.96968">
        <ele>281</ele>
        <time>2012-01-22T08:16:57Z</time>
      </trkpt>
      <trkpt lat="44.59188" lon="4.96975">
        <ele>280</ele>
        <time>2012-01-22T08:17:00Z</time>
      </trkpt>
      <trkpt lat="44.59188" lon="4.96983">
        <ele>280</ele>
        <time>2012-01-22T08:17:03Z</time>
      </trkpt>
      <trkpt lat="44.59188" lon="4.96992">
        <ele>279</ele>
        <time>2012-01-22T08:17:06Z</time>
      </trkpt>
      <trkpt lat="44.59187" lon="4.96999">
        <ele>278</ele>
        <time>2012-01-22T08:17:09Z</time>
      </trkpt>
      <trkpt lat="44.59188" lon="4.97007">
        <ele>277</ele>
        <time>2012-01-22T08:17:12Z</time>
      </trkpt>
      <trkpt lat="44.59187" lon="4.97016">
        <ele>280</ele>
        <time>2012-01-22T08:17:13Z</time>
      </trkpt>
      <trkpt lat="44.59188" lon="4.97024">
        <ele>278</ele>
        <time>2012-01-22T08:17:18Z</time>
      </trkpt>
      <trkpt lat="44.59189" lon="4.97032">
        <ele>277</ele>
        <time>2012-01-22T08:17:21Z</time>
      </trkpt>
      <trkpt lat="44.5919" lon="4.97038">
        <ele>277</ele>
        <time>2012-01-22T08:17:24Z</time>
      </trkpt>
      <trkpt lat="44.5919" lon="4.97046">
        <ele>277</ele>
        <time>2012-01-22T08:17:27Z</time>
      </trkpt>
      <trkpt lat="44.59191" lon="4.97054">
        <ele>277</ele>
        <time>2012-01-22T08:17:30Z</time>
      </trkpt>
      <trkpt lat="44.59192" lon="4.97061">
        <ele>276</ele>
        <time>2012-01-22T08:17:33Z</time>
      </trkpt>
      <trkpt lat="44.59192" lon="4.9707">
        <ele>278</ele>
        <time>2012-01-22T08:17:36Z</time>
      </trkpt>
      <trkpt lat="44.59192" lon="4.97078">
        <ele>279</ele>
        <time>2012-01-22T08:17:39Z</time>
      </trkpt>
      <trkpt lat="44.59192" lon="4.97086">
        <ele>279</ele>
        <time>2012-01-22T08:17:42Z</time>
      </trkpt>
      <trkpt lat="44.59192" lon="4.97095">
        <ele>279</ele>
        <time>2012-01-22T08:17:45Z</time>
      </trkpt>
      <trkpt lat="44.59192" lon="4.97103">
        <ele>279</ele>
        <time>2012-01-22T08:17:48Z</time>
      </trkpt>
      <trkpt lat="44.59194" lon="4.97112">
        <ele>279</ele>
        <time>2012-01-22T08:17:51Z</time>
      </trkpt>
      <trkpt lat="44.59194" lon="4.97121">
        <ele>278</ele>
        <time>2012-01-22T08:17:54Z</time>
      </trkpt>
      <trkpt lat="44.59191" lon="4.9713">
        <ele>278</ele>
        <time>2012-01-22T08:17:57Z</time>
      </trkpt>
      <trkpt lat="44.59193" lon="4.97137">
        <ele>279</ele>
        <time>2012-01-22T08:18:00Z</time>
      </trkpt>
      <trkpt lat="44.59195" lon="4.97144">
        <ele>279</ele>
        <time>2012-01-22T08:18:03Z</time>
      </trkpt>
      <trkpt lat="44.59194" lon="4.97151">
        <ele>279</ele>
        <time>2012-01-22T08:18:05Z</time>
      </trkpt>
      <trkpt lat="44.59193" lon="4.97157">
        <ele>278</ele>
        <time>2012-01-22T08:18:07Z</time>
      </trkpt>
      <trkpt lat="44.59193" lon="4.97164">
        <ele>278</ele>
        <time>2012-01-22T08:18:10Z</time>
      </trkpt>
      <trkpt lat="44.59192" lon="4.97173">
        <ele>277</ele>
        <time>2012-01-22T08:18:13Z</time>
      </trkpt>
      <trkpt lat="44.59194" lon="4.9718">
        <ele>277</ele>
        <time>2012-01-22T08:18:16Z</time>
      </trkpt>
      <trkpt lat="44.59194" lon="4.97187">
        <ele>277</ele>
        <time>2012-01-22T08:18:19Z</time>
      </trkpt>
      <trkpt lat="44.59193" lon="4.97196">
        <ele>278</ele>
        <time>2012-01-22T08:18:22Z</time>
      </trkpt>
      <trkpt lat="44.59194" lon="4.97205">
        <ele>277</ele>
        <time>2012-01-22T08:18:25Z</time>
      </trkpt>
      <trkpt lat="44.59196" lon="4.97213">
        <ele>277</ele>
        <time>2012-01-22T08:18:28Z</time>
      </trkpt>
      <trkpt lat="44.59199" lon="4.9722">
        <ele>278</ele>
        <time>2012-01-22T08:18:31Z</time>
      </trkpt>
      <trkpt lat="44.592" lon="4.97229">
        <ele>279</ele>
        <time>2012-01-22T08:18:34Z</time>
      </trkpt>
      <trkpt lat="44.59199" lon="4.97235">
        <ele>279</ele>
        <time>2012-01-22T08:18:36Z</time>
      </trkpt>
      <trkpt lat="44.59199" lon="4.97242">
        <ele>279</ele>
        <time>2012-01-22T08:18:39Z</time>
      </trkpt>
      <trkpt lat="44.59199" lon="4.97249">
        <ele>278</ele>
        <time>2012-01-22T08:18:42Z</time>
      </trkpt>
      <trkpt lat="44.59197" lon="4.97258">
        <ele>277</ele>
        <time>2012-01-22T08:18:45Z</time>
      </trkpt>
      <trkpt lat="44.59195" lon="4.97265">
        <ele>275</ele>
        <time>2012-01-22T08:18:48Z</time>
      </trkpt>
      <trkpt lat="44.59196" lon="4.97272">
        <ele>275</ele>
        <time>2012-01-22T08:18:51Z</time>
      </trkpt>
      <trkpt lat="44.59197" lon="4.9728">
        <ele>277</ele>
        <time>2012-01-22T08:18:54Z</time>
      </trkpt>
      <trkpt lat="44.59197" lon="4.97288">
        <ele>277</ele>
        <time>2012-01-22T08:18:57Z</time>
      </trkpt>
      <trkpt lat="44.59197" lon="4.97297">
        <ele>277</ele>
        <time>2012-01-22T08:19:00Z</time>
      </trkpt>
      <trkpt lat="44.59197" lon="4.97305">
        <ele>277</ele>
        <time>2012-01-22T08:19:03Z</time>
      </trkpt>
      <trkpt lat="44.59196" lon="4.97313">
        <ele>276</ele>
        <time>2012-01-22T08:19:06Z</time>
      </trkpt>
      <trkpt lat="44.59196" lon="4.9732">
        <ele>276</ele>
        <time>2012-01-22T08:19:09Z</time>
      </trkpt>
      <trkpt lat="44.59197" lon="4.97328">
        <ele>275</ele>
        <time>2012-01-22T08:19:12Z</time>
      </trkpt>
      <trkpt lat="44.59196" lon="4.97335">
        <ele>275</ele>
        <time>2012-01-22T08:19:15Z</time>
      </trkpt>
      <trkpt lat="44.59197" lon="4.97342">
        <ele>275</ele>
        <time>2012-01-22T08:19:18Z</time>
      </trkpt>
      <trkpt lat="44.59198" lon="4.97349">
        <ele>274</ele>
        <time>2012-01-22T08:19:21Z</time>
      </trkpt>
      <trkpt lat="44.59198" lon="4.97357">
        <ele>274</ele>
        <time>2012-01-22T08:19:24Z</time>
      </trkpt>
      <trkpt lat="44.59199" lon="4.97366">
        <ele>273</ele>
        <time>2012-01-22T08:19:27Z</time>
      </trkpt>
      <trkpt lat="44.59199" lon="4.97375">
        <ele>274</ele>
        <time>2012-01-22T08:19:30Z</time>
      </trkpt>
      <trkpt lat="44.59199" lon="4.97383">
        <ele>274</ele>
        <time>2012-01-22T08:19:33Z</time>
      </trkpt>
      <trkpt lat="44.59198" lon="4.97392">
        <ele>274</ele>
        <time>2012-01-22T08:19:36Z</time>
      </trkpt>
      <trkpt lat="44.59198" lon="4.97398">
        <ele>275</ele>
        <time>2012-01-22T08:19:39Z</time>
      </trkpt>
      <trkpt lat="44.59195" lon="4.97407">
        <ele>274</ele>
        <time>2012-01-22T08:19:42Z</time>
      </trkpt>
      <trkpt lat="44.59194" lon="4.97414">
        <ele>274</ele>
        <time>2012-01-22T08:19:44Z</time>
      </trkpt>
      <trkpt lat="44.59193" lon="4.97422">
        <ele>273</ele>
        <time>2012-01-22T08:19:47Z</time>
      </trkpt>
      <trkpt lat="44.59194" lon="4.9743">
        <ele>272</ele>
        <time>2012-01-22T08:19:51Z</time>
      </trkpt>
      <trkpt lat="44.59193" lon="4.97439">
        <ele>271</ele>
        <time>2012-01-22T08:19:54Z</time>
      </trkpt>
      <trkpt lat="44.59193" lon="4.97448">
        <ele>270</ele>
        <time>2012-01-22T08:19:57Z</time>
      </trkpt>
      <trkpt lat="44.59193" lon="4.97456">
        <ele>270</ele>
        <time>2012-01-22T08:20:00Z</time>
      </trkpt>
      <trkpt lat="44.59193" lon="4.97464">
        <ele>270</ele>
        <time>2012-01-22T08:20:03Z</time>
      </trkpt>
      <trkpt lat="44.59194" lon="4.97471">
        <ele>271</ele>
        <time>2012-01-22T08:20:05Z</time>
      </trkpt>
      <trkpt lat="44.59195" lon="4.97478">
        <ele>270</ele>
        <time>2012-01-22T08:20:08Z</time>
      </trkpt>
      <trkpt lat="44.59196" lon="4.97486">
        <ele>271</ele>
        <time>2012-01-22T08:20:11Z</time>
      </trkpt>
      <trkpt lat="44.59195" lon="4.97494">
        <ele>271</ele>
        <time>2012-01-22T08:20:14Z</time>
      </trkpt>
      <trkpt lat="44.59194" lon="4.97502">
        <ele>269</ele>
        <time>2012-01-22T08:20:18Z</time>
      </trkpt>
      <trkpt lat="44.59194" lon="4.97512">
        <ele>269</ele>
        <time>2012-01-22T08:20:21Z</time>
      </trkpt>
      <trkpt lat="44.59194" lon="4.9752">
        <ele>270</ele>
        <time>2012-01-22T08:20:24Z</time>
      </trkpt>
      <trkpt lat="44.59193" lon="4.97527">
        <ele>270</ele>
        <time>2012-01-22T08:20:27Z</time>
      </trkpt>
      <trkpt lat="44.59193" lon="4.97536">
        <ele>270</ele>
        <time>2012-01-22T08:20:30Z</time>
      </trkpt>
      <trkpt lat="44.59192" lon="4.97544">
        <ele>270</ele>
        <time>2012-01-22T08:20:33Z</time>
      </trkpt>
      <trkpt lat="44.59192" lon="4.9755">
        <ele>269</ele>
        <time>2012-01-22T08:20:36Z</time>
      </trkpt>
      <trkpt lat="44.59192" lon="4.97557">
        <ele>270</ele>
        <time>2012-01-22T08:20:39Z</time>
      </trkpt>
      <trkpt lat="44.59192" lon="4.97565">
        <ele>270</ele>
        <time>2012-01-22T08:20:41Z</time>
      </trkpt>
      <trkpt lat="44.59193" lon="4.97574">
        <ele>270</ele>
        <time>2012-01-22T08:20:43Z</time>
      </trkpt>
      <trkpt lat="44.59193" lon="4.97582">
        <ele>271</ele>
        <time>2012-01-22T08:20:45Z</time>
      </trkpt>
      <trkpt lat="44.59193" lon="4.97593">
        <ele>272</ele>
        <time>2012-01-22T08:20:48Z</time>
      </trkpt>
      <trkpt lat="44.59193" lon="4.976">
        <ele>272</ele>
        <time>2012-01-22T08:20:50Z</time>
      </trkpt>
      <trkpt lat="44.59192" lon="4.97609">
        <ele>273</ele>
        <time>2012-01-22T08:20:53Z</time>
      </trkpt>
      <trkpt lat="44.59193" lon="4.97616">
        <ele>274</ele>
        <time>2012-01-22T08:20:55Z</time>
      </trkpt>
      <trkpt lat="44.59196" lon="4.97623">
        <ele>274</ele>
        <time>2012-01-22T08:20:58Z</time>
      </trkpt>
      <trkpt lat="44.59196" lon="4.97631">
        <ele>274</ele>
        <time>2012-01-22T08:21:01Z</time>
      </trkpt>
      <trkpt lat="44.59197" lon="4.97639">
        <ele>273</ele>
        <time>2012-01-22T08:21:04Z</time>
      </trkpt>
      <trkpt lat="44.59197" lon="4.97646">
        <ele>272</ele>
        <time>2012-01-22T08:21:07Z</time>
      </trkpt>
      <trkpt lat="44.59198" lon="4.97654">
        <ele>271</ele>
        <time>2012-01-22T08:21:10Z</time>
      </trkpt>
      <trkpt lat="44.59198" lon="4.97662">
        <ele>271</ele>
        <time>2012-01-22T08:21:13Z</time>
      </trkpt>
      <trkpt lat="44.59199" lon="4.97669">
        <ele>272</ele>
        <time>2012-01-22T08:21:16Z</time>
      </trkpt>
      <trkpt lat="44.59199" lon="4.97675">
        <ele>272</ele>
        <time>2012-01-22T08:21:18Z</time>
      </trkpt>
      <trkpt lat="44.59198" lon="4.97681">
        <ele>272</ele>
        <time>2012-01-22T08:21:21Z</time>
      </trkpt>
      <trkpt lat="44.59198" lon="4.97689">
        <ele>272</ele>
        <time>2012-01-22T08:21:24Z</time>
      </trkpt>
      <trkpt lat="44.59198" lon="4.97697">
        <ele>272</ele>
        <time>2012-01-22T08:21:27Z</time>
      </trkpt>
      <trkpt lat="44.59198" lon="4.97704">
        <ele>272</ele>
        <time>2012-01-22T08:21:29Z</time>
      </trkpt>
      <trkpt lat="44.59199" lon="4.97711">
        <ele>271</ele>
        <time>2012-01-22T08:21:32Z</time>
      </trkpt>
      <trkpt lat="44.59201" lon="4.97717">
        <ele>270</ele>
        <time>2012-01-22T08:21:35Z</time>
      </trkpt>
      <trkpt lat="44.59201" lon="4.97726">
        <ele>271</ele>
        <time>2012-01-22T08:21:38Z</time>
      </trkpt>
      <trkpt lat="44.59201" lon="4.97732">
        <ele>272</ele>
        <time>2012-01-22T08:21:40Z</time>
      </trkpt>
      <trkpt lat="44.59202" lon="4.9774">
        <ele>272</ele>
        <time>2012-01-22T08:21:44Z</time>
      </trkpt>
      <trkpt lat="44.59202" lon="4.97748">
        <ele>272</ele>
        <time>2012-01-22T08:21:47Z</time>
      </trkpt>
      <trkpt lat="44.59201" lon="4.97755">
        <ele>273</ele>
        <time>2012-01-22T08:21:49Z</time>
      </trkpt>
      <trkpt lat="44.59202" lon="4.97763">
        <ele>273</ele>
        <time>2012-01-22T08:21:52Z</time>
      </trkpt>
      <trkpt lat="44.59203" lon="4.97771">
        <ele>272</ele>
        <time>2012-01-22T08:21:55Z</time>
      </trkpt>
      <trkpt lat="44.59204" lon="4.97777">
        <ele>273</ele>
        <time>2012-01-22T08:21:57Z</time>
      </trkpt>
      <trkpt lat="44.59203" lon="4.97786">
        <ele>273</ele>
        <time>2012-01-22T08:22:00Z</time>
      </trkpt>
      <trkpt lat="44.59204" lon="4.97795">
        <ele>273</ele>
        <time>2012-01-22T08:22:03Z</time>
      </trkpt>
      <trkpt lat="44.59204" lon="4.97803">
        <ele>273</ele>
        <time>2012-01-22T08:22:06Z</time>
      </trkpt>
      <trkpt lat="44.59204" lon="4.97812">
        <ele>274</ele>
        <time>2012-01-22T08:22:09Z</time>
      </trkpt>
      <trkpt lat="44.59204" lon="4.97818">
        <ele>273</ele>
        <time>2012-01-22T08:22:11Z</time>
      </trkpt>
      <trkpt lat="44.59203" lon="4.97827">
        <ele>274</ele>
        <time>2012-01-22T08:22:14Z</time>
      </trkpt>
      <trkpt lat="44.59202" lon="4.97836">
        <ele>273</ele>
        <time>2012-01-22T08:22:17Z</time>
      </trkpt>
      <trkpt lat="44.59202" lon="4.97843">
        <ele>273</ele>
        <time>2012-01-22T08:22:20Z</time>
      </trkpt>
      <trkpt lat="44.59203" lon="4.9785">
        <ele>273</ele>
        <time>2012-01-22T08:22:22Z</time>
      </trkpt>
      <trkpt lat="44.59204" lon="4.97858">
        <ele>273</ele>
        <time>2012-01-22T08:22:25Z</time>
      </trkpt>
      <trkpt lat="44.59205" lon="4.97864">
        <ele>273</ele>
        <time>2012-01-22T08:22:27Z</time>
      </trkpt>
      <trkpt lat="44.59205" lon="4.97872">
        <ele>273</ele>
        <time>2012-01-22T08:22:30Z</time>
      </trkpt>
      <trkpt lat="44.59206" lon="4.97881">
        <ele>273</ele>
        <time>2012-01-22T08:22:33Z</time>
      </trkpt>
      <trkpt lat="44.59206" lon="4.97887">
        <ele>272</ele>
        <time>2012-01-22T08:22:35Z</time>
      </trkpt>
      <trkpt lat="44.59207" lon="4.97896">
        <ele>272</ele>
        <time>2012-01-22T08:22:38Z</time>
      </trkpt>
      <trkpt lat="44.59206" lon="4.97903">
        <ele>272</ele>
        <time>2012-01-22T08:22:41Z</time>
      </trkpt>
      <trkpt lat="44.59203" lon="4.97913">
        <ele>273</ele>
        <time>2012-01-22T08:22:44Z</time>
      </trkpt>
      <trkpt lat="44.59202" lon="4.9792">
        <ele>273</ele>
        <time>2012-01-22T08:22:46Z</time>
      </trkpt>
      <trkpt lat="44.59201" lon="4.97927">
        <ele>274</ele>
        <time>2012-01-22T08:22:48Z</time>
      </trkpt>
      <trkpt lat="44.59202" lon="4.97933">
        <ele>275</ele>
        <time>2012-01-22T08:22:51Z</time>
      </trkpt>
      <trkpt lat="44.59204" lon="4.9794">
        <ele>275</ele>
        <time>2012-01-22T08:22:54Z</time>
      </trkpt>
      <trkpt lat="44.59205" lon="4.97947">
        <ele>273</ele>
        <time>2012-01-22T08:22:57Z</time>
      </trkpt>
      <trkpt lat="44.59206" lon="4.97955">
        <ele>273</ele>
        <time>2012-01-22T08:23:00Z</time>
      </trkpt>
      <trkpt lat="44.59207" lon="4.97963">
        <ele>273</ele>
        <time>2012-01-22T08:23:03Z</time>
      </trkpt>
      <trkpt lat="44.59207" lon="4.97971">
        <ele>273</ele>
        <time>2012-01-22T08:23:06Z</time>
      </trkpt>
      <trkpt lat="44.59207" lon="4.9798">
        <ele>274</ele>
        <time>2012-01-22T08:23:09Z</time>
      </trkpt>
      <trkpt lat="44.59207" lon="4.97988">
        <ele>274</ele>
        <time>2012-01-22T08:23:12Z</time>
      </trkpt>
      <trkpt lat="44.59208" lon="4.97997">
        <ele>274</ele>
        <time>2012-01-22T08:23:15Z</time>
      </trkpt>
      <trkpt lat="44.59208" lon="4.98005">
        <ele>273</ele>
        <time>2012-01-22T08:23:18Z</time>
      </trkpt>
      <trkpt lat="44.59209" lon="4.98012">
        <ele>275</ele>
        <time>2012-01-22T08:23:20Z</time>
      </trkpt>
      <trkpt lat="44.5921" lon="4.98021">
        <ele>275</ele>
        <time>2012-01-22T08:23:23Z</time>
      </trkpt>
      <trkpt lat="44.5921" lon="4.98027">
        <ele>274</ele>
        <time>2012-01-22T08:23:25Z</time>
      </trkpt>
      <trkpt lat="44.59212" lon="4.98036">
        <ele>274</ele>
        <time>2012-01-22T08:23:28Z</time>
      </trkpt>
      <trkpt lat="44.59213" lon="4.98046">
        <ele>274</ele>
        <time>2012-01-22T08:23:31Z</time>
      </trkpt>
      <trkpt lat="44.59214" lon="4.98052">
        <ele>274</ele>
        <time>2012-01-22T08:23:33Z</time>
      </trkpt>
      <trkpt lat="44.59215" lon="4.98059">
        <ele>274</ele>
        <time>2012-01-22T08:23:35Z</time>
      </trkpt>
      <trkpt lat="44.59216" lon="4.98067">
        <ele>273</ele>
        <time>2012-01-22T08:23:38Z</time>
      </trkpt>
      <trkpt lat="44.59219" lon="4.98074">
        <ele>273</ele>
        <time>2012-01-22T08:23:41Z</time>
      </trkpt>
      <trkpt lat="44.59222" lon="4.98079">
        <ele>270</ele>
        <time>2012-01-22T08:23:44Z</time>
      </trkpt>
      <trkpt lat="44.59222" lon="4.9809">
        <ele>270</ele>
        <time>2012-01-22T08:23:47Z</time>
      </trkpt>
      <trkpt lat="44.59224" lon="4.98097">
        <ele>269</ele>
        <time>2012-01-22T08:23:50Z</time>
      </trkpt>
      <trkpt lat="44.59228" lon="4.98103">
        <ele>270</ele>
        <time>2012-01-22T08:23:53Z</time>
      </trkpt>
      <trkpt lat="44.59229" lon="4.9811">
        <ele>270</ele>
        <time>2012-01-22T08:23:55Z</time>
      </trkpt>
      <trkpt lat="44.5923" lon="4.98117">
        <ele>270</ele>
        <time>2012-01-22T08:23:57Z</time>
      </trkpt>
      <trkpt lat="44.59232" lon="4.98124">
        <ele>271</ele>
        <time>2012-01-22T08:24:00Z</time>
      </trkpt>
      <trkpt lat="44.59234" lon="4.98132">
        <ele>271</ele>
        <time>2012-01-22T08:24:03Z</time>
      </trkpt>
      <trkpt lat="44.59237" lon="4.98138">
        <ele>271</ele>
        <time>2012-01-22T08:24:06Z</time>
      </trkpt>
      <trkpt lat="44.5924" lon="4.98146">
        <ele>272</ele>
        <time>2012-01-22T08:24:09Z</time>
      </trkpt>
      <trkpt lat="44.59242" lon="4.98154">
        <ele>272</ele>
        <time>2012-01-22T08:24:12Z</time>
      </trkpt>
      <trkpt lat="44.59243" lon="4.98162">
        <ele>272</ele>
        <time>2012-01-22T08:24:15Z</time>
      </trkpt>
      <trkpt lat="44.59245" lon="4.9817">
        <ele>273</ele>
        <time>2012-01-22T08:24:18Z</time>
      </trkpt>
      <trkpt lat="44.59247" lon="4.98176">
        <ele>273</ele>
        <time>2012-01-22T08:24:20Z</time>
      </trkpt>
      <trkpt lat="44.59248" lon="4.98182">
        <ele>273</ele>
        <time>2012-01-22T08:24:22Z</time>
      </trkpt>
      <trkpt lat="44.5925" lon="4.98188">
        <ele>273</ele>
        <time>2012-01-22T08:24:24Z</time>
      </trkpt>
      <trkpt lat="44.59252" lon="4.98195">
        <ele>273</ele>
        <time>2012-01-22T08:24:27Z</time>
      </trkpt>
      <trkpt lat="44.59255" lon="4.98204">
        <ele>273</ele>
        <time>2012-01-22T08:24:30Z</time>
      </trkpt>
      <trkpt lat="44.59258" lon="4.9821">
        <ele>275</ele>
        <time>2012-01-22T08:24:33Z</time>
      </trkpt>
      <trkpt lat="44.59258" lon="4.98216">
        <ele>274</ele>
        <time>2012-01-22T08:24:35Z</time>
      </trkpt>
      <trkpt lat="44.5926" lon="4.98225">
        <ele>274</ele>
        <time>2012-01-22T08:24:38Z</time>
      </trkpt>
      <trkpt lat="44.59262" lon="4.98234">
        <ele>275</ele>
        <time>2012-01-22T08:24:41Z</time>
      </trkpt>
      <trkpt lat="44.59264" lon="4.98242">
        <ele>276</ele>
        <time>2012-01-22T08:24:44Z</time>
      </trkpt>
      <trkpt lat="44.59266" lon="4.98248">
        <ele>276</ele>
        <time>2012-01-22T08:24:46Z</time>
      </trkpt>
      <trkpt lat="44.59268" lon="4.98255">
        <ele>277</ele>
        <time>2012-01-22T08:24:49Z</time>
      </trkpt>
      <trkpt lat="44.5927" lon="4.98263">
        <ele>277</ele>
        <time>2012-01-22T08:24:52Z</time>
      </trkpt>
      <trkpt lat="44.59272" lon="4.98271">
        <ele>277</ele>
        <time>2012-01-22T08:24:55Z</time>
      </trkpt>
      <trkpt lat="44.59275" lon="4.98277">
        <ele>276</ele>
        <time>2012-01-22T08:24:58Z</time>
      </trkpt>
      <trkpt lat="44.59279" lon="4.98284">
        <ele>276</ele>
        <time>2012-01-22T08:25:01Z</time>
      </trkpt>
      <trkpt lat="44.59281" lon="4.98291">
        <ele>276</ele>
        <time>2012-01-22T08:25:04Z</time>
      </trkpt>
      <trkpt lat="44.5928" lon="4.98299">
        <ele>275</ele>
        <time>2012-01-22T08:25:07Z</time>
      </trkpt>
      <trkpt lat="44.59283" lon="4.98306">
        <ele>276</ele>
        <time>2012-01-22T08:25:10Z</time>
      </trkpt>
      <trkpt lat="44.59285" lon="4.98312">
        <ele>277</ele>
        <time>2012-01-22T08:25:12Z</time>
      </trkpt>
      <trkpt lat="44.59287" lon="4.98321">
        <ele>277</ele>
        <time>2012-01-22T08:25:15Z</time>
      </trkpt>
      <trkpt lat="44.5929" lon="4.98328">
        <ele>276</ele>
        <time>2012-01-22T08:25:18Z</time>
      </trkpt>
      <trkpt lat="44.5929" lon="4.98334">
        <ele>276</ele>
        <time>2012-01-22T08:25:20Z</time>
      </trkpt>
      <trkpt lat="44.59291" lon="4.98343">
        <ele>276</ele>
        <time>2012-01-22T08:25:23Z</time>
      </trkpt>
      <trkpt lat="44.59294" lon="4.98353">
        <ele>276</ele>
        <time>2012-01-22T08:25:27Z</time>
      </trkpt>
      <trkpt lat="44.59294" lon="4.9836">
        <ele>277</ele>
        <time>2012-01-22T08:25:29Z</time>
      </trkpt>
      <trkpt lat="44.59296" lon="4.98366">
        <ele>277</ele>
        <time>2012-01-22T08:25:32Z</time>
      </trkpt>
      <trkpt lat="44.59298" lon="4.98374">
        <ele>276</ele>
        <time>2012-01-22T08:25:35Z</time>
      </trkpt>
      <trkpt lat="44.593" lon="4.98381">
        <ele>276</ele>
        <time>2012-01-22T08:25:38Z</time>
      </trkpt>
      <trkpt lat="44.59306" lon="4.98386">
        <ele>276</ele>
        <time>2012-01-22T08:25:41Z</time>
      </trkpt>
      <trkpt lat="44.59309" lon="4.98391">
        <ele>276</ele>
        <time>2012-01-22T08:25:43Z</time>
      </trkpt>
      <trkpt lat="44.59311" lon="4.98397">
        <ele>276</ele>
        <time>2012-01-22T08:25:46Z</time>
      </trkpt>
      <trkpt lat="44.59313" lon="4.98405">
        <ele>276</ele>
        <time>2012-01-22T08:25:49Z</time>
      </trkpt>
      <trkpt lat="44.59315" lon="4.98414">
        <ele>277</ele>
        <time>2012-01-22T08:25:52Z</time>
      </trkpt>
      <trkpt lat="44.59318" lon="4.9842">
        <ele>277</ele>
        <time>2012-01-22T08:25:55Z</time>
      </trkpt>
      <trkpt lat="44.59323" lon="4.98422">
        <ele>277</ele>
        <time>2012-01-22T08:25:57Z</time>
      </trkpt>
      <trkpt lat="44.59328" lon="4.98426">
        <ele>277</ele>
        <time>2012-01-22T08:26:00Z</time>
      </trkpt>
      <trkpt lat="44.59327" lon="4.98434">
        <ele>277</ele>
        <time>2012-01-22T08:26:02Z</time>
      </trkpt>
      <trkpt lat="44.5933" lon="4.9844">
        <ele>277</ele>
        <time>2012-01-22T08:26:05Z</time>
      </trkpt>
      <trkpt lat="44.59331" lon="4.98446">
        <ele>277</ele>
        <time>2012-01-22T08:26:08Z</time>
      </trkpt>
      <trkpt lat="44.59332" lon="4.98453">
        <ele>277</ele>
        <time>2012-01-22T08:26:10Z</time>
      </trkpt>
      <trkpt lat="44.59334" lon="4.98463">
        <ele>277</ele>
        <time>2012-01-22T08:26:13Z</time>
      </trkpt>
      <trkpt lat="44.59334" lon="4.98471">
        <ele>276</ele>
        <time>2012-01-22T08:26:15Z</time>
      </trkpt>
      <trkpt lat="44.59339" lon="4.98476">
        <ele>275</ele>
        <time>2012-01-22T08:26:19Z</time>
      </trkpt>
      <trkpt lat="44.59341" lon="4.98483">
        <ele>275</ele>
        <time>2012-01-22T08:26:22Z</time>
      </trkpt>
      <trkpt lat="44.59343" lon="4.9849">
        <ele>275</ele>
        <time>2012-01-22T08:26:24Z</time>
      </trkpt>
      <trkpt lat="44.59345" lon="4.98496">
        <ele>273</ele>
        <time>2012-01-22T08:26:26Z</time>
      </trkpt>
      <trkpt lat="44.59347" lon="4.98503">
        <ele>273</ele>
        <time>2012-01-22T08:26:29Z</time>
      </trkpt>
      <trkpt lat="44.5935" lon="4.9851">
        <ele>274</ele>
        <time>2012-01-22T08:26:32Z</time>
      </trkpt>
      <trkpt lat="44.59353" lon="4.98518">
        <ele>274</ele>
        <time>2012-01-22T08:26:35Z</time>
      </trkpt>
      <trkpt lat="44.59355" lon="4.98526">
        <ele>275</ele>
        <time>2012-01-22T08:26:38Z</time>
      </trkpt>
      <trkpt lat="44.59358" lon="4.98533">
        <ele>275</ele>
        <time>2012-01-22T08:26:41Z</time>
      </trkpt>
      <trkpt lat="44.5936" lon="4.98539">
        <ele>275</ele>
        <time>2012-01-22T08:26:44Z</time>
      </trkpt>
      <trkpt lat="44.59362" lon="4.98547">
        <ele>275</ele>
        <time>2012-01-22T08:26:47Z</time>
      </trkpt>
      <trkpt lat="44.59365" lon="4.98554">
        <ele>275</ele>
        <time>2012-01-22T08:26:50Z</time>
      </trkpt>
      <trkpt lat="44.59368" lon="4.9856">
        <ele>275</ele>
        <time>2012-01-22T08:26:53Z</time>
      </trkpt>
      <trkpt lat="44.59371" lon="4.98567">
        <ele>275</ele>
        <time>2012-01-22T08:26:56Z</time>
      </trkpt>
      <trkpt lat="44.59374" lon="4.98573">
        <ele>275</ele>
        <time>2012-01-22T08:26:59Z</time>
      </trkpt>
      <trkpt lat="44.59377" lon="4.98579">
        <ele>276</ele>
        <time>2012-01-22T08:27:02Z</time>
      </trkpt>
      <trkpt lat="44.5938" lon="4.98586">
        <ele>276</ele>
        <time>2012-01-22T08:27:05Z</time>
      </trkpt>
      <trkpt lat="44.59382" lon="4.98593">
        <ele>276</ele>
        <time>2012-01-22T08:27:08Z</time>
      </trkpt>
      <trkpt lat="44.59385" lon="4.98598">
        <ele>276</ele>
        <time>2012-01-22T08:27:11Z</time>
      </trkpt>
      <trkpt lat="44.59386" lon="4.98606">
        <ele>276</ele>
        <time>2012-01-22T08:27:14Z</time>
      </trkpt>
      <trkpt lat="44.59388" lon="4.98614">
        <ele>276</ele>
        <time>2012-01-22T08:27:17Z</time>
      </trkpt>
      <trkpt lat="44.59391" lon="4.98618">
        <ele>276</ele>
        <time>2012-01-22T08:27:19Z</time>
      </trkpt>
      <trkpt lat="44.59394" lon="4.98625">
        <ele>276</ele>
        <time>2012-01-22T08:27:22Z</time>
      </trkpt>
      <trkpt lat="44.59397" lon="4.98631">
        <ele>276</ele>
        <time>2012-01-22T08:27:25Z</time>
      </trkpt>
      <trkpt lat="44.59399" lon="4.98639">
        <ele>276</ele>
        <time>2012-01-22T08:27:28Z</time>
      </trkpt>
      <trkpt lat="44.59403" lon="4.98647">
        <ele>278</ele>
        <time>2012-01-22T08:27:31Z</time>
      </trkpt>
      <trkpt lat="44.59404" lon="4.98654">
        <ele>278</ele>
        <time>2012-01-22T08:27:34Z</time>
      </trkpt>
      <trkpt lat="44.59407" lon="4.98662">
        <ele>278</ele>
        <time>2012-01-22T08:27:37Z</time>
      </trkpt>
      <trkpt lat="44.5941" lon="4.98668">
        <ele>278</ele>
        <time>2012-01-22T08:27:40Z</time>
      </trkpt>
      <trkpt lat="44.59414" lon="4.98675">
        <ele>278</ele>
        <time>2012-01-22T08:27:43Z</time>
      </trkpt>
      <trkpt lat="44.59416" lon="4.98682">
        <ele>278</ele>
        <time>2012-01-22T08:27:46Z</time>
      </trkpt>
      <trkpt lat="44.59419" lon="4.98688">
        <ele>278</ele>
        <time>2012-01-22T08:27:49Z</time>
      </trkpt>
      <trkpt lat="44.59421" lon="4.98694">
        <ele>279</ele>
        <time>2012-01-22T08:27:52Z</time>
      </trkpt>
      <trkpt lat="44.59424" lon="4.98701">
        <ele>279</ele>
        <time>2012-01-22T08:27:55Z</time>
      </trkpt>
      <trkpt lat="44.59427" lon="4.98708">
        <ele>278</ele>
        <time>2012-01-22T08:27:58Z</time>
      </trkpt>
      <trkpt lat="44.59429" lon="4.98715">
        <ele>279</ele>
        <time>2012-01-22T08:28:01Z</time>
      </trkpt>
      <trkpt lat="44.59432" lon="4.98722">
        <ele>278</ele>
        <time>2012-01-22T08:28:04Z</time>
      </trkpt>
      <trkpt lat="44.59434" lon="4.98732">
        <ele>278</ele>
        <time>2012-01-22T08:28:08Z</time>
      </trkpt>
      <trkpt lat="44.59436" lon="4.9874">
        <ele>279</ele>
        <time>2012-01-22T08:28:11Z</time>
      </trkpt>
      <trkpt lat="44.59437" lon="4.98746">
        <ele>279</ele>
        <time>2012-01-22T08:28:13Z</time>
      </trkpt>
      <trkpt lat="44.59442" lon="4.98751">
        <ele>280</ele>
        <time>2012-01-22T08:28:16Z</time>
      </trkpt>
      <trkpt lat="44.59444" lon="4.98757">
        <ele>281</ele>
        <time>2012-01-22T08:28:19Z</time>
      </trkpt>
      <trkpt lat="44.59448" lon="4.98762">
        <ele>280</ele>
        <time>2012-01-22T08:28:22Z</time>
      </trkpt>
      <trkpt lat="44.59451" lon="4.98767">
        <ele>281</ele>
        <time>2012-01-22T08:28:25Z</time>
      </trkpt>
      <trkpt lat="44.59454" lon="4.98772">
        <ele>280</ele>
        <time>2012-01-22T08:28:28Z</time>
      </trkpt>
      <trkpt lat="44.59457" lon="4.9878">
        <ele>281</ele>
        <time>2012-01-22T08:28:31Z</time>
      </trkpt>
      <trkpt lat="44.5946" lon="4.98786">
        <ele>281</ele>
        <time>2012-01-22T08:28:34Z</time>
      </trkpt>
      <trkpt lat="44.59463" lon="4.98794">
        <ele>281</ele>
        <time>2012-01-22T08:28:37Z</time>
      </trkpt>
      <trkpt lat="44.59466" lon="4.98801">
        <ele>280</ele>
        <time>2012-01-22T08:28:40Z</time>
      </trkpt>
      <trkpt lat="44.5947" lon="4.98808">
        <ele>280</ele>
        <time>2012-01-22T08:28:43Z</time>
      </trkpt>
      <trkpt lat="44.59472" lon="4.98816">
        <ele>281</ele>
        <time>2012-01-22T08:28:46Z</time>
      </trkpt>
      <trkpt lat="44.59476" lon="4.98823">
        <ele>281</ele>
        <time>2012-01-22T08:28:49Z</time>
      </trkpt>
      <trkpt lat="44.59479" lon="4.9883">
        <ele>281</ele>
        <time>2012-01-22T08:28:52Z</time>
      </trkpt>
      <trkpt lat="44.59482" lon="4.98836">
        <ele>281</ele>
        <time>2012-01-22T08:28:55Z</time>
      </trkpt>
      <trkpt lat="44.59485" lon="4.98843">
        <ele>280</ele>
        <time>2012-01-22T08:28:58Z</time>
      </trkpt>
      <trkpt lat="44.59488" lon="4.9885">
        <ele>281</ele>
        <time>2012-01-22T08:29:01Z</time>
      </trkpt>
      <trkpt lat="44.59492" lon="4.98856">
        <ele>281</ele>
        <time>2012-01-22T08:29:04Z</time>
      </trkpt>
      <trkpt lat="44.59495" lon="4.98862">
        <ele>280</ele>
        <time>2012-01-22T08:29:07Z</time>
      </trkpt>
      <trkpt lat="44.59499" lon="4.98869">
        <ele>280</ele>
        <time>2012-01-22T08:29:10Z</time>
      </trkpt>
      <trkpt lat="44.59502" lon="4.98875">
        <ele>280</ele>
        <time>2012-01-22T08:29:13Z</time>
      </trkpt>
      <trkpt lat="44.59506" lon="4.98881">
        <ele>279</ele>
        <time>2012-01-22T08:29:16Z</time>
      </trkpt>
      <trkpt lat="44.5951" lon="4.98888">
        <ele>280</ele>
        <time>2012-01-22T08:29:19Z</time>
      </trkpt>
      <trkpt lat="44.59515" lon="4.98891">
        <ele>280</ele>
        <time>2012-01-22T08:29:22Z</time>
      </trkpt>
      <trkpt lat="44.59518" lon="4.98896">
        <ele>282</ele>
        <time>2012-01-22T08:29:25Z</time>
      </trkpt>
      <trkpt lat="44.59521" lon="4.98902">
        <ele>282</ele>
        <time>2012-01-22T08:29:28Z</time>
      </trkpt>
      <trkpt lat="44.59524" lon="4.98909">
        <ele>282</ele>
        <time>2012-01-22T08:29:31Z</time>
      </trkpt>
      <trkpt lat="44.59528" lon="4.98916">
        <ele>282</ele>
        <time>2012-01-22T08:29:34Z</time>
      </trkpt>
      <trkpt lat="44.59529" lon="4.98921">
        <ele>283</ele>
        <time>2012-01-22T08:29:37Z</time>
      </trkpt>
      <trkpt lat="44.59531" lon="4.9893">
        <ele>282</ele>
        <time>2012-01-22T08:29:40Z</time>
      </trkpt>
      <trkpt lat="44.59531" lon="4.98939">
        <ele>282</ele>
        <time>2012-01-22T08:29:42Z</time>
      </trkpt>
      <trkpt lat="44.59528" lon="4.98947">
        <ele>284</ele>
        <time>2012-01-22T08:29:45Z</time>
      </trkpt>
      <trkpt lat="44.59523" lon="4.98952">
        <ele>283</ele>
        <time>2012-01-22T08:29:48Z</time>
      </trkpt>
      <trkpt lat="44.5952" lon="4.98957">
        <ele>283</ele>
        <time>2012-01-22T08:29:51Z</time>
      </trkpt>
      <trkpt lat="44.59514" lon="4.98958">
        <ele>282</ele>
        <time>2012-01-22T08:29:57Z</time>
      </trkpt>
      <trkpt lat="44.59509" lon="4.98961">
        <ele>282</ele>
        <time>2012-01-22T08:30:00Z</time>
      </trkpt>
      <trkpt lat="44.59502" lon="4.98965">
        <ele>282</ele>
        <time>2012-01-22T08:30:05Z</time>
      </trkpt>
      <trkpt lat="44.59499" lon="4.98972">
        <ele>281</ele>
        <time>2012-01-22T08:30:07Z</time>
      </trkpt>
      <trkpt lat="44.59494" lon="4.98977">
        <ele>281</ele>
        <time>2012-01-22T08:30:10Z</time>
      </trkpt>
      <trkpt lat="44.59491" lon="4.98983">
        <ele>281</ele>
        <time>2012-01-22T08:30:12Z</time>
      </trkpt>
      <trkpt lat="44.59486" lon="4.98986">
        <ele>282</ele>
        <time>2012-01-22T08:30:14Z</time>
      </trkpt>
      <trkpt lat="44.5948" lon="4.98993">
        <ele>283</ele>
        <time>2012-01-22T08:30:17Z</time>
      </trkpt>
      <trkpt lat="44.59477" lon="4.98999">
        <ele>281</ele>
        <time>2012-01-22T08:30:20Z</time>
      </trkpt>
      <trkpt lat="44.59472" lon="4.99004">
        <ele>281</ele>
        <time>2012-01-22T08:30:23Z</time>
      </trkpt>
      <trkpt lat="44.59467" lon="4.99008">
        <ele>281</ele>
        <time>2012-01-22T08:30:26Z</time>
      </trkpt>
      <trkpt lat="44.59463" lon="4.99012">
        <ele>280</ele>
        <time>2012-01-22T08:30:28Z</time>
      </trkpt>
      <trkpt lat="44.59459" lon="4.99016">
        <ele>280</ele>
        <time>2012-01-22T08:30:32Z</time>
      </trkpt>
      <trkpt lat="44.59459" lon="4.99016">
        <ele>280</ele>
        <time>2012-01-22T08:30:32Z</time>
      </trkpt>
      <trkpt lat="44.59459" lon="4.99016">
        <ele>280</ele>
        <time>2012-01-22T08:30:34Z</time>
      </trkpt>
      <trkpt lat="44.59453" lon="4.99022">
        <ele>280</ele>
        <time>2012-01-22T08:30:36Z</time>
      </trkpt>
      <trkpt lat="44.59449" lon="4.99026">
        <ele>280</ele>
        <time>2012-01-22T08:30:38Z</time>
      </trkpt>
      <trkpt lat="44.59444" lon="4.99029">
        <ele>281</ele>
        <time>2012-01-22T08:30:41Z</time>
      </trkpt>
      <trkpt lat="44.59439" lon="4.99034">
        <ele>281</ele>
        <time>2012-01-22T08:30:44Z</time>
      </trkpt>
      <trkpt lat="44.59434" lon="4.99036">
        <ele>281</ele>
        <time>2012-01-22T08:30:48Z</time>
      </trkpt>
      <trkpt lat="44.59429" lon="4.99042">
        <ele>282</ele>
        <time>2012-01-22T08:30:51Z</time>
      </trkpt>
      <trkpt lat="44.59424" lon="4.99046">
        <ele>282</ele>
        <time>2012-01-22T08:30:53Z</time>
      </trkpt>
      <trkpt lat="44.5942" lon="4.99049">
        <ele>282</ele>
        <time>2012-01-22T08:30:56Z</time>
      </trkpt>
      <trkpt lat="44.59415" lon="4.99053">
        <ele>283</ele>
        <time>2012-01-22T08:30:59Z</time>
      </trkpt>
      <trkpt lat="44.59409" lon="4.99056">
        <ele>285</ele>
        <time>2012-01-22T08:31:04Z</time>
      </trkpt>
      <trkpt lat="44.59405" lon="4.99061">
        <ele>284</ele>
        <time>2012-01-22T08:31:07Z</time>
      </trkpt>
      <trkpt lat="44.59401" lon="4.99068">
        <ele>284</ele>
        <time>2012-01-22T08:31:10Z</time>
      </trkpt>
      <trkpt lat="44.59396" lon="4.99073">
        <ele>284</ele>
        <time>2012-01-22T08:31:13Z</time>
      </trkpt>
      <trkpt lat="44.59391" lon="4.99076">
        <ele>285</ele>
        <time>2012-01-22T08:31:16Z</time>
      </trkpt>
      <trkpt lat="44.59388" lon="4.9908">
        <ele>286</ele>
        <time>2012-01-22T08:31:18Z</time>
      </trkpt>
      <trkpt lat="44.59383" lon="4.99086">
        <ele>284</ele>
        <time>2012-01-22T08:31:21Z</time>
      </trkpt>
      <trkpt lat="44.59378" lon="4.99094">
        <ele>283</ele>
        <time>2012-01-22T08:31:24Z</time>
      </trkpt>
      <trkpt lat="44.59372" lon="4.991">
        <ele>282</ele>
        <time>2012-01-22T08:31:27Z</time>
      </trkpt>
      <trkpt lat="44.59368" lon="4.99102">
        <ele>282</ele>
        <time>2012-01-22T08:31:31Z</time>
      </trkpt>
      <trkpt lat="44.59363" lon="4.99105">
        <ele>282</ele>
        <time>2012-01-22T08:31:34Z</time>
      </trkpt>
      <trkpt lat="44.59359" lon="4.99111">
        <ele>282</ele>
        <time>2012-01-22T08:31:36Z</time>
      </trkpt>
      <trkpt lat="44.59354" lon="4.99114">
        <ele>283</ele>
        <time>2012-01-22T08:31:38Z</time>
      </trkpt>
      <trkpt lat="44.59348" lon="4.9912">
        <ele>283</ele>
        <time>2012-01-22T08:31:42Z</time>
      </trkpt>
      <trkpt lat="44.59342" lon="4.99119">
        <ele>283</ele>
        <time>2012-01-22T08:31:45Z</time>
      </trkpt>
      <trkpt lat="44.59339" lon="4.99123">
        <ele>283</ele>
        <time>2012-01-22T08:31:47Z</time>
      </trkpt>
      <trkpt lat="44.59333" lon="4.99126">
        <ele>283</ele>
        <time>2012-01-22T08:31:49Z</time>
      </trkpt>
      <trkpt lat="44.5933" lon="4.99133">
        <ele>283</ele>
        <time>2012-01-22T08:31:52Z</time>
      </trkpt>
      <trkpt lat="44.59325" lon="4.9914">
        <ele>283</ele>
        <time>2012-01-22T08:31:55Z</time>
      </trkpt>
      <trkpt lat="44.59322" lon="4.99146">
        <ele>282</ele>
        <time>2012-01-22T08:32:00Z</time>
      </trkpt>
      <trkpt lat="44.59317" lon="4.9915">
        <ele>282</ele>
        <time>2012-01-22T08:32:02Z</time>
      </trkpt>
      <trkpt lat="44.59312" lon="4.99157">
        <ele>281</ele>
        <time>2012-01-22T08:32:06Z</time>
      </trkpt>
      <trkpt lat="44.59307" lon="4.99163">
        <ele>282</ele>
        <time>2012-01-22T08:32:09Z</time>
      </trkpt>
      <trkpt lat="44.59302" lon="4.99167">
        <ele>282</ele>
        <time>2012-01-22T08:32:11Z</time>
      </trkpt>
      <trkpt lat="44.59298" lon="4.99171">
        <ele>281</ele>
        <time>2012-01-22T08:32:13Z</time>
      </trkpt>
      <trkpt lat="44.59293" lon="4.99176">
        <ele>281</ele>
        <time>2012-01-22T08:32:16Z</time>
      </trkpt>
      <trkpt lat="44.59288" lon="4.99181">
        <ele>280</ele>
        <time>2012-01-22T08:32:19Z</time>
      </trkpt>
      <trkpt lat="44.59284" lon="4.99185">
        <ele>281</ele>
        <time>2012-01-22T08:32:22Z</time>
      </trkpt>
      <trkpt lat="44.59281" lon="4.99191">
        <ele>280</ele>
        <time>2012-01-22T08:32:25Z</time>
      </trkpt>
      <trkpt lat="44.59278" lon="4.99197">
        <ele>280</ele>
        <time>2012-01-22T08:32:29Z</time>
      </trkpt>
      <trkpt lat="44.59272" lon="4.99201">
        <ele>281</ele>
        <time>2012-01-22T08:32:31Z</time>
      </trkpt>
      <trkpt lat="44.59267" lon="4.99205">
        <ele>281</ele>
        <time>2012-01-22T08:32:33Z</time>
      </trkpt>
      <trkpt lat="44.59262" lon="4.9921">
        <ele>281</ele>
        <time>2012-01-22T08:32:36Z</time>
      </trkpt>
      <trkpt lat="44.59258" lon="4.99213">
        <ele>282</ele>
        <time>2012-01-22T08:32:38Z</time>
      </trkpt>
      <trkpt lat="44.59254" lon="4.99218">
        <ele>281</ele>
        <time>2012-01-22T08:32:41Z</time>
      </trkpt>
      <trkpt lat="44.59249" lon="4.99218">
        <ele>283</ele>
        <time>2012-01-22T08:32:44Z</time>
      </trkpt>
      <trkpt lat="44.59245" lon="4.99222">
        <ele>283</ele>
        <time>2012-01-22T08:32:46Z</time>
      </trkpt>
      <trkpt lat="44.59242" lon="4.99226">
        <ele>283</ele>
        <time>2012-01-22T08:32:48Z</time>
      </trkpt>
      <trkpt lat="44.59237" lon="4.99231">
        <ele>284</ele>
        <time>2012-01-22T08:32:51Z</time>
      </trkpt>
      <trkpt lat="44.59232" lon="4.99235">
        <ele>285</ele>
        <time>2012-01-22T08:32:54Z</time>
      </trkpt>
      <trkpt lat="44.59229" lon="4.9924">
        <ele>285</ele>
        <time>2012-01-22T08:32:56Z</time>
      </trkpt>
      <trkpt lat="44.59223" lon="4.99243">
        <ele>284</ele>
        <time>2012-01-22T08:32:59Z</time>
      </trkpt>
      <trkpt lat="44.59221" lon="4.99249">
        <ele>284</ele>
        <time>2012-01-22T08:33:03Z</time>
      </trkpt>
      <trkpt lat="44.59216" lon="4.99253">
        <ele>285</ele>
        <time>2012-01-22T08:33:06Z</time>
      </trkpt>
      <trkpt lat="44.59213" lon="4.99259">
        <ele>283</ele>
        <time>2012-01-22T08:33:09Z</time>
      </trkpt>
      <trkpt lat="44.59207" lon="4.99263">
        <ele>281</ele>
        <time>2012-01-22T08:33:12Z</time>
      </trkpt>
      <trkpt lat="44.59201" lon="4.99269">
        <ele>281</ele>
        <time>2012-01-22T08:33:16Z</time>
      </trkpt>
      <trkpt lat="44.59197" lon="4.99271">
        <ele>282</ele>
        <time>2012-01-22T08:33:18Z</time>
      </trkpt>
      <trkpt lat="44.59192" lon="4.99277">
        <ele>283</ele>
        <time>2012-01-22T08:33:20Z</time>
      </trkpt>
      <trkpt lat="44.59188" lon="4.99281">
        <ele>284</ele>
        <time>2012-01-22T08:33:23Z</time>
      </trkpt>
      <trkpt lat="44.59183" lon="4.99287">
        <ele>286</ele>
        <time>2012-01-22T08:33:25Z</time>
      </trkpt>
      <trkpt lat="44.59179" lon="4.99292">
        <ele>287</ele>
        <time>2012-01-22T08:33:28Z</time>
      </trkpt>
      <trkpt lat="44.59175" lon="4.99296">
        <ele>288</ele>
        <time>2012-01-22T08:33:31Z</time>
      </trkpt>
      <trkpt lat="44.5917" lon="4.99302">
        <ele>289</ele>
        <time>2012-01-22T08:33:34Z</time>
      </trkpt>
      <trkpt lat="44.59166" lon="4.99307">
        <ele>290</ele>
        <time>2012-01-22T08:33:37Z</time>
      </trkpt>
      <trkpt lat="44.59162" lon="4.99313">
        <ele>291</ele>
        <time>2012-01-22T08:33:40Z</time>
      </trkpt>
      <trkpt lat="44.59157" lon="4.99316">
        <ele>291</ele>
        <time>2012-01-22T08:33:43Z</time>
      </trkpt>
      <trkpt lat="44.59154" lon="4.99321">
        <ele>292</ele>
        <time>2012-01-22T08:33:46Z</time>
      </trkpt>
      <trkpt lat="44.5915" lon="4.99326">
        <ele>292</ele>
        <time>2012-01-22T08:33:49Z</time>
      </trkpt>
      <trkpt lat="44.59146" lon="4.99332">
        <ele>292</ele>
        <time>2012-01-22T08:33:52Z</time>
      </trkpt>
      <trkpt lat="44.59141" lon="4.99337">
        <ele>292</ele>
        <time>2012-01-22T08:33:55Z</time>
      </trkpt>
      <trkpt lat="44.59138" lon="4.99341">
        <ele>292</ele>
        <time>2012-01-22T08:33:58Z</time>
      </trkpt>
      <trkpt lat="44.59134" lon="4.99346">
        <ele>292</ele>
        <time>2012-01-22T08:34:01Z</time>
      </trkpt>
      <trkpt lat="44.59131" lon="4.99352">
        <ele>292</ele>
        <time>2012-01-22T08:34:04Z</time>
      </trkpt>
      <trkpt lat="44.59126" lon="4.99356">
        <ele>291</ele>
        <time>2012-01-22T08:34:07Z</time>
      </trkpt>
      <trkpt lat="44.59122" lon="4.99363">
        <ele>291</ele>
        <time>2012-01-22T08:34:10Z</time>
      </trkpt>
      <trkpt lat="44.59119" lon="4.99369">
        <ele>289</ele>
        <time>2012-01-22T08:34:13Z</time>
      </trkpt>
      <trkpt lat="44.59115" lon="4.99374">
        <ele>288</ele>
        <time>2012-01-22T08:34:16Z</time>
      </trkpt>
      <trkpt lat="44.5911" lon="4.9938">
        <ele>287</ele>
        <time>2012-01-22T08:34:20Z</time>
      </trkpt>
      <trkpt lat="44.59105" lon="4.99384">
        <ele>286</ele>
        <time>2012-01-22T08:34:23Z</time>
      </trkpt>
      <trkpt lat="44.59101" lon="4.99389">
        <ele>288</ele>
        <time>2012-01-22T08:34:28Z</time>
      </trkpt>
      <trkpt lat="44.59095" lon="4.99393">
        <ele>289</ele>
        <time>2012-01-22T08:34:30Z</time>
      </trkpt>
      <trkpt lat="44.5909" lon="4.99399">
        <ele>287</ele>
        <time>2012-01-22T08:34:32Z</time>
      </trkpt>
      <trkpt lat="44.59087" lon="4.99404">
        <ele>287</ele>
        <time>2012-01-22T08:34:34Z</time>
      </trkpt>
      <trkpt lat="44.59083" lon="4.99411">
        <ele>286</ele>
        <time>2012-01-22T08:34:37Z</time>
      </trkpt>
      <trkpt lat="44.59079" lon="4.99417">
        <ele>286</ele>
        <time>2012-01-22T08:34:40Z</time>
      </trkpt>
      <trkpt lat="44.59075" lon="4.99422">
        <ele>287</ele>
        <time>2012-01-22T08:34:43Z</time>
      </trkpt>
      <trkpt lat="44.59072" lon="4.99428">
        <ele>287</ele>
        <time>2012-01-22T08:34:47Z</time>
      </trkpt>
      <trkpt lat="44.59066" lon="4.9943">
        <ele>288</ele>
        <time>2012-01-22T08:34:50Z</time>
      </trkpt>
      <trkpt lat="44.59065" lon="4.99438">
        <ele>289</ele>
        <time>2012-01-22T08:34:54Z</time>
      </trkpt>
      <trkpt lat="44.59061" lon="4.99444">
        <ele>289</ele>
        <time>2012-01-22T08:34:57Z</time>
      </trkpt>
      <trkpt lat="44.59056" lon="4.99448">
        <ele>291</ele>
        <time>2012-01-22T08:35:00Z</time>
      </trkpt>
      <trkpt lat="44.59052" lon="4.99455">
        <ele>290</ele>
        <time>2012-01-22T08:35:03Z</time>
      </trkpt>
      <trkpt lat="44.59048" lon="4.9946">
        <ele>290</ele>
        <time>2012-01-22T08:35:06Z</time>
      </trkpt>
      <trkpt lat="44.59046" lon="4.99467">
        <ele>288</ele>
        <time>2012-01-22T08:35:09Z</time>
      </trkpt>
      <trkpt lat="44.59041" lon="4.99473">
        <ele>288</ele>
        <time>2012-01-22T08:35:13Z</time>
      </trkpt>
      <trkpt lat="44.59036" lon="4.99479">
        <ele>287</ele>
        <time>2012-01-22T08:35:17Z</time>
      </trkpt>
      <trkpt lat="44.59032" lon="4.99482">
        <ele>287</ele>
        <time>2012-01-22T08:35:21Z</time>
      </trkpt>
      <trkpt lat="44.59029" lon="4.99489">
        <ele>285</ele>
        <time>2012-01-22T08:35:25Z</time>
      </trkpt>
      <trkpt lat="44.59027" lon="4.99496">
        <ele>283</ele>
        <time>2012-01-22T08:35:30Z</time>
      </trkpt>
      <trkpt lat="44.59023" lon="4.99502">
        <ele>283</ele>
        <time>2012-01-22T08:35:35Z</time>
      </trkpt>
      <trkpt lat="44.59013" lon="4.9951">
        <ele>284</ele>
        <time>2012-01-22T08:35:36Z</time>
      </trkpt>
      <trkpt lat="44.5901" lon="4.99517">
        <ele>283</ele>
        <time>2012-01-22T08:35:39Z</time>
      </trkpt>
      <trkpt lat="44.59003" lon="4.99523">
        <ele>283</ele>
        <time>2012-01-22T08:35:42Z</time>
      </trkpt>
      <trkpt lat="44.58999" lon="4.99528">
        <ele>286</ele>
        <time>2012-01-22T08:35:45Z</time>
      </trkpt>
      <trkpt lat="44.58996" lon="4.99534">
        <ele>285</ele>
        <time>2012-01-22T08:35:48Z</time>
      </trkpt>
      <trkpt lat="44.58992" lon="4.9954">
        <ele>286</ele>
        <time>2012-01-22T08:35:51Z</time>
      </trkpt>
      <trkpt lat="44.58987" lon="4.99545">
        <ele>289</ele>
        <time>2012-01-22T08:35:53Z</time>
      </trkpt>
      <trkpt lat="44.58985" lon="4.99552">
        <ele>290</ele>
        <time>2012-01-22T08:35:56Z</time>
      </trkpt>
      <trkpt lat="44.58982" lon="4.99558">
        <ele>289</ele>
        <time>2012-01-22T08:35:59Z</time>
      </trkpt>
      <trkpt lat="44.58977" lon="4.99564">
        <ele>292</ele>
        <time>2012-01-22T08:36:02Z</time>
      </trkpt>
      <trkpt lat="44.58973" lon="4.9957">
        <ele>293</ele>
        <time>2012-01-22T08:36:05Z</time>
      </trkpt>
      <trkpt lat="44.5897" lon="4.99577">
        <ele>294</ele>
        <time>2012-01-22T08:36:08Z</time>
      </trkpt>
      <trkpt lat="44.58966" lon="4.99584">
        <ele>294</ele>
        <time>2012-01-22T08:36:11Z</time>
      </trkpt>
      <trkpt lat="44.58964" lon="4.99591">
        <ele>294</ele>
        <time>2012-01-22T08:36:14Z</time>
      </trkpt>
      <trkpt lat="44.58962" lon="4.99597">
        <ele>294</ele>
        <time>2012-01-22T08:36:16Z</time>
      </trkpt>
      <trkpt lat="44.5896" lon="4.99604">
        <ele>295</ele>
        <time>2012-01-22T08:36:19Z</time>
      </trkpt>
      <trkpt lat="44.58957" lon="4.9961">
        <ele>296</ele>
        <time>2012-01-22T08:36:22Z</time>
      </trkpt>
      <trkpt lat="44.58954" lon="4.99616">
        <ele>296</ele>
        <time>2012-01-22T08:36:25Z</time>
      </trkpt>
      <trkpt lat="44.58951" lon="4.99624">
        <ele>296</ele>
        <time>2012-01-22T08:36:28Z</time>
      </trkpt>
      <trkpt lat="44.58949" lon="4.99631">
        <ele>296</ele>
        <time>2012-01-22T08:36:31Z</time>
      </trkpt>
      <trkpt lat="44.58946" lon="4.99638">
        <ele>295</ele>
        <time>2012-01-22T08:36:34Z</time>
      </trkpt>
      <trkpt lat="44.58943" lon="4.99643">
        <ele>296</ele>
        <time>2012-01-22T08:36:36Z</time>
      </trkpt>
      <trkpt lat="44.58941" lon="4.99652">
        <ele>296</ele>
        <time>2012-01-22T08:36:39Z</time>
      </trkpt>
      <trkpt lat="44.58938" lon="4.99659">
        <ele>296</ele>
        <time>2012-01-22T08:36:42Z</time>
      </trkpt>
      <trkpt lat="44.58936" lon="4.99665">
        <ele>295</ele>
        <time>2012-01-22T08:36:45Z</time>
      </trkpt>
      <trkpt lat="44.58934" lon="4.99674">
        <ele>296</ele>
        <time>2012-01-22T08:36:48Z</time>
      </trkpt>
      <trkpt lat="44.58931" lon="4.9968">
        <ele>296</ele>
        <time>2012-01-22T08:36:51Z</time>
      </trkpt>
      <trkpt lat="44.58928" lon="4.99686">
        <ele>296</ele>
        <time>2012-01-22T08:36:54Z</time>
      </trkpt>
      <trkpt lat="44.58927" lon="4.99692">
        <ele>296</ele>
        <time>2012-01-22T08:36:56Z</time>
      </trkpt>
      <trkpt lat="44.58925" lon="4.997">
        <ele>294</ele>
        <time>2012-01-22T08:36:59Z</time>
      </trkpt>
      <trkpt lat="44.58923" lon="4.99708">
        <ele>294</ele>
        <time>2012-01-22T08:37:03Z</time>
      </trkpt>
      <trkpt lat="44.58921" lon="4.99716">
        <ele>292</ele>
        <time>2012-01-22T08:37:07Z</time>
      </trkpt>
      <trkpt lat="44.58919" lon="4.99723">
        <ele>291</ele>
        <time>2012-01-22T08:37:10Z</time>
      </trkpt>
      <trkpt lat="44.58917" lon="4.9973">
        <ele>292</ele>
        <time>2012-01-22T08:37:13Z</time>
      </trkpt>
      <trkpt lat="44.58913" lon="4.99737">
        <ele>293</ele>
        <time>2012-01-22T08:37:16Z</time>
      </trkpt>
      <trkpt lat="44.58911" lon="4.99745">
        <ele>294</ele>
        <time>2012-01-22T08:37:19Z</time>
      </trkpt>
      <trkpt lat="44.58907" lon="4.99751">
        <ele>295</ele>
        <time>2012-01-22T08:37:21Z</time>
      </trkpt>
      <trkpt lat="44.58904" lon="4.99757">
        <ele>295</ele>
        <time>2012-01-22T08:37:24Z</time>
      </trkpt>
      <trkpt lat="44.58903" lon="4.99763">
        <ele>295</ele>
        <time>2012-01-22T08:37:27Z</time>
      </trkpt>
      <trkpt lat="44.589" lon="4.9977">
        <ele>295</ele>
        <time>2012-01-22T08:37:30Z</time>
      </trkpt>
      <trkpt lat="44.58897" lon="4.99775">
        <ele>295</ele>
        <time>2012-01-22T08:37:32Z</time>
      </trkpt>
      <trkpt lat="44.58894" lon="4.9978">
        <ele>295</ele>
        <time>2012-01-22T08:37:35Z</time>
      </trkpt>
      <trkpt lat="44.5889" lon="4.99786">
        <ele>294</ele>
        <time>2012-01-22T08:37:38Z</time>
      </trkpt>
      <trkpt lat="44.58884" lon="4.99788">
        <ele>294</ele>
        <time>2012-01-22T08:37:41Z</time>
      </trkpt>
      <trkpt lat="44.58878" lon="4.99788">
        <ele>295</ele>
        <time>2012-01-22T08:37:44Z</time>
      </trkpt>
      <trkpt lat="44.58873" lon="4.99787">
        <ele>296</ele>
        <time>2012-01-22T08:37:47Z</time>
      </trkpt>
      <trkpt lat="44.58868" lon="4.99785">
        <ele>295</ele>
        <time>2012-01-22T08:37:50Z</time>
      </trkpt>
      <trkpt lat="44.58862" lon="4.99782">
        <ele>295</ele>
        <time>2012-01-22T08:37:53Z</time>
      </trkpt>
      <trkpt lat="44.58858" lon="4.99779">
        <ele>296</ele>
        <time>2012-01-22T08:37:56Z</time>
      </trkpt>
      <trkpt lat="44.58854" lon="4.99777">
        <ele>297</ele>
        <time>2012-01-22T08:37:58Z</time>
      </trkpt>
      <trkpt lat="44.58848" lon="4.99775">
        <ele>297</ele>
        <time>2012-01-22T08:38:01Z</time>
      </trkpt>
      <trkpt lat="44.58844" lon="4.99772">
        <ele>298</ele>
        <time>2012-01-22T08:38:04Z</time>
      </trkpt>
      <trkpt lat="44.58838" lon="4.99771">
        <ele>298</ele>
        <time>2012-01-22T08:38:07Z</time>
      </trkpt>
      <trkpt lat="44.58831" lon="4.9977">
        <ele>298</ele>
        <time>2012-01-22T08:38:10Z</time>
      </trkpt>
      <trkpt lat="44.58825" lon="4.9977">
        <ele>298</ele>
        <time>2012-01-22T08:38:13Z</time>
      </trkpt>
      <trkpt lat="44.5882" lon="4.99768">
        <ele>298</ele>
        <time>2012-01-22T08:38:16Z</time>
      </trkpt>
      <trkpt lat="44.58814" lon="4.99765">
        <ele>298</ele>
        <time>2012-01-22T08:38:19Z</time>
      </trkpt>
      <trkpt lat="44.58809" lon="4.99765">
        <ele>297</ele>
        <time>2012-01-22T08:38:22Z</time>
      </trkpt>
      <trkpt lat="44.58804" lon="4.99764">
        <ele>299</ele>
        <time>2012-01-22T08:38:24Z</time>
      </trkpt>
      <trkpt lat="44.58798" lon="4.99762">
        <ele>298</ele>
        <time>2012-01-22T08:38:27Z</time>
      </trkpt>
      <trkpt lat="44.58794" lon="4.99759">
        <ele>299</ele>
        <time>2012-01-22T08:38:30Z</time>
      </trkpt>
      <trkpt lat="44.58788" lon="4.99757">
        <ele>299</ele>
        <time>2012-01-22T08:38:33Z</time>
      </trkpt>
      <trkpt lat="44.58783" lon="4.99756">
        <ele>299</ele>
        <time>2012-01-22T08:38:35Z</time>
      </trkpt>
      <trkpt lat="44.58778" lon="4.99753">
        <ele>299</ele>
        <time>2012-01-22T08:38:38Z</time>
      </trkpt>
      <trkpt lat="44.58772" lon="4.99751">
        <ele>299</ele>
        <time>2012-01-22T08:38:41Z</time>
      </trkpt>
      <trkpt lat="44.58767" lon="4.99748">
        <ele>300</ele>
        <time>2012-01-22T08:38:43Z</time>
      </trkpt>
      <trkpt lat="44.58762" lon="4.99745">
        <ele>302</ele>
        <time>2012-01-22T08:38:46Z</time>
      </trkpt>
      <trkpt lat="44.58756" lon="4.99742">
        <ele>301</ele>
        <time>2012-01-22T08:38:49Z</time>
      </trkpt>
      <trkpt lat="44.58751" lon="4.9974">
        <ele>300</ele>
        <time>2012-01-22T08:38:52Z</time>
      </trkpt>
      <trkpt lat="44.58746" lon="4.99737">
        <ele>300</ele>
        <time>2012-01-22T08:38:56Z</time>
      </trkpt>
      <trkpt lat="44.58741" lon="4.99737">
        <ele>301</ele>
        <time>2012-01-22T08:38:59Z</time>
      </trkpt>
      <trkpt lat="44.58736" lon="4.99735">
        <ele>302</ele>
        <time>2012-01-22T08:39:02Z</time>
      </trkpt>
      <trkpt lat="44.58732" lon="4.99734">
        <ele>302</ele>
        <time>2012-01-22T08:39:04Z</time>
      </trkpt>
      <trkpt lat="44.58727" lon="4.99731">
        <ele>303</ele>
        <time>2012-01-22T08:39:07Z</time>
      </trkpt>
      <trkpt lat="44.58721" lon="4.9973">
        <ele>302</ele>
        <time>2012-01-22T08:39:10Z</time>
      </trkpt>
      <trkpt lat="44.58716" lon="4.99728">
        <ele>303</ele>
        <time>2012-01-22T08:39:13Z</time>
      </trkpt>
      <trkpt lat="44.58711" lon="4.99727">
        <ele>303</ele>
        <time>2012-01-22T08:39:16Z</time>
      </trkpt>
      <trkpt lat="44.58706" lon="4.99725">
        <ele>302</ele>
        <time>2012-01-22T08:39:19Z</time>
      </trkpt>
      <trkpt lat="44.587" lon="4.99723">
        <ele>302</ele>
        <time>2012-01-22T08:39:22Z</time>
      </trkpt>
      <trkpt lat="44.58695" lon="4.9972">
        <ele>302</ele>
        <time>2012-01-22T08:39:25Z</time>
      </trkpt>
      <trkpt lat="44.5869" lon="4.99717">
        <ele>304</ele>
        <time>2012-01-22T08:39:27Z</time>
      </trkpt>
      <trkpt lat="44.58686" lon="4.99714">
        <ele>305</ele>
        <time>2012-01-22T08:39:29Z</time>
      </trkpt>
      <trkpt lat="44.5868" lon="4.99712">
        <ele>305</ele>
        <time>2012-01-22T08:39:32Z</time>
      </trkpt>
      <trkpt lat="44.58675" lon="4.99711">
        <ele>305</ele>
        <time>2012-01-22T08:39:35Z</time>
      </trkpt>
      <trkpt lat="44.58669" lon="4.99711">
        <ele>304</ele>
        <time>2012-01-22T08:39:39Z</time>
      </trkpt>
      <trkpt lat="44.58664" lon="4.99709">
        <ele>304</ele>
        <time>2012-01-22T08:39:42Z</time>
      </trkpt>
      <trkpt lat="44.58659" lon="4.99708">
        <ele>303</ele>
        <time>2012-01-22T08:39:45Z</time>
      </trkpt>
      <trkpt lat="44.58654" lon="4.99707">
        <ele>303</ele>
        <time>2012-01-22T08:39:48Z</time>
      </trkpt>
      <trkpt lat="44.58649" lon="4.99705">
        <ele>301</ele>
        <time>2012-01-22T08:39:51Z</time>
      </trkpt>
      <trkpt lat="44.58644" lon="4.99703">
        <ele>301</ele>
        <time>2012-01-22T08:39:54Z</time>
      </trkpt>
      <trkpt lat="44.58638" lon="4.99702">
        <ele>302</ele>
        <time>2012-01-22T08:39:58Z</time>
      </trkpt>
      <trkpt lat="44.58633" lon="4.997">
        <ele>302</ele>
        <time>2012-01-22T08:40:01Z</time>
      </trkpt>
      <trkpt lat="44.58627" lon="4.99701">
        <ele>304</ele>
        <time>2012-01-22T08:40:04Z</time>
      </trkpt>
      <trkpt lat="44.58622" lon="4.997">
        <ele>305</ele>
        <time>2012-01-22T08:40:07Z</time>
      </trkpt>
      <trkpt lat="44.58618" lon="4.99696">
        <ele>306</ele>
        <time>2012-01-22T08:40:11Z</time>
      </trkpt>
      <trkpt lat="44.58614" lon="4.99693">
        <ele>307</ele>
        <time>2012-01-22T08:40:18Z</time>
      </trkpt>
      <trkpt lat="44.58608" lon="4.99693">
        <ele>308</ele>
        <time>2012-01-22T08:40:23Z</time>
      </trkpt>
      <trkpt lat="44.58603" lon="4.99691">
        <ele>309</ele>
        <time>2012-01-22T08:40:26Z</time>
      </trkpt>
      <trkpt lat="44.58597" lon="4.99688">
        <ele>308</ele>
        <time>2012-01-22T08:40:29Z</time>
      </trkpt>
      <trkpt lat="44.58592" lon="4.99684">
        <ele>307</ele>
        <time>2012-01-22T08:40:32Z</time>
      </trkpt>
      <trkpt lat="44.58587" lon="4.99681">
        <ele>308</ele>
        <time>2012-01-22T08:40:35Z</time>
      </trkpt>
      <trkpt lat="44.58582" lon="4.99677">
        <ele>308</ele>
        <time>2012-01-22T08:40:38Z</time>
      </trkpt>
      <trkpt lat="44.58576" lon="4.99672">
        <ele>309</ele>
        <time>2012-01-22T08:40:41Z</time>
      </trkpt>
      <trkpt lat="44.58572" lon="4.99668">
        <ele>308</ele>
        <time>2012-01-22T08:40:44Z</time>
      </trkpt>
      <trkpt lat="44.58568" lon="4.99664">
        <ele>308</ele>
        <time>2012-01-22T08:40:47Z</time>
      </trkpt>
      <trkpt lat="44.58565" lon="4.99658">
        <ele>308</ele>
        <time>2012-01-22T08:40:50Z</time>
      </trkpt>
      <trkpt lat="44.58561" lon="4.99653">
        <ele>308</ele>
        <time>2012-01-22T08:40:53Z</time>
      </trkpt>
      <trkpt lat="44.58558" lon="4.99648">
        <ele>308</ele>
        <time>2012-01-22T08:40:56Z</time>
      </trkpt>
      <trkpt lat="44.58555" lon="4.99642">
        <ele>308</ele>
        <time>2012-01-22T08:40:59Z</time>
      </trkpt>
      <trkpt lat="44.58551" lon="4.99638">
        <ele>308</ele>
        <time>2012-01-22T08:41:02Z</time>
      </trkpt>
      <trkpt lat="44.58548" lon="4.9963">
        <ele>308</ele>
        <time>2012-01-22T08:41:06Z</time>
      </trkpt>
      <trkpt lat="44.58544" lon="4.99624">
        <ele>308</ele>
        <time>2012-01-22T08:41:08Z</time>
      </trkpt>
      <trkpt lat="44.58542" lon="4.99615">
        <ele>308</ele>
        <time>2012-01-22T08:41:11Z</time>
      </trkpt>
      <trkpt lat="44.58539" lon="4.99608">
        <ele>308</ele>
        <time>2012-01-22T08:41:13Z</time>
      </trkpt>
      <trkpt lat="44.58534" lon="4.99604">
        <ele>305</ele>
        <time>2012-01-22T08:41:22Z</time>
      </trkpt>
      <trkpt lat="44.58532" lon="4.99598">
        <ele>304</ele>
        <time>2012-01-22T08:41:25Z</time>
      </trkpt>
      <trkpt lat="44.58529" lon="4.99593">
        <ele>304</ele>
        <time>2012-01-22T08:41:28Z</time>
      </trkpt>
      <trkpt lat="44.58524" lon="4.99588">
        <ele>303</ele>
        <time>2012-01-22T08:41:32Z</time>
      </trkpt>
      <trkpt lat="44.58521" lon="4.99582">
        <ele>303</ele>
        <time>2012-01-22T08:41:35Z</time>
      </trkpt>
      <trkpt lat="44.5852" lon="4.99575">
        <ele>303</ele>
        <time>2012-01-22T08:41:38Z</time>
      </trkpt>
      <trkpt lat="44.58518" lon="4.99568">
        <ele>305</ele>
        <time>2012-01-22T08:41:42Z</time>
      </trkpt>
      <trkpt lat="44.58514" lon="4.99562">
        <ele>305</ele>
        <time>2012-01-22T08:41:45Z</time>
      </trkpt>
      <trkpt lat="44.58512" lon="4.99556">
        <ele>305</ele>
        <time>2012-01-22T08:41:48Z</time>
      </trkpt>
      <trkpt lat="44.58507" lon="4.9955">
        <ele>305</ele>
        <time>2012-01-22T08:41:51Z</time>
      </trkpt>
      <trkpt lat="44.58502" lon="4.99544">
        <ele>307</ele>
        <time>2012-01-22T08:41:53Z</time>
      </trkpt>
      <trkpt lat="44.585" lon="4.99538">
        <ele>307</ele>
        <time>2012-01-22T08:41:56Z</time>
      </trkpt>
      <trkpt lat="44.58497" lon="4.9953">
        <ele>309</ele>
        <time>2012-01-22T08:41:59Z</time>
      </trkpt>
      <trkpt lat="44.58493" lon="4.99524">
        <ele>309</ele>
        <time>2012-01-22T08:42:03Z</time>
      </trkpt>
      <trkpt lat="44.58492" lon="4.99517">
        <ele>309</ele>
        <time>2012-01-22T08:42:07Z</time>
      </trkpt>
      <trkpt lat="44.58488" lon="4.99512">
        <ele>310</ele>
        <time>2012-01-22T08:42:10Z</time>
      </trkpt>
      <trkpt lat="44.58484" lon="4.99507">
        <ele>310</ele>
        <time>2012-01-22T08:42:13Z</time>
      </trkpt>
      <trkpt lat="44.58482" lon="4.995">
        <ele>310</ele>
        <time>2012-01-22T08:42:16Z</time>
      </trkpt>
      <trkpt lat="44.58481" lon="4.99493">
        <ele>309</ele>
        <time>2012-01-22T08:42:19Z</time>
      </trkpt>
      <trkpt lat="44.58478" lon="4.99487">
        <ele>309</ele>
        <time>2012-01-22T08:42:22Z</time>
      </trkpt>
      <trkpt lat="44.58474" lon="4.99482">
        <ele>310</ele>
        <time>2012-01-22T08:42:25Z</time>
      </trkpt>
      <trkpt lat="44.58469" lon="4.99478">
        <ele>311</ele>
        <time>2012-01-22T08:42:28Z</time>
      </trkpt>
      <trkpt lat="44.58464" lon="4.99473">
        <ele>312</ele>
        <time>2012-01-22T08:42:31Z</time>
      </trkpt>
      <trkpt lat="44.5846" lon="4.9947">
        <ele>313</ele>
        <time>2012-01-22T08:42:34Z</time>
      </trkpt>
      <trkpt lat="44.58456" lon="4.99462">
        <ele>312</ele>
        <time>2012-01-22T08:42:38Z</time>
      </trkpt>
      <trkpt lat="44.58454" lon="4.99456">
        <ele>313</ele>
        <time>2012-01-22T08:42:41Z</time>
      </trkpt>
      <trkpt lat="44.5845" lon="4.99449">
        <ele>315</ele>
        <time>2012-01-22T08:42:44Z</time>
      </trkpt>
      <trkpt lat="44.58447" lon="4.99443">
        <ele>316</ele>
        <time>2012-01-22T08:42:47Z</time>
      </trkpt>
      <trkpt lat="44.58443" lon="4.99436">
        <ele>316</ele>
        <time>2012-01-22T08:42:51Z</time>
      </trkpt>
      <trkpt lat="44.58441" lon="4.9943">
        <ele>317</ele>
        <time>2012-01-22T08:42:55Z</time>
      </trkpt>
      <trkpt lat="44.58435" lon="4.99421">
        <ele>317</ele>
        <time>2012-01-22T08:42:59Z</time>
      </trkpt>
      <trkpt lat="44.58432" lon="4.99416">
        <ele>317</ele>
        <time>2012-01-22T08:43:02Z</time>
      </trkpt>
      <trkpt lat="44.58429" lon="4.99408">
        <ele>317</ele>
        <time>2012-01-22T08:43:04Z</time>
      </trkpt>
      <trkpt lat="44.58425" lon="4.99403">
        <ele>317</ele>
        <time>2012-01-22T08:43:07Z</time>
      </trkpt>
      <trkpt lat="44.5842" lon="4.99394">
        <ele>318</ele>
        <time>2012-01-22T08:43:09Z</time>
      </trkpt>
      <trkpt lat="44.58415" lon="4.99386">
        <ele>318</ele>
        <time>2012-01-22T08:43:11Z</time>
      </trkpt>
      <trkpt lat="44.58415" lon="4.99386">
        <ele>318</ele>
        <time>2012-01-22T08:43:11Z</time>
      </trkpt>
      <trkpt lat="44.58415" lon="4.99386">
        <ele>319</ele>
        <time>2012-01-22T08:43:12Z</time>
      </trkpt>
      <trkpt lat="44.58412" lon="4.99381">
        <ele>319</ele>
        <time>2012-01-22T08:43:16Z</time>
      </trkpt>
      <trkpt lat="44.58408" lon="4.99374">
        <ele>319</ele>
        <time>2012-01-22T08:43:20Z</time>
      </trkpt>
      <trkpt lat="44.58405" lon="4.99368">
        <ele>320</ele>
        <time>2012-01-22T08:43:23Z</time>
      </trkpt>
      <trkpt lat="44.58405" lon="4.99368">
        <ele>320</ele>
        <time>2012-01-22T08:43:23Z</time>
      </trkpt>
      <trkpt lat="44.58405" lon="4.99368">
        <ele>320</ele>
        <time>2012-01-22T08:43:25Z</time>
      </trkpt>
      <trkpt lat="44.58402" lon="4.99363">
        <ele>320</ele>
        <time>2012-01-22T08:43:27Z</time>
      </trkpt>
      <trkpt lat="44.58398" lon="4.99356">
        <ele>322</ele>
        <time>2012-01-22T08:43:31Z</time>
      </trkpt>
      <trkpt lat="44.58395" lon="4.99351">
        <ele>322</ele>
        <time>2012-01-22T08:43:35Z</time>
      </trkpt>
      <trkpt lat="44.58391" lon="4.99343">
        <ele>322</ele>
        <time>2012-01-22T08:43:37Z</time>
      </trkpt>
      <trkpt lat="44.58391" lon="4.99343">
        <ele>322</ele>
        <time>2012-01-22T08:43:37Z</time>
      </trkpt>
      <trkpt lat="44.58391" lon="4.99343">
        <ele>322</ele>
        <time>2012-01-22T08:43:38Z</time>
      </trkpt>
      <trkpt lat="44.58388" lon="4.99336">
        <ele>323</ele>
        <time>2012-01-22T08:43:42Z</time>
      </trkpt>
      <trkpt lat="44.58384" lon="4.99329">
        <ele>323</ele>
        <time>2012-01-22T08:43:46Z</time>
      </trkpt>
      <trkpt lat="44.58381" lon="4.99321">
        <ele>323</ele>
        <time>2012-01-22T08:43:48Z</time>
      </trkpt>
      <trkpt lat="44.58377" lon="4.99316">
        <ele>324</ele>
        <time>2012-01-22T08:43:51Z</time>
      </trkpt>
      <trkpt lat="44.58373" lon="4.99311">
        <ele>324</ele>
        <time>2012-01-22T08:43:54Z</time>
      </trkpt>
      <trkpt lat="44.5837" lon="4.99305">
        <ele>324</ele>
        <time>2012-01-22T08:43:56Z</time>
      </trkpt>
      <trkpt lat="44.58366" lon="4.99298">
        <ele>324</ele>
        <time>2012-01-22T08:43:59Z</time>
      </trkpt>
      <trkpt lat="44.58362" lon="4.99288">
        <ele>324</ele>
        <time>2012-01-22T08:44:02Z</time>
      </trkpt>
      <trkpt lat="44.58358" lon="4.99281">
        <ele>327</ele>
        <time>2012-01-22T08:44:10Z</time>
      </trkpt>
      <trkpt lat="44.58353" lon="4.99275">
        <ele>327</ele>
        <time>2012-01-22T08:44:13Z</time>
      </trkpt>
      <trkpt lat="44.5835" lon="4.99268">
        <ele>327</ele>
        <time>2012-01-22T08:44:16Z</time>
      </trkpt>
      <trkpt lat="44.58347" lon="4.99262">
        <ele>328</ele>
        <time>2012-01-22T08:44:21Z</time>
      </trkpt>
      <trkpt lat="44.58344" lon="4.99256">
        <ele>328</ele>
        <time>2012-01-22T08:44:24Z</time>
      </trkpt>
      <trkpt lat="44.58341" lon="4.99251">
        <ele>328</ele>
        <time>2012-01-22T08:44:25Z</time>
      </trkpt>
      <trkpt lat="44.58338" lon="4.99246">
        <ele>326</ele>
        <time>2012-01-22T08:44:29Z</time>
      </trkpt>
      <trkpt lat="44.58334" lon="4.9924">
        <ele>325</ele>
        <time>2012-01-22T08:44:32Z</time>
      </trkpt>
      <trkpt lat="44.5833" lon="4.99234">
        <ele>325</ele>
        <time>2012-01-22T08:44:36Z</time>
      </trkpt>
      <trkpt lat="44.58328" lon="4.99228">
        <ele>325</ele>
        <time>2012-01-22T08:44:39Z</time>
      </trkpt>
      <trkpt lat="44.58324" lon="4.99221">
        <ele>324</ele>
        <time>2012-01-22T08:44:42Z</time>
      </trkpt>
      <trkpt lat="44.58321" lon="4.99215">
        <ele>324</ele>
        <time>2012-01-22T08:44:46Z</time>
      </trkpt>
      <trkpt lat="44.58317" lon="4.99211">
        <ele>325</ele>
        <time>2012-01-22T08:44:50Z</time>
      </trkpt>
      <trkpt lat="44.58314" lon="4.99203">
        <ele>326</ele>
        <time>2012-01-22T08:44:52Z</time>
      </trkpt>
      <trkpt lat="44.58311" lon="4.99198">
        <ele>326</ele>
        <time>2012-01-22T08:44:55Z</time>
      </trkpt>
      <trkpt lat="44.58307" lon="4.99192">
        <ele>327</ele>
        <time>2012-01-22T08:44:58Z</time>
      </trkpt>
      <trkpt lat="44.58304" lon="4.99188">
        <ele>327</ele>
        <time>2012-01-22T08:45:01Z</time>
      </trkpt>
      <trkpt lat="44.58299" lon="4.99177">
        <ele>328</ele>
        <time>2012-01-22T08:45:05Z</time>
      </trkpt>
      <trkpt lat="44.58294" lon="4.99168">
        <ele>328</ele>
        <time>2012-01-22T08:45:09Z</time>
      </trkpt>
      <trkpt lat="44.5829" lon="4.99162">
        <ele>328</ele>
        <time>2012-01-22T08:45:11Z</time>
      </trkpt>
      <trkpt lat="44.58286" lon="4.99152">
        <ele>332</ele>
        <time>2012-01-22T08:45:20Z</time>
      </trkpt>
      <trkpt lat="44.58283" lon="4.99145">
        <ele>333</ele>
        <time>2012-01-22T08:45:23Z</time>
      </trkpt>
      <trkpt lat="44.58281" lon="4.99136">
        <ele>331</ele>
        <time>2012-01-22T08:45:25Z</time>
      </trkpt>
      <trkpt lat="44.5828" lon="4.9913">
        <ele>331</ele>
        <time>2012-01-22T08:45:28Z</time>
      </trkpt>
      <trkpt lat="44.58281" lon="4.99123">
        <ele>332</ele>
        <time>2012-01-22T08:45:30Z</time>
      </trkpt>
      <trkpt lat="44.58282" lon="4.99115">
        <ele>329</ele>
        <time>2012-01-22T08:45:33Z</time>
      </trkpt>
      <trkpt lat="44.58285" lon="4.99108">
        <ele>328</ele>
        <time>2012-01-22T08:45:36Z</time>
      </trkpt>
      <trkpt lat="44.58287" lon="4.99101">
        <ele>328</ele>
        <time>2012-01-22T08:45:39Z</time>
      </trkpt>
      <trkpt lat="44.58286" lon="4.99094">
        <ele>329</ele>
        <time>2012-01-22T08:45:42Z</time>
      </trkpt>
      <trkpt lat="44.58288" lon="4.99088">
        <ele>329</ele>
        <time>2012-01-22T08:45:47Z</time>
      </trkpt>
      <trkpt lat="44.5829" lon="4.99082">
        <ele>328</ele>
        <time>2012-01-22T08:45:49Z</time>
      </trkpt>
      <trkpt lat="44.58293" lon="4.99074">
        <ele>328</ele>
        <time>2012-01-22T08:45:52Z</time>
      </trkpt>
      <trkpt lat="44.58296" lon="4.99068">
        <ele>327</ele>
        <time>2012-01-22T08:45:55Z</time>
      </trkpt>
      <trkpt lat="44.583" lon="4.99064">
        <ele>327</ele>
        <time>2012-01-22T08:45:58Z</time>
      </trkpt>
      <trkpt lat="44.58304" lon="4.99059">
        <ele>328</ele>
        <time>2012-01-22T08:46:01Z</time>
      </trkpt>
      <trkpt lat="44.58307" lon="4.99053">
        <ele>328</ele>
        <time>2012-01-22T08:46:05Z</time>
      </trkpt>
      <trkpt lat="44.58312" lon="4.99049">
        <ele>327</ele>
        <time>2012-01-22T08:46:08Z</time>
      </trkpt>
      <trkpt lat="44.58317" lon="4.99043">
        <ele>327</ele>
        <time>2012-01-22T08:46:12Z</time>
      </trkpt>
      <trkpt lat="44.58322" lon="4.99038">
        <ele>328</ele>
        <time>2012-01-22T08:46:15Z</time>
      </trkpt>
      <trkpt lat="44.58327" lon="4.99031">
        <ele>328</ele>
        <time>2012-01-22T08:46:19Z</time>
      </trkpt>
      <trkpt lat="44.58331" lon="4.99026">
        <ele>328</ele>
        <time>2012-01-22T08:46:22Z</time>
      </trkpt>
      <trkpt lat="44.58336" lon="4.9902">
        <ele>329</ele>
        <time>2012-01-22T08:46:26Z</time>
      </trkpt>
      <trkpt lat="44.5834" lon="4.99017">
        <ele>330</ele>
        <time>2012-01-22T08:46:28Z</time>
      </trkpt>
      <trkpt lat="44.58344" lon="4.99013">
        <ele>330</ele>
        <time>2012-01-22T08:46:31Z</time>
      </trkpt>
      <trkpt lat="44.58349" lon="4.99008">
        <ele>331</ele>
        <time>2012-01-22T08:46:34Z</time>
      </trkpt>
      <trkpt lat="44.58354" lon="4.99004">
        <ele>331</ele>
        <time>2012-01-22T08:46:37Z</time>
      </trkpt>
      <trkpt lat="44.5836" lon="4.98998">
        <ele>332</ele>
        <time>2012-01-22T08:46:42Z</time>
      </trkpt>
      <trkpt lat="44.58364" lon="4.98994">
        <ele>333</ele>
        <time>2012-01-22T08:46:46Z</time>
      </trkpt>
      <trkpt lat="44.58369" lon="4.98991">
        <ele>333</ele>
        <time>2012-01-22T08:46:50Z</time>
      </trkpt>
      <trkpt lat="44.58373" lon="4.98984">
        <ele>334</ele>
        <time>2012-01-22T08:46:53Z</time>
      </trkpt>
      <trkpt lat="44.58376" lon="4.98978">
        <ele>334</ele>
        <time>2012-01-22T08:46:57Z</time>
      </trkpt>
      <trkpt lat="44.5838" lon="4.98972">
        <ele>334</ele>
        <time>2012-01-22T08:47:00Z</time>
      </trkpt>
      <trkpt lat="44.58383" lon="4.98966">
        <ele>335</ele>
        <time>2012-01-22T08:47:03Z</time>
      </trkpt>
      <trkpt lat="44.58387" lon="4.98961">
        <ele>334</ele>
        <time>2012-01-22T08:47:07Z</time>
      </trkpt>
      <trkpt lat="44.58388" lon="4.98954">
        <ele>334</ele>
        <time>2012-01-22T08:47:10Z</time>
      </trkpt>
      <trkpt lat="44.58389" lon="4.98948">
        <ele>334</ele>
        <time>2012-01-22T08:47:13Z</time>
      </trkpt>
      <trkpt lat="44.58389" lon="4.98941">
        <ele>334</ele>
        <time>2012-01-22T08:47:15Z</time>
      </trkpt>
      <trkpt lat="44.58392" lon="4.98935">
        <ele>334</ele>
        <time>2012-01-22T08:47:17Z</time>
      </trkpt>
      <trkpt lat="44.58395" lon="4.98928">
        <ele>334</ele>
        <time>2012-01-22T08:47:20Z</time>
      </trkpt>
      <trkpt lat="44.58396" lon="4.98919">
        <ele>335</ele>
        <time>2012-01-22T08:47:23Z</time>
      </trkpt>
      <trkpt lat="44.58398" lon="4.98913">
        <ele>336</ele>
        <time>2012-01-22T08:47:25Z</time>
      </trkpt>
      <trkpt lat="44.58398" lon="4.98906">
        <ele>335</ele>
        <time>2012-01-22T08:47:28Z</time>
      </trkpt>
      <trkpt lat="44.58395" lon="4.98899">
        <ele>336</ele>
        <time>2012-01-22T08:47:30Z</time>
      </trkpt>
      <trkpt lat="44.58395" lon="4.98891">
        <ele>337</ele>
        <time>2012-01-22T08:47:32Z</time>
      </trkpt>
      <trkpt lat="44.58394" lon="4.98883">
        <ele>337</ele>
        <time>2012-01-22T08:47:34Z</time>
      </trkpt>
      <trkpt lat="44.5839" lon="4.98874">
        <ele>335</ele>
        <time>2012-01-22T08:47:37Z</time>
      </trkpt>
      <trkpt lat="44.58391" lon="4.98867">
        <ele>333</ele>
        <time>2012-01-22T08:47:40Z</time>
      </trkpt>
      <trkpt lat="44.5839" lon="4.98859">
        <ele>333</ele>
        <time>2012-01-22T08:47:43Z</time>
      </trkpt>
      <trkpt lat="44.5839" lon="4.98852">
        <ele>331</ele>
        <time>2012-01-22T08:47:46Z</time>
      </trkpt>
      <trkpt lat="44.58388" lon="4.98845">
        <ele>333</ele>
        <time>2012-01-22T08:47:49Z</time>
      </trkpt>
      <trkpt lat="44.58386" lon="4.98837">
        <ele>334</ele>
        <time>2012-01-22T08:47:52Z</time>
      </trkpt>
      <trkpt lat="44.58388" lon="4.98828">
        <ele>334</ele>
        <time>2012-01-22T08:47:55Z</time>
      </trkpt>
      <trkpt lat="44.58389" lon="4.98821">
        <ele>334</ele>
        <time>2012-01-22T08:47:58Z</time>
      </trkpt>
      <trkpt lat="44.58388" lon="4.98814">
        <ele>334</ele>
        <time>2012-01-22T08:48:01Z</time>
      </trkpt>
      <trkpt lat="44.58386" lon="4.98808">
        <ele>334</ele>
        <time>2012-01-22T08:48:04Z</time>
      </trkpt>
      <trkpt lat="44.58384" lon="4.98802">
        <ele>334</ele>
        <time>2012-01-22T08:48:07Z</time>
      </trkpt>
      <trkpt lat="44.58384" lon="4.98794">
        <ele>334</ele>
        <time>2012-01-22T08:48:10Z</time>
      </trkpt>
      <trkpt lat="44.58384" lon="4.98785">
        <ele>333</ele>
        <time>2012-01-22T08:48:13Z</time>
      </trkpt>
      <trkpt lat="44.58382" lon="4.98779">
        <ele>333</ele>
        <time>2012-01-22T08:48:16Z</time>
      </trkpt>
      <trkpt lat="44.58381" lon="4.98772">
        <ele>333</ele>
        <time>2012-01-22T08:48:19Z</time>
      </trkpt>
      <trkpt lat="44.58382" lon="4.98765">
        <ele>334</ele>
        <time>2012-01-22T08:48:22Z</time>
      </trkpt>
      <trkpt lat="44.58382" lon="4.98758">
        <ele>334</ele>
        <time>2012-01-22T08:48:25Z</time>
      </trkpt>
      <trkpt lat="44.58381" lon="4.98752">
        <ele>333</ele>
        <time>2012-01-22T08:48:28Z</time>
      </trkpt>
      <trkpt lat="44.5838" lon="4.98743">
        <ele>333</ele>
        <time>2012-01-22T08:48:31Z</time>
      </trkpt>
      <trkpt lat="44.58382" lon="4.98735">
        <ele>333</ele>
        <time>2012-01-22T08:48:34Z</time>
      </trkpt>
      <trkpt lat="44.58382" lon="4.98729">
        <ele>333</ele>
        <time>2012-01-22T08:48:37Z</time>
      </trkpt>
      <trkpt lat="44.58381" lon="4.98722">
        <ele>334</ele>
        <time>2012-01-22T08:48:39Z</time>
      </trkpt>
      <trkpt lat="44.5838" lon="4.98714">
        <ele>335</ele>
        <time>2012-01-22T08:48:42Z</time>
      </trkpt>
      <trkpt lat="44.58376" lon="4.98706">
        <ele>336</ele>
        <time>2012-01-22T08:48:45Z</time>
      </trkpt>
      <trkpt lat="44.58376" lon="4.98699">
        <ele>336</ele>
        <time>2012-01-22T08:48:48Z</time>
      </trkpt>
      <trkpt lat="44.58374" lon="4.98691">
        <ele>335</ele>
        <time>2012-01-22T08:48:51Z</time>
      </trkpt>
      <trkpt lat="44.58372" lon="4.98685">
        <ele>334</ele>
        <time>2012-01-22T08:48:53Z</time>
      </trkpt>
      <trkpt lat="44.58369" lon="4.98678">
        <ele>334</ele>
        <time>2012-01-22T08:48:57Z</time>
      </trkpt>
      <trkpt lat="44.58365" lon="4.98672">
        <ele>334</ele>
        <time>2012-01-22T08:48:59Z</time>
      </trkpt>
      <trkpt lat="44.58361" lon="4.98667">
        <ele>334</ele>
        <time>2012-01-22T08:49:01Z</time>
      </trkpt>
      <trkpt lat="44.58358" lon="4.98663">
        <ele>334</ele>
        <time>2012-01-22T08:49:03Z</time>
      </trkpt>
      <trkpt lat="44.58354" lon="4.98658">
        <ele>335</ele>
        <time>2012-01-22T08:49:05Z</time>
      </trkpt>
      <trkpt lat="44.5835" lon="4.98653">
        <ele>335</ele>
        <time>2012-01-22T08:49:07Z</time>
      </trkpt>
      <trkpt lat="44.58346" lon="4.98647">
        <ele>335</ele>
        <time>2012-01-22T08:49:10Z</time>
      </trkpt>
      <trkpt lat="44.58343" lon="4.98643">
        <ele>335</ele>
        <time>2012-01-22T08:49:12Z</time>
      </trkpt>
      <trkpt lat="44.58338" lon="4.98637">
        <ele>336</ele>
        <time>2012-01-22T08:49:15Z</time>
      </trkpt>
      <trkpt lat="44.58334" lon="4.98632">
        <ele>336</ele>
        <time>2012-01-22T08:49:17Z</time>
      </trkpt>
      <trkpt lat="44.58329" lon="4.98627">
        <ele>336</ele>
        <time>2012-01-22T08:49:20Z</time>
      </trkpt>
      <trkpt lat="44.58324" lon="4.98623">
        <ele>336</ele>
        <time>2012-01-22T08:49:23Z</time>
      </trkpt>
      <trkpt lat="44.58319" lon="4.98619">
        <ele>338</ele>
        <time>2012-01-22T08:49:26Z</time>
      </trkpt>
      <trkpt lat="44.58313" lon="4.98616">
        <ele>338</ele>
        <time>2012-01-22T08:49:29Z</time>
      </trkpt>
      <trkpt lat="44.58309" lon="4.98611">
        <ele>338</ele>
        <time>2012-01-22T08:49:31Z</time>
      </trkpt>
      <trkpt lat="44.58304" lon="4.98607">
        <ele>338</ele>
        <time>2012-01-22T08:49:34Z</time>
      </trkpt>
      <trkpt lat="44.58298" lon="4.98604">
        <ele>340</ele>
        <time>2012-01-22T08:49:37Z</time>
      </trkpt>
      <trkpt lat="44.58293" lon="4.986">
        <ele>340</ele>
        <time>2012-01-22T08:49:40Z</time>
      </trkpt>
      <trkpt lat="44.58288" lon="4.98595">
        <ele>342</ele>
        <time>2012-01-22T08:49:42Z</time>
      </trkpt>
      <trkpt lat="44.58282" lon="4.98592">
        <ele>344</ele>
        <time>2012-01-22T08:49:45Z</time>
      </trkpt>
      <trkpt lat="44.58277" lon="4.98588">
        <ele>344</ele>
        <time>2012-01-22T08:49:48Z</time>
      </trkpt>
      <trkpt lat="44.58271" lon="4.98586">
        <ele>343</ele>
        <time>2012-01-22T08:49:51Z</time>
      </trkpt>
      <trkpt lat="44.58265" lon="4.98581">
        <ele>342</ele>
        <time>2012-01-22T08:49:54Z</time>
      </trkpt>
      <trkpt lat="44.58261" lon="4.98578">
        <ele>343</ele>
        <time>2012-01-22T08:49:56Z</time>
      </trkpt>
      <trkpt lat="44.58256" lon="4.98572">
        <ele>343</ele>
        <time>2012-01-22T08:49:59Z</time>
      </trkpt>
      <trkpt lat="44.5825" lon="4.98568">
        <ele>343</ele>
        <time>2012-01-22T08:50:02Z</time>
      </trkpt>
      <trkpt lat="44.58246" lon="4.98566">
        <ele>343</ele>
        <time>2012-01-22T08:50:04Z</time>
      </trkpt>
      <trkpt lat="44.58241" lon="4.98562">
        <ele>344</ele>
        <time>2012-01-22T08:50:06Z</time>
      </trkpt>
      <trkpt lat="44.58236" lon="4.98557">
        <ele>344</ele>
        <time>2012-01-22T08:50:09Z</time>
      </trkpt>
      <trkpt lat="44.58232" lon="4.98553">
        <ele>344</ele>
        <time>2012-01-22T08:50:11Z</time>
      </trkpt>
      <trkpt lat="44.58228" lon="4.98547">
        <ele>344</ele>
        <time>2012-01-22T08:50:13Z</time>
      </trkpt>
      <trkpt lat="44.58225" lon="4.98542">
        <ele>344</ele>
        <time>2012-01-22T08:50:15Z</time>
      </trkpt>
      <trkpt lat="44.58219" lon="4.98541">
        <ele>345</ele>
        <time>2012-01-22T08:50:17Z</time>
      </trkpt>
      <trkpt lat="44.58214" lon="4.98537">
        <ele>345</ele>
        <time>2012-01-22T08:50:19Z</time>
      </trkpt>
      <trkpt lat="44.5821" lon="4.98535">
        <ele>345</ele>
        <time>2012-01-22T08:50:21Z</time>
      </trkpt>
      <trkpt lat="44.58204" lon="4.9853">
        <ele>345</ele>
        <time>2012-01-22T08:50:23Z</time>
      </trkpt>
      <trkpt lat="44.58198" lon="4.98528">
        <ele>345</ele>
        <time>2012-01-22T08:50:27Z</time>
      </trkpt>
      <trkpt lat="44.58193" lon="4.98522">
        <ele>347</ele>
        <time>2012-01-22T08:50:29Z</time>
      </trkpt>
      <trkpt lat="44.58184" lon="4.98515">
        <ele>349</ele>
        <time>2012-01-22T08:50:32Z</time>
      </trkpt>
      <trkpt lat="44.58178" lon="4.98508">
        <ele>350</ele>
        <time>2012-01-22T08:50:34Z</time>
      </trkpt>
      <trkpt lat="44.58174" lon="4.98507">
        <ele>351</ele>
        <time>2012-01-22T08:50:36Z</time>
      </trkpt>
      <trkpt lat="44.58169" lon="4.98504">
        <ele>349</ele>
        <time>2012-01-22T08:50:40Z</time>
      </trkpt>
      <trkpt lat="44.58164" lon="4.98499">
        <ele>350</ele>
        <time>2012-01-22T08:50:42Z</time>
      </trkpt>
      <trkpt lat="44.5816" lon="4.98495">
        <ele>350</ele>
        <time>2012-01-22T08:50:45Z</time>
      </trkpt>
      <trkpt lat="44.58155" lon="4.98488">
        <ele>351</ele>
        <time>2012-01-22T08:50:47Z</time>
      </trkpt>
      <trkpt lat="44.5815" lon="4.98483">
        <ele>350</ele>
        <time>2012-01-22T08:50:49Z</time>
      </trkpt>
      <trkpt lat="44.58145" lon="4.98475">
        <ele>349</ele>
        <time>2012-01-22T08:50:51Z</time>
      </trkpt>
      <trkpt lat="44.58138" lon="4.98472">
        <ele>349</ele>
        <time>2012-01-22T08:50:54Z</time>
      </trkpt>
      <trkpt lat="44.58134" lon="4.98469">
        <ele>349</ele>
        <time>2012-01-22T08:50:57Z</time>
      </trkpt>
      <trkpt lat="44.5813" lon="4.98465">
        <ele>349</ele>
        <time>2012-01-22T08:50:59Z</time>
      </trkpt>
      <trkpt lat="44.58124" lon="4.98463">
        <ele>349</ele>
        <time>2012-01-22T08:51:02Z</time>
      </trkpt>
      <trkpt lat="44.5812" lon="4.98458">
        <ele>349</ele>
        <time>2012-01-22T08:51:04Z</time>
      </trkpt>
      <trkpt lat="44.58115" lon="4.98457">
        <ele>351</ele>
        <time>2012-01-22T08:51:07Z</time>
      </trkpt>
      <trkpt lat="44.5811" lon="4.98454">
        <ele>351</ele>
        <time>2012-01-22T08:51:09Z</time>
      </trkpt>
      <trkpt lat="44.58105" lon="4.9845">
        <ele>350</ele>
        <time>2012-01-22T08:51:12Z</time>
      </trkpt>
      <trkpt lat="44.581" lon="4.9845">
        <ele>346</ele>
        <time>2012-01-22T08:51:16Z</time>
      </trkpt>
      <trkpt lat="44.58096" lon="4.98446">
        <ele>346</ele>
        <time>2012-01-22T08:51:18Z</time>
      </trkpt>
      <trkpt lat="44.58091" lon="4.98442">
        <ele>347</ele>
        <time>2012-01-22T08:51:20Z</time>
      </trkpt>
      <trkpt lat="44.58086" lon="4.98438">
        <ele>347</ele>
        <time>2012-01-22T08:51:22Z</time>
      </trkpt>
      <trkpt lat="44.58082" lon="4.98434">
        <ele>347</ele>
        <time>2012-01-22T08:51:24Z</time>
      </trkpt>
      <trkpt lat="44.58077" lon="4.9843">
        <ele>347</ele>
        <time>2012-01-22T08:51:26Z</time>
      </trkpt>
      <trkpt lat="44.58073" lon="4.98427">
        <ele>347</ele>
        <time>2012-01-22T08:51:28Z</time>
      </trkpt>
      <trkpt lat="44.58067" lon="4.98425">
        <ele>338</ele>
        <time>2012-01-22T08:51:34Z</time>
      </trkpt>
      <trkpt lat="44.58062" lon="4.98421">
        <ele>339</ele>
        <time>2012-01-22T08:51:36Z</time>
      </trkpt>
      <trkpt lat="44.58058" lon="4.98421">
        <ele>333</ele>
        <time>2012-01-22T08:51:40Z</time>
      </trkpt>
      <trkpt lat="44.58052" lon="4.98417">
        <ele>333</ele>
        <time>2012-01-22T08:51:43Z</time>
      </trkpt>
      <trkpt lat="44.58048" lon="4.98413">
        <ele>332</ele>
        <time>2012-01-22T08:51:45Z</time>
      </trkpt>
      <trkpt lat="44.58044" lon="4.98411">
        <ele>333</ele>
        <time>2012-01-22T08:51:47Z</time>
      </trkpt>
      <trkpt lat="44.58038" lon="4.98404">
        <ele>333</ele>
        <time>2012-01-22T08:51:50Z</time>
      </trkpt>
      <trkpt lat="44.58034" lon="4.984">
        <ele>333</ele>
        <time>2012-01-22T08:51:52Z</time>
      </trkpt>
      <trkpt lat="44.5803" lon="4.98396">
        <ele>334</ele>
        <time>2012-01-22T08:51:54Z</time>
      </trkpt>
      <trkpt lat="44.58027" lon="4.98392">
        <ele>332</ele>
        <time>2012-01-22T08:51:56Z</time>
      </trkpt>
      <trkpt lat="44.58022" lon="4.98387">
        <ele>332</ele>
        <time>2012-01-22T08:51:58Z</time>
      </trkpt>
      <trkpt lat="44.58018" lon="4.98383">
        <ele>332</ele>
        <time>2012-01-22T08:52:00Z</time>
      </trkpt>
      <trkpt lat="44.58013" lon="4.98378">
        <ele>332</ele>
        <time>2012-01-22T08:52:03Z</time>
      </trkpt>
      <trkpt lat="44.58008" lon="4.98372">
        <ele>333</ele>
        <time>2012-01-22T08:52:06Z</time>
      </trkpt>
      <trkpt lat="44.58004" lon="4.98366">
        <ele>334</ele>
        <time>2012-01-22T08:52:08Z</time>
      </trkpt>
      <trkpt lat="44.57999" lon="4.98362">
        <ele>334</ele>
        <time>2012-01-22T08:52:11Z</time>
      </trkpt>
      <trkpt lat="44.57996" lon="4.98355">
        <ele>335</ele>
        <time>2012-01-22T08:52:14Z</time>
      </trkpt>
      <trkpt lat="44.57992" lon="4.98348">
        <ele>334</ele>
        <time>2012-01-22T08:52:17Z</time>
      </trkpt>
      <trkpt lat="44.5799" lon="4.98343">
        <ele>334</ele>
        <time>2012-01-22T08:52:19Z</time>
      </trkpt>
      <trkpt lat="44.57987" lon="4.98338">
        <ele>333</ele>
        <time>2012-01-22T08:52:21Z</time>
      </trkpt>
      <trkpt lat="44.57983" lon="4.98333">
        <ele>332</ele>
        <time>2012-01-22T08:52:23Z</time>
      </trkpt>
      <trkpt lat="44.5798" lon="4.98325">
        <ele>332</ele>
        <time>2012-01-22T08:52:26Z</time>
      </trkpt>
      <trkpt lat="44.57976" lon="4.98319">
        <ele>331</ele>
        <time>2012-01-22T08:52:29Z</time>
      </trkpt>
      <trkpt lat="44.57971" lon="4.98313">
        <ele>331</ele>
        <time>2012-01-22T08:52:32Z</time>
      </trkpt>
      <trkpt lat="44.57968" lon="4.98308">
        <ele>331</ele>
        <time>2012-01-22T08:52:34Z</time>
      </trkpt>
      <trkpt lat="44.57965" lon="4.98303">
        <ele>331</ele>
        <time>2012-01-22T08:52:36Z</time>
      </trkpt>
      <trkpt lat="44.57962" lon="4.98296">
        <ele>330</ele>
        <time>2012-01-22T08:52:39Z</time>
      </trkpt>
      <trkpt lat="44.57958" lon="4.98288">
        <ele>329</ele>
        <time>2012-01-22T08:52:42Z</time>
      </trkpt>
      <trkpt lat="44.57954" lon="4.98282">
        <ele>330</ele>
        <time>2012-01-22T08:52:45Z</time>
      </trkpt>
      <trkpt lat="44.57951" lon="4.98275">
        <ele>331</ele>
        <time>2012-01-22T08:52:48Z</time>
      </trkpt>
      <trkpt lat="44.57948" lon="4.9827">
        <ele>330</ele>
        <time>2012-01-22T08:52:50Z</time>
      </trkpt>
      <trkpt lat="44.57943" lon="4.98263">
        <ele>331</ele>
        <time>2012-01-22T08:52:53Z</time>
      </trkpt>
      <trkpt lat="44.57939" lon="4.98256">
        <ele>331</ele>
        <time>2012-01-22T08:52:56Z</time>
      </trkpt>
      <trkpt lat="44.57935" lon="4.98249">
        <ele>331</ele>
        <time>2012-01-22T08:52:59Z</time>
      </trkpt>
      <trkpt lat="44.57932" lon="4.98242">
        <ele>331</ele>
        <time>2012-01-22T08:53:02Z</time>
      </trkpt>
      <trkpt lat="44.57928" lon="4.98235">
        <ele>331</ele>
        <time>2012-01-22T08:53:05Z</time>
      </trkpt>
      <trkpt lat="44.57925" lon="4.9823">
        <ele>331</ele>
        <time>2012-01-22T08:53:07Z</time>
      </trkpt>
      <trkpt lat="44.57922" lon="4.98226">
        <ele>331</ele>
        <time>2012-01-22T08:53:09Z</time>
      </trkpt>
      <trkpt lat="44.57918" lon="4.98221">
        <ele>331</ele>
        <time>2012-01-22T08:53:11Z</time>
      </trkpt>
      <trkpt lat="44.57913" lon="4.98214">
        <ele>331</ele>
        <time>2012-01-22T08:53:14Z</time>
      </trkpt>
      <trkpt lat="44.5791" lon="4.98208">
        <ele>331</ele>
        <time>2012-01-22T08:53:16Z</time>
      </trkpt>
      <trkpt lat="44.57907" lon="4.982">
        <ele>331</ele>
        <time>2012-01-22T08:53:19Z</time>
      </trkpt>
      <trkpt lat="44.57903" lon="4.98196">
        <ele>331</ele>
        <time>2012-01-22T08:53:21Z</time>
      </trkpt>
      <trkpt lat="44.57898" lon="4.98188">
        <ele>331</ele>
        <time>2012-01-22T08:53:24Z</time>
      </trkpt>
      <trkpt lat="44.57895" lon="4.98183">
        <ele>331</ele>
        <time>2012-01-22T08:53:26Z</time>
      </trkpt>
      <trkpt lat="44.57891" lon="4.98178">
        <ele>331</ele>
        <time>2012-01-22T08:53:28Z</time>
      </trkpt>
      <trkpt lat="44.57888" lon="4.98174">
        <ele>332</ele>
        <time>2012-01-22T08:53:30Z</time>
      </trkpt>
      <trkpt lat="44.57884" lon="4.9817">
        <ele>332</ele>
        <time>2012-01-22T08:53:32Z</time>
      </trkpt>
      <trkpt lat="44.5788" lon="4.98163">
        <ele>332</ele>
        <time>2012-01-22T08:53:35Z</time>
      </trkpt>
      <trkpt lat="44.57877" lon="4.98156">
        <ele>332</ele>
        <time>2012-01-22T08:53:38Z</time>
      </trkpt>
      <trkpt lat="44.57873" lon="4.98152">
        <ele>333</ele>
        <time>2012-01-22T08:53:40Z</time>
      </trkpt>
      <trkpt lat="44.5787" lon="4.98146">
        <ele>333</ele>
        <time>2012-01-22T08:53:42Z</time>
      </trkpt>
      <trkpt lat="44.57866" lon="4.98141">
        <ele>334</ele>
        <time>2012-01-22T08:53:45Z</time>
      </trkpt>
      <trkpt lat="44.57861" lon="4.98133">
        <ele>335</ele>
        <time>2012-01-22T08:53:48Z</time>
      </trkpt>
      <trkpt lat="44.57858" lon="4.98127">
        <ele>335</ele>
        <time>2012-01-22T08:53:50Z</time>
      </trkpt>
      <trkpt lat="44.57855" lon="4.9812">
        <ele>335</ele>
        <time>2012-01-22T08:53:52Z</time>
      </trkpt>
      <trkpt lat="44.57852" lon="4.98115">
        <ele>334</ele>
        <time>2012-01-22T08:53:54Z</time>
      </trkpt>
      <trkpt lat="44.57848" lon="4.98109">
        <ele>334</ele>
        <time>2012-01-22T08:53:57Z</time>
      </trkpt>
      <trkpt lat="44.57845" lon="4.98102">
        <ele>335</ele>
        <time>2012-01-22T08:53:59Z</time>
      </trkpt>
      <trkpt lat="44.57841" lon="4.98097">
        <ele>335</ele>
        <time>2012-01-22T08:54:01Z</time>
      </trkpt>
      <trkpt lat="44.57838" lon="4.98092">
        <ele>335</ele>
        <time>2012-01-22T08:54:03Z</time>
      </trkpt>
      <trkpt lat="44.57835" lon="4.98087">
        <ele>335</ele>
        <time>2012-01-22T08:54:05Z</time>
      </trkpt>
      <trkpt lat="44.5783" lon="4.9808">
        <ele>336</ele>
        <time>2012-01-22T08:54:08Z</time>
      </trkpt>
      <trkpt lat="44.57826" lon="4.98074">
        <ele>335</ele>
        <time>2012-01-22T08:54:10Z</time>
      </trkpt>
      <trkpt lat="44.57822" lon="4.98065">
        <ele>336</ele>
        <time>2012-01-22T08:54:12Z</time>
      </trkpt>
      <trkpt lat="44.57817" lon="4.98058">
        <ele>336</ele>
        <time>2012-01-22T08:54:15Z</time>
      </trkpt>
      <trkpt lat="44.57814" lon="4.98052">
        <ele>336</ele>
        <time>2012-01-22T08:54:17Z</time>
      </trkpt>
      <trkpt lat="44.57811" lon="4.98046">
        <ele>336</ele>
        <time>2012-01-22T08:54:20Z</time>
      </trkpt>
      <trkpt lat="44.57807" lon="4.9804">
        <ele>334</ele>
        <time>2012-01-22T08:54:23Z</time>
      </trkpt>
      <trkpt lat="44.57802" lon="4.98035">
        <ele>334</ele>
        <time>2012-01-22T08:54:25Z</time>
      </trkpt>
      <trkpt lat="44.57799" lon="4.98028">
        <ele>334</ele>
        <time>2012-01-22T08:54:27Z</time>
      </trkpt>
      <trkpt lat="44.57796" lon="4.98022">
        <ele>336</ele>
        <time>2012-01-22T08:54:30Z</time>
      </trkpt>
      <trkpt lat="44.57793" lon="4.98016">
        <ele>336</ele>
        <time>2012-01-22T08:54:33Z</time>
      </trkpt>
      <trkpt lat="44.57789" lon="4.98012">
        <ele>336</ele>
        <time>2012-01-22T08:54:35Z</time>
      </trkpt>
      <trkpt lat="44.57785" lon="4.98006">
        <ele>337</ele>
        <time>2012-01-22T08:54:37Z</time>
      </trkpt>
      <trkpt lat="44.57782" lon="4.97999">
        <ele>336</ele>
        <time>2012-01-22T08:54:39Z</time>
      </trkpt>
      <trkpt lat="44.57778" lon="4.97993">
        <ele>334</ele>
        <time>2012-01-22T08:54:42Z</time>
      </trkpt>
      <trkpt lat="44.57775" lon="4.97987">
        <ele>333</ele>
        <time>2012-01-22T08:54:44Z</time>
      </trkpt>
      <trkpt lat="44.5777" lon="4.97979">
        <ele>333</ele>
        <time>2012-01-22T08:54:47Z</time>
      </trkpt>
      <trkpt lat="44.57766" lon="4.97975">
        <ele>333</ele>
        <time>2012-01-22T08:54:49Z</time>
      </trkpt>
      <trkpt lat="44.57761" lon="4.97968">
        <ele>333</ele>
        <time>2012-01-22T08:54:51Z</time>
      </trkpt>
      <trkpt lat="44.57758" lon="4.97959">
        <ele>333</ele>
        <time>2012-01-22T08:54:53Z</time>
      </trkpt>
      <trkpt lat="44.57754" lon="4.97953">
        <ele>333</ele>
        <time>2012-01-22T08:54:55Z</time>
      </trkpt>
      <trkpt lat="44.5775" lon="4.97947">
        <ele>333</ele>
        <time>2012-01-22T08:54:56Z</time>
      </trkpt>
      <trkpt lat="44.57748" lon="4.9794">
        <ele>332</ele>
        <time>2012-01-22T08:54:59Z</time>
      </trkpt>
      <trkpt lat="44.57743" lon="4.97934">
        <ele>333</ele>
        <time>2012-01-22T08:55:03Z</time>
      </trkpt>
      <trkpt lat="44.57738" lon="4.97928">
        <ele>334</ele>
        <time>2012-01-22T08:55:06Z</time>
      </trkpt>
      <trkpt lat="44.57735" lon="4.9792">
        <ele>334</ele>
        <time>2012-01-22T08:55:08Z</time>
      </trkpt>
      <trkpt lat="44.57731" lon="4.97914">
        <ele>335</ele>
        <time>2012-01-22T08:55:09Z</time>
      </trkpt>
      <trkpt lat="44.57728" lon="4.97908">
        <ele>335</ele>
        <time>2012-01-22T08:55:13Z</time>
      </trkpt>
      <trkpt lat="44.57724" lon="4.979">
        <ele>334</ele>
        <time>2012-01-22T08:55:16Z</time>
      </trkpt>
      <trkpt lat="44.57721" lon="4.97892">
        <ele>334</ele>
        <time>2012-01-22T08:55:18Z</time>
      </trkpt>
      <trkpt lat="44.57716" lon="4.97886">
        <ele>335</ele>
        <time>2012-01-22T08:55:22Z</time>
      </trkpt>
      <trkpt lat="44.57712" lon="4.97879">
        <ele>334</ele>
        <time>2012-01-22T08:55:25Z</time>
      </trkpt>
      <trkpt lat="44.57708" lon="4.97873">
        <ele>333</ele>
        <time>2012-01-22T08:55:28Z</time>
      </trkpt>
      <trkpt lat="44.57704" lon="4.97867">
        <ele>332</ele>
        <time>2012-01-22T08:55:31Z</time>
      </trkpt>
      <trkpt lat="44.577" lon="4.9786">
        <ele>332</ele>
        <time>2012-01-22T08:55:34Z</time>
      </trkpt>
      <trkpt lat="44.57695" lon="4.97854">
        <ele>333</ele>
        <time>2012-01-22T08:55:37Z</time>
      </trkpt>
      <trkpt lat="44.57691" lon="4.97847">
        <ele>332</ele>
        <time>2012-01-22T08:55:39Z</time>
      </trkpt>
      <trkpt lat="44.57688" lon="4.97842">
        <ele>333</ele>
        <time>2012-01-22T08:55:41Z</time>
      </trkpt>
      <trkpt lat="44.57685" lon="4.97837">
        <ele>332</ele>
        <time>2012-01-22T08:55:43Z</time>
      </trkpt>
      <trkpt lat="44.57681" lon="4.97834">
        <ele>332</ele>
        <time>2012-01-22T08:55:46Z</time>
      </trkpt>
      <trkpt lat="44.57677" lon="4.97827">
        <ele>331</ele>
        <time>2012-01-22T08:55:48Z</time>
      </trkpt>
      <trkpt lat="44.57675" lon="4.97821">
        <ele>331</ele>
        <time>2012-01-22T08:55:50Z</time>
      </trkpt>
      <trkpt lat="44.57672" lon="4.97816">
        <ele>331</ele>
        <time>2012-01-22T08:55:52Z</time>
      </trkpt>
      <trkpt lat="44.57668" lon="4.97811">
        <ele>331</ele>
        <time>2012-01-22T08:55:54Z</time>
      </trkpt>
      <trkpt lat="44.57664" lon="4.97806">
        <ele>330</ele>
        <time>2012-01-22T08:55:57Z</time>
      </trkpt>
      <trkpt lat="44.5766" lon="4.978">
        <ele>329</ele>
        <time>2012-01-22T08:56:00Z</time>
      </trkpt>
      <trkpt lat="44.57656" lon="4.97792">
        <ele>328</ele>
        <time>2012-01-22T08:56:03Z</time>
      </trkpt>
      <trkpt lat="44.57654" lon="4.97786">
        <ele>327</ele>
        <time>2012-01-22T08:56:05Z</time>
      </trkpt>
      <trkpt lat="44.57649" lon="4.97778">
        <ele>328</ele>
        <time>2012-01-22T08:56:09Z</time>
      </trkpt>
      <trkpt lat="44.57647" lon="4.97772">
        <ele>327</ele>
        <time>2012-01-22T08:56:11Z</time>
      </trkpt>
      <trkpt lat="44.57643" lon="4.97766">
        <ele>327</ele>
        <time>2012-01-22T08:56:14Z</time>
      </trkpt>
      <trkpt lat="44.5764" lon="4.97761">
        <ele>327</ele>
        <time>2012-01-22T08:56:16Z</time>
      </trkpt>
      <trkpt lat="44.57636" lon="4.97754">
        <ele>326</ele>
        <time>2012-01-22T08:56:19Z</time>
      </trkpt>
      <trkpt lat="44.57633" lon="4.97748">
        <ele>324</ele>
        <time>2012-01-22T08:56:21Z</time>
      </trkpt>
      <trkpt lat="44.5763" lon="4.97742">
        <ele>325</ele>
        <time>2012-01-22T08:56:23Z</time>
      </trkpt>
      <trkpt lat="44.57625" lon="4.97738">
        <ele>324</ele>
        <time>2012-01-22T08:56:25Z</time>
      </trkpt>
      <trkpt lat="44.57622" lon="4.97732">
        <ele>324</ele>
        <time>2012-01-22T08:56:27Z</time>
      </trkpt>
      <trkpt lat="44.57618" lon="4.97725">
        <ele>323</ele>
        <time>2012-01-22T08:56:29Z</time>
      </trkpt>
      <trkpt lat="44.57616" lon="4.97719">
        <ele>324</ele>
        <time>2012-01-22T08:56:31Z</time>
      </trkpt>
      <trkpt lat="44.57611" lon="4.97714">
        <ele>323</ele>
        <time>2012-01-22T08:56:33Z</time>
      </trkpt>
      <trkpt lat="44.57609" lon="4.97707">
        <ele>324</ele>
        <time>2012-01-22T08:56:36Z</time>
      </trkpt>
      <trkpt lat="44.57607" lon="4.97699">
        <ele>324</ele>
        <time>2012-01-22T08:56:38Z</time>
      </trkpt>
      <trkpt lat="44.57603" lon="4.97691">
        <ele>323</ele>
        <time>2012-01-22T08:56:41Z</time>
      </trkpt>
      <trkpt lat="44.576" lon="4.97684">
        <ele>323</ele>
        <time>2012-01-22T08:56:44Z</time>
      </trkpt>
      <trkpt lat="44.57595" lon="4.97677">
        <ele>322</ele>
        <time>2012-01-22T08:56:47Z</time>
      </trkpt>
      <trkpt lat="44.57591" lon="4.9767">
        <ele>321</ele>
        <time>2012-01-22T08:56:50Z</time>
      </trkpt>
      <trkpt lat="44.57588" lon="4.97666">
        <ele>322</ele>
        <time>2012-01-22T08:56:52Z</time>
      </trkpt>
      <trkpt lat="44.57585" lon="4.97661">
        <ele>321</ele>
        <time>2012-01-22T08:56:54Z</time>
      </trkpt>
      <trkpt lat="44.57583" lon="4.97652">
        <ele>321</ele>
        <time>2012-01-22T08:56:56Z</time>
      </trkpt>
      <trkpt lat="44.57583" lon="4.97644">
        <ele>320</ele>
        <time>2012-01-22T08:56:58Z</time>
      </trkpt>
      <trkpt lat="44.57585" lon="4.97637">
        <ele>319</ele>
        <time>2012-01-22T08:57:00Z</time>
      </trkpt>
      <trkpt lat="44.57587" lon="4.97631">
        <ele>319</ele>
        <time>2012-01-22T08:57:02Z</time>
      </trkpt>
      <trkpt lat="44.5759" lon="4.97624">
        <ele>319</ele>
        <time>2012-01-22T08:57:04Z</time>
      </trkpt>
      <trkpt lat="44.57593" lon="4.97619">
        <ele>318</ele>
        <time>2012-01-22T08:57:06Z</time>
      </trkpt>
      <trkpt lat="44.57598" lon="4.97614">
        <ele>317</ele>
        <time>2012-01-22T08:57:09Z</time>
      </trkpt>
      <trkpt lat="44.57602" lon="4.97607">
        <ele>317</ele>
        <time>2012-01-22T08:57:11Z</time>
      </trkpt>
      <trkpt lat="44.57605" lon="4.97598">
        <ele>317</ele>
        <time>2012-01-22T08:57:14Z</time>
      </trkpt>
      <trkpt lat="44.57607" lon="4.97592">
        <ele>317</ele>
        <time>2012-01-22T08:57:16Z</time>
      </trkpt>
      <trkpt lat="44.5761" lon="4.97587">
        <ele>317</ele>
        <time>2012-01-22T08:57:18Z</time>
      </trkpt>
      <trkpt lat="44.57611" lon="4.97581">
        <ele>317</ele>
        <time>2012-01-22T08:57:20Z</time>
      </trkpt>
      <trkpt lat="44.57615" lon="4.97577">
        <ele>317</ele>
        <time>2012-01-22T08:57:22Z</time>
      </trkpt>
      <trkpt lat="44.57618" lon="4.97572">
        <ele>317</ele>
        <time>2012-01-22T08:57:24Z</time>
      </trkpt>
      <trkpt lat="44.57621" lon="4.97565">
        <ele>317</ele>
        <time>2012-01-22T08:57:26Z</time>
      </trkpt>
      <trkpt lat="44.57625" lon="4.97555">
        <ele>315</ele>
        <time>2012-01-22T08:57:29Z</time>
      </trkpt>
      <trkpt lat="44.57627" lon="4.97545">
        <ele>315</ele>
        <time>2012-01-22T08:57:32Z</time>
      </trkpt>
      <trkpt lat="44.57628" lon="4.97538">
        <ele>315</ele>
        <time>2012-01-22T08:57:34Z</time>
      </trkpt>
      <trkpt lat="44.5763" lon="4.97533">
        <ele>314</ele>
        <time>2012-01-22T08:57:36Z</time>
      </trkpt>
      <trkpt lat="44.57632" lon="4.97527">
        <ele>314</ele>
        <time>2012-01-22T08:57:38Z</time>
      </trkpt>
      <trkpt lat="44.57638" lon="4.97523">
        <ele>314</ele>
        <time>2012-01-22T08:57:41Z</time>
      </trkpt>
      <trkpt lat="44.5764" lon="4.97518">
        <ele>315</ele>
        <time>2012-01-22T08:57:43Z</time>
      </trkpt>
      <trkpt lat="44.57644" lon="4.97511">
        <ele>314</ele>
        <time>2012-01-22T08:57:46Z</time>
      </trkpt>
      <trkpt lat="44.57647" lon="4.97502">
        <ele>314</ele>
        <time>2012-01-22T08:57:49Z</time>
      </trkpt>
      <trkpt lat="44.57648" lon="4.97495">
        <ele>313</ele>
        <time>2012-01-22T08:57:51Z</time>
      </trkpt>
      <trkpt lat="44.57653" lon="4.97488">
        <ele>312</ele>
        <time>2012-01-22T08:57:54Z</time>
      </trkpt>
      <trkpt lat="44.57655" lon="4.97482">
        <ele>312</ele>
        <time>2012-01-22T08:57:56Z</time>
      </trkpt>
      <trkpt lat="44.57659" lon="4.97477">
        <ele>312</ele>
        <time>2012-01-22T08:57:58Z</time>
      </trkpt>
      <trkpt lat="44.5766" lon="4.9747">
        <ele>312</ele>
        <time>2012-01-22T08:58:00Z</time>
      </trkpt>
      <trkpt lat="44.57662" lon="4.97464">
        <ele>313</ele>
        <time>2012-01-22T08:58:02Z</time>
      </trkpt>
      <trkpt lat="44.57665" lon="4.97458">
        <ele>313</ele>
        <time>2012-01-22T08:58:04Z</time>
      </trkpt>
      <trkpt lat="44.57669" lon="4.97452">
        <ele>312</ele>
        <time>2012-01-22T08:58:06Z</time>
      </trkpt>
      <trkpt lat="44.57669" lon="4.97444">
        <ele>311</ele>
        <time>2012-01-22T08:58:08Z</time>
      </trkpt>
      <trkpt lat="44.57672" lon="4.97438">
        <ele>311</ele>
        <time>2012-01-22T08:58:10Z</time>
      </trkpt>
      <trkpt lat="44.57676" lon="4.97431">
        <ele>310</ele>
        <time>2012-01-22T08:58:13Z</time>
      </trkpt>
      <trkpt lat="44.5768" lon="4.97427">
        <ele>310</ele>
        <time>2012-01-22T08:58:15Z</time>
      </trkpt>
      <trkpt lat="44.57683" lon="4.97419">
        <ele>310</ele>
        <time>2012-01-22T08:58:18Z</time>
      </trkpt>
      <trkpt lat="44.57685" lon="4.97411">
        <ele>309</ele>
        <time>2012-01-22T08:58:21Z</time>
      </trkpt>
      <trkpt lat="44.57688" lon="4.97404">
        <ele>309</ele>
        <time>2012-01-22T08:58:23Z</time>
      </trkpt>
      <trkpt lat="44.57692" lon="4.974">
        <ele>309</ele>
        <time>2012-01-22T08:58:25Z</time>
      </trkpt>
      <trkpt lat="44.57696" lon="4.97395">
        <ele>309</ele>
        <time>2012-01-22T08:58:27Z</time>
      </trkpt>
      <trkpt lat="44.57699" lon="4.97388">
        <ele>310</ele>
        <time>2012-01-22T08:58:29Z</time>
      </trkpt>
      <trkpt lat="44.57703" lon="4.9738">
        <ele>310</ele>
        <time>2012-01-22T08:58:32Z</time>
      </trkpt>
      <trkpt lat="44.57704" lon="4.97372">
        <ele>310</ele>
        <time>2012-01-22T08:58:34Z</time>
      </trkpt>
      <trkpt lat="44.57707" lon="4.97364">
        <ele>310</ele>
        <time>2012-01-22T08:58:37Z</time>
      </trkpt>
      <trkpt lat="44.57711" lon="4.97357">
        <ele>309</ele>
        <time>2012-01-22T08:58:40Z</time>
      </trkpt>
      <trkpt lat="44.57713" lon="4.97349">
        <ele>309</ele>
        <time>2012-01-22T08:58:43Z</time>
      </trkpt>
      <trkpt lat="44.57716" lon="4.97343">
        <ele>310</ele>
        <time>2012-01-22T08:58:45Z</time>
      </trkpt>
      <trkpt lat="44.5772" lon="4.97332">
        <ele>309</ele>
        <time>2012-01-22T08:58:53Z</time>
      </trkpt>
      <trkpt lat="44.57723" lon="4.97325">
        <ele>309</ele>
        <time>2012-01-22T08:58:55Z</time>
      </trkpt>
      <trkpt lat="44.57726" lon="4.97318">
        <ele>309</ele>
        <time>2012-01-22T08:58:57Z</time>
      </trkpt>
      <trkpt lat="44.57728" lon="4.97312">
        <ele>310</ele>
        <time>2012-01-22T08:58:59Z</time>
      </trkpt>
      <trkpt lat="44.57732" lon="4.97305">
        <ele>310</ele>
        <time>2012-01-22T08:59:01Z</time>
      </trkpt>
      <trkpt lat="44.57733" lon="4.97296">
        <ele>311</ele>
        <time>2012-01-22T08:59:03Z</time>
      </trkpt>
      <trkpt lat="44.57737" lon="4.97288">
        <ele>310</ele>
        <time>2012-01-22T08:59:06Z</time>
      </trkpt>
      <trkpt lat="44.5774" lon="4.97282">
        <ele>310</ele>
        <time>2012-01-22T08:59:08Z</time>
      </trkpt>
      <trkpt lat="44.57742" lon="4.97276">
        <ele>309</ele>
        <time>2012-01-22T08:59:10Z</time>
      </trkpt>
      <trkpt lat="44.57743" lon="4.9727">
        <ele>308</ele>
        <time>2012-01-22T08:59:12Z</time>
      </trkpt>
      <trkpt lat="44.57746" lon="4.97264">
        <ele>307</ele>
        <time>2012-01-22T08:59:14Z</time>
      </trkpt>
      <trkpt lat="44.57748" lon="4.97257">
        <ele>306</ele>
        <time>2012-01-22T08:59:16Z</time>
      </trkpt>
      <trkpt lat="44.57751" lon="4.97249">
        <ele>306</ele>
        <time>2012-01-22T08:59:19Z</time>
      </trkpt>
      <trkpt lat="44.57754" lon="4.97244">
        <ele>306</ele>
        <time>2012-01-22T08:59:21Z</time>
      </trkpt>
      <trkpt lat="44.57757" lon="4.97238">
        <ele>306</ele>
        <time>2012-01-22T08:59:23Z</time>
      </trkpt>
      <trkpt lat="44.57759" lon="4.97229">
        <ele>306</ele>
        <time>2012-01-22T08:59:26Z</time>
      </trkpt>
      <trkpt lat="44.57761" lon="4.9722">
        <ele>304</ele>
        <time>2012-01-22T08:59:29Z</time>
      </trkpt>
      <trkpt lat="44.57766" lon="4.97213">
        <ele>305</ele>
        <time>2012-01-22T08:59:32Z</time>
      </trkpt>
      <trkpt lat="44.5777" lon="4.97208">
        <ele>306</ele>
        <time>2012-01-22T08:59:34Z</time>
      </trkpt>
      <trkpt lat="44.57772" lon="4.97202">
        <ele>306</ele>
        <time>2012-01-22T08:59:36Z</time>
      </trkpt>
      <trkpt lat="44.57773" lon="4.97194">
        <ele>304</ele>
        <time>2012-01-22T08:59:38Z</time>
      </trkpt>
      <trkpt lat="44.57775" lon="4.97188">
        <ele>305</ele>
        <time>2012-01-22T08:59:40Z</time>
      </trkpt>
      <trkpt lat="44.57776" lon="4.97181">
        <ele>305</ele>
        <time>2012-01-22T08:59:42Z</time>
      </trkpt>
      <trkpt lat="44.57777" lon="4.97172">
        <ele>303</ele>
        <time>2012-01-22T08:59:45Z</time>
      </trkpt>
      <trkpt lat="44.57778" lon="4.97165">
        <ele>303</ele>
        <time>2012-01-22T08:59:47Z</time>
      </trkpt>
      <trkpt lat="44.57778" lon="4.97158">
        <ele>304</ele>
        <time>2012-01-22T08:59:49Z</time>
      </trkpt>
      <trkpt lat="44.57778" lon="4.9715">
        <ele>304</ele>
        <time>2012-01-22T08:59:51Z</time>
      </trkpt>
      <trkpt lat="44.5778" lon="4.97144">
        <ele>305</ele>
        <time>2012-01-22T08:59:53Z</time>
      </trkpt>
      <trkpt lat="44.5778" lon="4.97137">
        <ele>305</ele>
        <time>2012-01-22T08:59:55Z</time>
      </trkpt>
      <trkpt lat="44.57781" lon="4.9713">
        <ele>305</ele>
        <time>2012-01-22T08:59:57Z</time>
      </trkpt>
      <trkpt lat="44.57781" lon="4.97124">
        <ele>306</ele>
        <time>2012-01-22T08:59:59Z</time>
      </trkpt>
      <trkpt lat="44.57784" lon="4.97118">
        <ele>305</ele>
        <time>2012-01-22T09:00:01Z</time>
      </trkpt>
      <trkpt lat="44.57785" lon="4.97109">
        <ele>304</ele>
        <time>2012-01-22T09:00:04Z</time>
      </trkpt>
      <trkpt lat="44.57785" lon="4.97102">
        <ele>304</ele>
        <time>2012-01-22T09:00:06Z</time>
      </trkpt>
      <trkpt lat="44.57786" lon="4.97095">
        <ele>304</ele>
        <time>2012-01-22T09:00:08Z</time>
      </trkpt>
      <trkpt lat="44.57787" lon="4.97086">
        <ele>304</ele>
        <time>2012-01-22T09:00:10Z</time>
      </trkpt>
      <trkpt lat="44.57788" lon="4.97079">
        <ele>304</ele>
        <time>2012-01-22T09:00:12Z</time>
      </trkpt>
      <trkpt lat="44.57789" lon="4.97072">
        <ele>302</ele>
        <time>2012-01-22T09:00:14Z</time>
      </trkpt>
      <trkpt lat="44.5779" lon="4.97064">
        <ele>301</ele>
        <time>2012-01-22T09:00:16Z</time>
      </trkpt>
      <trkpt lat="44.57794" lon="4.97057">
        <ele>301</ele>
        <time>2012-01-22T09:00:19Z</time>
      </trkpt>
      <trkpt lat="44.57796" lon="4.97049">
        <ele>300</ele>
        <time>2012-01-22T09:00:22Z</time>
      </trkpt>
      <trkpt lat="44.57796" lon="4.97042">
        <ele>301</ele>
        <time>2012-01-22T09:00:24Z</time>
      </trkpt>
      <trkpt lat="44.57799" lon="4.97036">
        <ele>300</ele>
        <time>2012-01-22T09:00:26Z</time>
      </trkpt>
      <trkpt lat="44.578" lon="4.97029">
        <ele>299</ele>
        <time>2012-01-22T09:00:28Z</time>
      </trkpt>
      <trkpt lat="44.57803" lon="4.97023">
        <ele>300</ele>
        <time>2012-01-22T09:00:30Z</time>
      </trkpt>
      <trkpt lat="44.57803" lon="4.97015">
        <ele>300</ele>
        <time>2012-01-22T09:00:32Z</time>
      </trkpt>
      <trkpt lat="44.57806" lon="4.9701">
        <ele>300</ele>
        <time>2012-01-22T09:00:34Z</time>
      </trkpt>
      <trkpt lat="44.57807" lon="4.97">
        <ele>300</ele>
        <time>2012-01-22T09:00:37Z</time>
      </trkpt>
      <trkpt lat="44.5781" lon="4.96994">
        <ele>299</ele>
        <time>2012-01-22T09:00:39Z</time>
      </trkpt>
      <trkpt lat="44.57812" lon="4.96985">
        <ele>299</ele>
        <time>2012-01-22T09:00:42Z</time>
      </trkpt>
      <trkpt lat="44.57814" lon="4.96978">
        <ele>299</ele>
        <time>2012-01-22T09:00:45Z</time>
      </trkpt>
      <trkpt lat="44.57815" lon="4.9697">
        <ele>298</ele>
        <time>2012-01-22T09:00:47Z</time>
      </trkpt>
      <trkpt lat="44.57816" lon="4.96963">
        <ele>298</ele>
        <time>2012-01-22T09:00:49Z</time>
      </trkpt>
      <trkpt lat="44.5782" lon="4.96956">
        <ele>299</ele>
        <time>2012-01-22T09:00:51Z</time>
      </trkpt>
      <trkpt lat="44.5782" lon="4.96948">
        <ele>298</ele>
        <time>2012-01-22T09:00:54Z</time>
      </trkpt>
      <trkpt lat="44.57821" lon="4.96942">
        <ele>298</ele>
        <time>2012-01-22T09:00:56Z</time>
      </trkpt>
      <trkpt lat="44.57824" lon="4.96932">
        <ele>297</ele>
        <time>2012-01-22T09:00:59Z</time>
      </trkpt>
      <trkpt lat="44.57825" lon="4.96925">
        <ele>297</ele>
        <time>2012-01-22T09:01:01Z</time>
      </trkpt>
      <trkpt lat="44.57827" lon="4.96918">
        <ele>298</ele>
        <time>2012-01-22T09:01:03Z</time>
      </trkpt>
      <trkpt lat="44.5783" lon="4.96912">
        <ele>298</ele>
        <time>2012-01-22T09:01:05Z</time>
      </trkpt>
      <trkpt lat="44.57832" lon="4.96903">
        <ele>298</ele>
        <time>2012-01-22T09:01:08Z</time>
      </trkpt>
      <trkpt lat="44.57834" lon="4.96896">
        <ele>299</ele>
        <time>2012-01-22T09:01:10Z</time>
      </trkpt>
      <trkpt lat="44.57835" lon="4.96889">
        <ele>298</ele>
        <time>2012-01-22T09:01:12Z</time>
      </trkpt>
      <trkpt lat="44.57836" lon="4.96884">
        <ele>299</ele>
        <time>2012-01-22T09:01:14Z</time>
      </trkpt>
      <trkpt lat="44.57838" lon="4.96874">
        <ele>299</ele>
        <time>2012-01-22T09:01:17Z</time>
      </trkpt>
      <trkpt lat="44.57839" lon="4.96865">
        <ele>298</ele>
        <time>2012-01-22T09:01:20Z</time>
      </trkpt>
      <trkpt lat="44.5784" lon="4.96858">
        <ele>298</ele>
        <time>2012-01-22T09:01:22Z</time>
      </trkpt>
      <trkpt lat="44.57844" lon="4.96853">
        <ele>299</ele>
        <time>2012-01-22T09:01:24Z</time>
      </trkpt>
      <trkpt lat="44.57844" lon="4.96844">
        <ele>298</ele>
        <time>2012-01-22T09:01:27Z</time>
      </trkpt>
      <trkpt lat="44.57846" lon="4.96837">
        <ele>298</ele>
        <time>2012-01-22T09:01:29Z</time>
      </trkpt>
      <trkpt lat="44.57847" lon="4.96829">
        <ele>297</ele>
        <time>2012-01-22T09:01:31Z</time>
      </trkpt>
      <trkpt lat="44.5785" lon="4.96823">
        <ele>298</ele>
        <time>2012-01-22T09:01:33Z</time>
      </trkpt>
      <trkpt lat="44.57852" lon="4.96814">
        <ele>298</ele>
        <time>2012-01-22T09:01:36Z</time>
      </trkpt>
      <trkpt lat="44.57854" lon="4.96807">
        <ele>298</ele>
        <time>2012-01-22T09:01:38Z</time>
      </trkpt>
      <trkpt lat="44.57858" lon="4.96798">
        <ele>297</ele>
        <time>2012-01-22T09:01:41Z</time>
      </trkpt>
      <trkpt lat="44.57859" lon="4.96791">
        <ele>298</ele>
        <time>2012-01-22T09:01:43Z</time>
      </trkpt>
      <trkpt lat="44.5786" lon="4.96785">
        <ele>297</ele>
        <time>2012-01-22T09:01:45Z</time>
      </trkpt>
      <trkpt lat="44.57861" lon="4.96778">
        <ele>298</ele>
        <time>2012-01-22T09:01:47Z</time>
      </trkpt>
      <trkpt lat="44.57864" lon="4.9677">
        <ele>297</ele>
        <time>2012-01-22T09:01:50Z</time>
      </trkpt>
      <trkpt lat="44.57866" lon="4.96764">
        <ele>296</ele>
        <time>2012-01-22T09:01:52Z</time>
      </trkpt>
      <trkpt lat="44.57868" lon="4.96756">
        <ele>296</ele>
        <time>2012-01-22T09:01:54Z</time>
      </trkpt>
      <trkpt lat="44.5787" lon="4.96748">
        <ele>296</ele>
        <time>2012-01-22T09:01:57Z</time>
      </trkpt>
      <trkpt lat="44.57873" lon="4.96741">
        <ele>298</ele>
        <time>2012-01-22T09:01:59Z</time>
      </trkpt>
      <trkpt lat="44.57874" lon="4.96735">
        <ele>297</ele>
        <time>2012-01-22T09:02:01Z</time>
      </trkpt>
      <trkpt lat="44.57876" lon="4.96728">
        <ele>297</ele>
        <time>2012-01-22T09:02:03Z</time>
      </trkpt>
      <trkpt lat="44.57878" lon="4.96722">
        <ele>296</ele>
        <time>2012-01-22T09:02:05Z</time>
      </trkpt>
      <trkpt lat="44.57879" lon="4.96716">
        <ele>296</ele>
        <time>2012-01-22T09:02:07Z</time>
      </trkpt>
      <trkpt lat="44.57882" lon="4.96708">
        <ele>295</ele>
        <time>2012-01-22T09:02:10Z</time>
      </trkpt>
      <trkpt lat="44.57882" lon="4.967">
        <ele>296</ele>
        <time>2012-01-22T09:02:12Z</time>
      </trkpt>
      <trkpt lat="44.57884" lon="4.9669">
        <ele>294</ele>
        <time>2012-01-22T09:02:15Z</time>
      </trkpt>
      <trkpt lat="44.57885" lon="4.96684">
        <ele>294</ele>
        <time>2012-01-22T09:02:17Z</time>
      </trkpt>
      <trkpt lat="44.57887" lon="4.96678">
        <ele>294</ele>
        <time>2012-01-22T09:02:19Z</time>
      </trkpt>
      <trkpt lat="44.57888" lon="4.96669">
        <ele>294</ele>
        <time>2012-01-22T09:02:22Z</time>
      </trkpt>
      <trkpt lat="44.57891" lon="4.96662">
        <ele>294</ele>
        <time>2012-01-22T09:02:24Z</time>
      </trkpt>
      <trkpt lat="44.57894" lon="4.96656">
        <ele>293</ele>
        <time>2012-01-22T09:02:26Z</time>
      </trkpt>
      <trkpt lat="44.57896" lon="4.9665">
        <ele>293</ele>
        <time>2012-01-22T09:02:28Z</time>
      </trkpt>
      <trkpt lat="44.57897" lon="4.96642">
        <ele>294</ele>
        <time>2012-01-22T09:02:31Z</time>
      </trkpt>
      <trkpt lat="44.57899" lon="4.96635">
        <ele>293</ele>
        <time>2012-01-22T09:02:33Z</time>
      </trkpt>
      <trkpt lat="44.57902" lon="4.96628">
        <ele>293</ele>
        <time>2012-01-22T09:02:36Z</time>
      </trkpt>
      <trkpt lat="44.57904" lon="4.96621">
        <ele>294</ele>
        <time>2012-01-22T09:02:38Z</time>
      </trkpt>
      <trkpt lat="44.57905" lon="4.96614">
        <ele>294</ele>
        <time>2012-01-22T09:02:40Z</time>
      </trkpt>
      <trkpt lat="44.57906" lon="4.96607">
        <ele>294</ele>
        <time>2012-01-22T09:02:42Z</time>
      </trkpt>
      <trkpt lat="44.57908" lon="4.96599">
        <ele>294</ele>
        <time>2012-01-22T09:02:45Z</time>
      </trkpt>
      <trkpt lat="44.5791" lon="4.96593">
        <ele>295</ele>
        <time>2012-01-22T09:02:47Z</time>
      </trkpt>
      <trkpt lat="44.57911" lon="4.96586">
        <ele>294</ele>
        <time>2012-01-22T09:02:49Z</time>
      </trkpt>
      <trkpt lat="44.57914" lon="4.96581">
        <ele>294</ele>
        <time>2012-01-22T09:02:51Z</time>
      </trkpt>
      <trkpt lat="44.57917" lon="4.96576">
        <ele>295</ele>
        <time>2012-01-22T09:02:53Z</time>
      </trkpt>
      <trkpt lat="44.57919" lon="4.96569">
        <ele>295</ele>
        <time>2012-01-22T09:02:55Z</time>
      </trkpt>
      <trkpt lat="44.57923" lon="4.96563">
        <ele>295</ele>
        <time>2012-01-22T09:02:58Z</time>
      </trkpt>
      <trkpt lat="44.57928" lon="4.96557">
        <ele>294</ele>
        <time>2012-01-22T09:03:01Z</time>
      </trkpt>
      <trkpt lat="44.57932" lon="4.96551">
        <ele>294</ele>
        <time>2012-01-22T09:03:03Z</time>
      </trkpt>
      <trkpt lat="44.57935" lon="4.96547">
        <ele>294</ele>
        <time>2012-01-22T09:03:05Z</time>
      </trkpt>
      <trkpt lat="44.57939" lon="4.96539">
        <ele>294</ele>
        <time>2012-01-22T09:03:08Z</time>
      </trkpt>
      <trkpt lat="44.57943" lon="4.96533">
        <ele>294</ele>
        <time>2012-01-22T09:03:11Z</time>
      </trkpt>
      <trkpt lat="44.57947" lon="4.96526">
        <ele>295</ele>
        <time>2012-01-22T09:03:13Z</time>
      </trkpt>
      <trkpt lat="44.57952" lon="4.96522">
        <ele>295</ele>
        <time>2012-01-22T09:03:15Z</time>
      </trkpt>
      <trkpt lat="44.57956" lon="4.96516">
        <ele>294</ele>
        <time>2012-01-22T09:03:18Z</time>
      </trkpt>
      <trkpt lat="44.57959" lon="4.96509">
        <ele>293</ele>
        <time>2012-01-22T09:03:21Z</time>
      </trkpt>
      <trkpt lat="44.57961" lon="4.96503">
        <ele>293</ele>
        <time>2012-01-22T09:03:23Z</time>
      </trkpt>
      <trkpt lat="44.57964" lon="4.96498">
        <ele>293</ele>
        <time>2012-01-22T09:03:25Z</time>
      </trkpt>
      <trkpt lat="44.57969" lon="4.96494">
        <ele>293</ele>
        <time>2012-01-22T09:03:28Z</time>
      </trkpt>
      <trkpt lat="44.57975" lon="4.96488">
        <ele>293</ele>
        <time>2012-01-22T09:03:31Z</time>
      </trkpt>
      <trkpt lat="44.57978" lon="4.96481">
        <ele>291</ele>
        <time>2012-01-22T09:03:34Z</time>
      </trkpt>
      <trkpt lat="44.57983" lon="4.96476">
        <ele>291</ele>
        <time>2012-01-22T09:03:37Z</time>
      </trkpt>
      <trkpt lat="44.57987" lon="4.96469">
        <ele>291</ele>
        <time>2012-01-22T09:03:40Z</time>
      </trkpt>
      <trkpt lat="44.57991" lon="4.96464">
        <ele>291</ele>
        <time>2012-01-22T09:03:42Z</time>
      </trkpt>
      <trkpt lat="44.57996" lon="4.9646">
        <ele>290</ele>
        <time>2012-01-22T09:03:44Z</time>
      </trkpt>
      <trkpt lat="44.58" lon="4.96456">
        <ele>290</ele>
        <time>2012-01-22T09:03:47Z</time>
      </trkpt>
      <trkpt lat="44.58006" lon="4.96454">
        <ele>290</ele>
        <time>2012-01-22T09:03:49Z</time>
      </trkpt>
      <trkpt lat="44.58008" lon="4.96448">
        <ele>290</ele>
        <time>2012-01-22T09:03:51Z</time>
      </trkpt>
      <trkpt lat="44.58013" lon="4.96445">
        <ele>289</ele>
        <time>2012-01-22T09:03:53Z</time>
      </trkpt>
      <trkpt lat="44.58016" lon="4.96441">
        <ele>289</ele>
        <time>2012-01-22T09:03:55Z</time>
      </trkpt>
      <trkpt lat="44.58022" lon="4.96437">
        <ele>289</ele>
        <time>2012-01-22T09:03:58Z</time>
      </trkpt>
      <trkpt lat="44.58024" lon="4.96431">
        <ele>289</ele>
        <time>2012-01-22T09:04:00Z</time>
      </trkpt>
      <trkpt lat="44.58028" lon="4.96425">
        <ele>289</ele>
        <time>2012-01-22T09:04:02Z</time>
      </trkpt>
      <trkpt lat="44.58033" lon="4.96419">
        <ele>289</ele>
        <time>2012-01-22T09:04:05Z</time>
      </trkpt>
      <trkpt lat="44.58037" lon="4.96416">
        <ele>290</ele>
        <time>2012-01-22T09:04:07Z</time>
      </trkpt>
      <trkpt lat="44.58041" lon="4.96411">
        <ele>289</ele>
        <time>2012-01-22T09:04:09Z</time>
      </trkpt>
      <trkpt lat="44.58045" lon="4.96406">
        <ele>289</ele>
        <time>2012-01-22T09:04:12Z</time>
      </trkpt>
      <trkpt lat="44.58049" lon="4.96402">
        <ele>290</ele>
        <time>2012-01-22T09:04:14Z</time>
      </trkpt>
      <trkpt lat="44.58053" lon="4.96397">
        <ele>290</ele>
        <time>2012-01-22T09:04:16Z</time>
      </trkpt>
      <trkpt lat="44.58056" lon="4.96392">
        <ele>290</ele>
        <time>2012-01-22T09:04:18Z</time>
      </trkpt>
      <trkpt lat="44.5806" lon="4.96387">
        <ele>291</ele>
        <time>2012-01-22T09:04:20Z</time>
      </trkpt>
      <trkpt lat="44.58065" lon="4.9638">
        <ele>290</ele>
        <time>2012-01-22T09:04:23Z</time>
      </trkpt>
      <trkpt lat="44.58068" lon="4.96376">
        <ele>291</ele>
        <time>2012-01-22T09:04:25Z</time>
      </trkpt>
      <trkpt lat="44.58072" lon="4.9637">
        <ele>289</ele>
        <time>2012-01-22T09:04:28Z</time>
      </trkpt>
      <trkpt lat="44.58076" lon="4.96364">
        <ele>288</ele>
        <time>2012-01-22T09:04:31Z</time>
      </trkpt>
      <trkpt lat="44.58081" lon="4.9636">
        <ele>288</ele>
        <time>2012-01-22T09:04:33Z</time>
      </trkpt>
      <trkpt lat="44.58085" lon="4.96356">
        <ele>287</ele>
        <time>2012-01-22T09:04:35Z</time>
      </trkpt>
      <trkpt lat="44.58089" lon="4.96352">
        <ele>286</ele>
        <time>2012-01-22T09:04:37Z</time>
      </trkpt>
      <trkpt lat="44.58094" lon="4.96347">
        <ele>287</ele>
        <time>2012-01-22T09:04:40Z</time>
      </trkpt>
      <trkpt lat="44.58098" lon="4.9634">
        <ele>287</ele>
        <time>2012-01-22T09:04:43Z</time>
      </trkpt>
      <trkpt lat="44.58103" lon="4.96334">
        <ele>287</ele>
        <time>2012-01-22T09:04:46Z</time>
      </trkpt>
      <trkpt lat="44.58108" lon="4.96327">
        <ele>286</ele>
        <time>2012-01-22T09:04:49Z</time>
      </trkpt>
      <trkpt lat="44.58112" lon="4.96322">
        <ele>287</ele>
        <time>2012-01-22T09:04:51Z</time>
      </trkpt>
      <trkpt lat="44.58116" lon="4.96317">
        <ele>286</ele>
        <time>2012-01-22T09:04:53Z</time>
      </trkpt>
      <trkpt lat="44.5812" lon="4.96314">
        <ele>286</ele>
        <time>2012-01-22T09:04:55Z</time>
      </trkpt>
      <trkpt lat="44.58124" lon="4.96311">
        <ele>286</ele>
        <time>2012-01-22T09:04:57Z</time>
      </trkpt>
      <trkpt lat="44.5813" lon="4.96307">
        <ele>287</ele>
        <time>2012-01-22T09:05:00Z</time>
      </trkpt>
      <trkpt lat="44.58136" lon="4.96301">
        <ele>287</ele>
        <time>2012-01-22T09:05:03Z</time>
      </trkpt>
      <trkpt lat="44.58141" lon="4.96294">
        <ele>287</ele>
        <time>2012-01-22T09:05:06Z</time>
      </trkpt>
      <trkpt lat="44.58145" lon="4.96289">
        <ele>287</ele>
        <time>2012-01-22T09:05:08Z</time>
      </trkpt>
      <trkpt lat="44.58149" lon="4.96283">
        <ele>285</ele>
        <time>2012-01-22T09:05:11Z</time>
      </trkpt>
      <trkpt lat="44.58155" lon="4.96276">
        <ele>285</ele>
        <time>2012-01-22T09:05:14Z</time>
      </trkpt>
      <trkpt lat="44.58159" lon="4.96271">
        <ele>285</ele>
        <time>2012-01-22T09:05:16Z</time>
      </trkpt>
      <trkpt lat="44.58161" lon="4.96266">
        <ele>284</ele>
        <time>2012-01-22T09:05:18Z</time>
      </trkpt>
      <trkpt lat="44.58166" lon="4.96261">
        <ele>284</ele>
        <time>2012-01-22T09:05:20Z</time>
      </trkpt>
      <trkpt lat="44.58169" lon="4.96254">
        <ele>284</ele>
        <time>2012-01-22T09:05:22Z</time>
      </trkpt>
      <trkpt lat="44.58174" lon="4.96249">
        <ele>282</ele>
        <time>2012-01-22T09:05:25Z</time>
      </trkpt>
      <trkpt lat="44.58177" lon="4.96244">
        <ele>282</ele>
        <time>2012-01-22T09:05:27Z</time>
      </trkpt>
      <trkpt lat="44.58183" lon="4.96236">
        <ele>283</ele>
        <time>2012-01-22T09:05:30Z</time>
      </trkpt>
      <trkpt lat="44.5819" lon="4.96233">
        <ele>286</ele>
        <time>2012-01-22T09:05:32Z</time>
      </trkpt>
      <trkpt lat="44.58193" lon="4.96227">
        <ele>286</ele>
        <time>2012-01-22T09:05:35Z</time>
      </trkpt>
      <trkpt lat="44.58197" lon="4.96222">
        <ele>285</ele>
        <time>2012-01-22T09:05:37Z</time>
      </trkpt>
      <trkpt lat="44.58202" lon="4.96216">
        <ele>285</ele>
        <time>2012-01-22T09:05:40Z</time>
      </trkpt>
      <trkpt lat="44.58206" lon="4.9621">
        <ele>284</ele>
        <time>2012-01-22T09:05:42Z</time>
      </trkpt>
      <trkpt lat="44.58211" lon="4.96204">
        <ele>284</ele>
        <time>2012-01-22T09:05:44Z</time>
      </trkpt>
      <trkpt lat="44.58215" lon="4.96201">
        <ele>284</ele>
        <time>2012-01-22T09:05:46Z</time>
      </trkpt>
      <trkpt lat="44.5822" lon="4.96197">
        <ele>284</ele>
        <time>2012-01-22T09:05:49Z</time>
      </trkpt>
      <trkpt lat="44.58225" lon="4.96192">
        <ele>283</ele>
        <time>2012-01-22T09:05:52Z</time>
      </trkpt>
      <trkpt lat="44.58228" lon="4.96186">
        <ele>282</ele>
        <time>2012-01-22T09:05:54Z</time>
      </trkpt>
      <trkpt lat="44.58232" lon="4.96182">
        <ele>281</ele>
        <time>2012-01-22T09:05:56Z</time>
      </trkpt>
      <trkpt lat="44.58237" lon="4.96178">
        <ele>282</ele>
        <time>2012-01-22T09:05:58Z</time>
      </trkpt>
      <trkpt lat="44.58241" lon="4.96172">
        <ele>282</ele>
        <time>2012-01-22T09:06:00Z</time>
      </trkpt>
      <trkpt lat="44.58245" lon="4.96167">
        <ele>283</ele>
        <time>2012-01-22T09:06:02Z</time>
      </trkpt>
      <trkpt lat="44.58249" lon="4.96162">
        <ele>283</ele>
        <time>2012-01-22T09:06:04Z</time>
      </trkpt>
      <trkpt lat="44.58254" lon="4.96155">
        <ele>282</ele>
        <time>2012-01-22T09:06:07Z</time>
      </trkpt>
      <trkpt lat="44.58259" lon="4.9615">
        <ele>281</ele>
        <time>2012-01-22T09:06:09Z</time>
      </trkpt>
      <trkpt lat="44.58263" lon="4.96146">
        <ele>281</ele>
        <time>2012-01-22T09:06:11Z</time>
      </trkpt>
      <trkpt lat="44.58267" lon="4.96142">
        <ele>280</ele>
        <time>2012-01-22T09:06:13Z</time>
      </trkpt>
      <trkpt lat="44.58272" lon="4.96135">
        <ele>280</ele>
        <time>2012-01-22T09:06:16Z</time>
      </trkpt>
      <trkpt lat="44.58276" lon="4.9613">
        <ele>280</ele>
        <time>2012-01-22T09:06:18Z</time>
      </trkpt>
      <trkpt lat="44.5828" lon="4.96126">
        <ele>279</ele>
        <time>2012-01-22T09:06:20Z</time>
      </trkpt>
      <trkpt lat="44.58284" lon="4.96121">
        <ele>280</ele>
        <time>2012-01-22T09:06:22Z</time>
      </trkpt>
      <trkpt lat="44.58288" lon="4.96115">
        <ele>280</ele>
        <time>2012-01-22T09:06:25Z</time>
      </trkpt>
      <trkpt lat="44.58294" lon="4.96109">
        <ele>280</ele>
        <time>2012-01-22T09:06:28Z</time>
      </trkpt>
      <trkpt lat="44.58299" lon="4.96105">
        <ele>280</ele>
        <time>2012-01-22T09:06:30Z</time>
      </trkpt>
      <trkpt lat="44.58303" lon="4.961">
        <ele>280</ele>
        <time>2012-01-22T09:06:32Z</time>
      </trkpt>
      <trkpt lat="44.58307" lon="4.96095">
        <ele>280</ele>
        <time>2012-01-22T09:06:34Z</time>
      </trkpt>
      <trkpt lat="44.58312" lon="4.96091">
        <ele>279</ele>
        <time>2012-01-22T09:06:36Z</time>
      </trkpt>
      <trkpt lat="44.58318" lon="4.96085">
        <ele>280</ele>
        <time>2012-01-22T09:06:39Z</time>
      </trkpt>
      <trkpt lat="44.58322" lon="4.96081">
        <ele>280</ele>
        <time>2012-01-22T09:06:41Z</time>
      </trkpt>
      <trkpt lat="44.58326" lon="4.96078">
        <ele>281</ele>
        <time>2012-01-22T09:06:43Z</time>
      </trkpt>
      <trkpt lat="44.58331" lon="4.96074">
        <ele>281</ele>
        <time>2012-01-22T09:06:45Z</time>
      </trkpt>
      <trkpt lat="44.58336" lon="4.96068">
        <ele>281</ele>
        <time>2012-01-22T09:06:48Z</time>
      </trkpt>
      <trkpt lat="44.58342" lon="4.96062">
        <ele>281</ele>
        <time>2012-01-22T09:06:51Z</time>
      </trkpt>
      <trkpt lat="44.58347" lon="4.96057">
        <ele>280</ele>
        <time>2012-01-22T09:06:54Z</time>
      </trkpt>
      <trkpt lat="44.58351" lon="4.96055">
        <ele>279</ele>
        <time>2012-01-22T09:06:56Z</time>
      </trkpt>
      <trkpt lat="44.58356" lon="4.96053">
        <ele>279</ele>
        <time>2012-01-22T09:06:58Z</time>
      </trkpt>
      <trkpt lat="44.5836" lon="4.9605">
        <ele>279</ele>
        <time>2012-01-22T09:07:00Z</time>
      </trkpt>
      <trkpt lat="44.58365" lon="4.96048">
        <ele>279</ele>
        <time>2012-01-22T09:07:02Z</time>
      </trkpt>
      <trkpt lat="44.5837" lon="4.96045">
        <ele>279</ele>
        <time>2012-01-22T09:07:04Z</time>
      </trkpt>
      <trkpt lat="44.58374" lon="4.96043">
        <ele>278</ele>
        <time>2012-01-22T09:07:06Z</time>
      </trkpt>
      <trkpt lat="44.5838" lon="4.9604">
        <ele>279</ele>
        <time>2012-01-22T09:07:09Z</time>
      </trkpt>
      <trkpt lat="44.58385" lon="4.96038">
        <ele>279</ele>
        <time>2012-01-22T09:07:11Z</time>
      </trkpt>
      <trkpt lat="44.58389" lon="4.96034">
        <ele>279</ele>
        <time>2012-01-22T09:07:13Z</time>
      </trkpt>
      <trkpt lat="44.58394" lon="4.96032">
        <ele>279</ele>
        <time>2012-01-22T09:07:15Z</time>
      </trkpt>
      <trkpt lat="44.58399" lon="4.96029">
        <ele>279</ele>
        <time>2012-01-22T09:07:17Z</time>
      </trkpt>
      <trkpt lat="44.58404" lon="4.96026">
        <ele>278</ele>
        <time>2012-01-22T09:07:19Z</time>
      </trkpt>
      <trkpt lat="44.58408" lon="4.96024">
        <ele>278</ele>
        <time>2012-01-22T09:07:21Z</time>
      </trkpt>
      <trkpt lat="44.58413" lon="4.96021">
        <ele>279</ele>
        <time>2012-01-22T09:07:23Z</time>
      </trkpt>
      <trkpt lat="44.58418" lon="4.96019">
        <ele>279</ele>
        <time>2012-01-22T09:07:25Z</time>
      </trkpt>
      <trkpt lat="44.58422" lon="4.96017">
        <ele>279</ele>
        <time>2012-01-22T09:07:27Z</time>
      </trkpt>
      <trkpt lat="44.58426" lon="4.96013">
        <ele>279</ele>
        <time>2012-01-22T09:07:29Z</time>
      </trkpt>
      <trkpt lat="44.5843" lon="4.9601">
        <ele>279</ele>
        <time>2012-01-22T09:07:31Z</time>
      </trkpt>
      <trkpt lat="44.58435" lon="4.96008">
        <ele>280</ele>
        <time>2012-01-22T09:07:33Z</time>
      </trkpt>
      <trkpt lat="44.5844" lon="4.96004">
        <ele>279</ele>
        <time>2012-01-22T09:07:35Z</time>
      </trkpt>
      <trkpt lat="44.58444" lon="4.96001">
        <ele>279</ele>
        <time>2012-01-22T09:07:37Z</time>
      </trkpt>
      <trkpt lat="44.58449" lon="4.95999">
        <ele>278</ele>
        <time>2012-01-22T09:07:39Z</time>
      </trkpt>
      <trkpt lat="44.58453" lon="4.95997">
        <ele>279</ele>
        <time>2012-01-22T09:07:41Z</time>
      </trkpt>
      <trkpt lat="44.5846" lon="4.95992">
        <ele>279</ele>
        <time>2012-01-22T09:07:44Z</time>
      </trkpt>
      <trkpt lat="44.58465" lon="4.95989">
        <ele>278</ele>
        <time>2012-01-22T09:07:47Z</time>
      </trkpt>
      <trkpt lat="44.58469" lon="4.95986">
        <ele>278</ele>
        <time>2012-01-22T09:07:49Z</time>
      </trkpt>
      <trkpt lat="44.58474" lon="4.95983">
        <ele>278</ele>
        <time>2012-01-22T09:07:52Z</time>
      </trkpt>
      <trkpt lat="44.58479" lon="4.95979">
        <ele>275</ele>
        <time>2012-01-22T09:07:55Z</time>
      </trkpt>
      <trkpt lat="44.58485" lon="4.95974">
        <ele>275</ele>
        <time>2012-01-22T09:07:58Z</time>
      </trkpt>
      <trkpt lat="44.58491" lon="4.9597">
        <ele>276</ele>
        <time>2012-01-22T09:08:01Z</time>
      </trkpt>
      <trkpt lat="44.58496" lon="4.95968">
        <ele>276</ele>
        <time>2012-01-22T09:08:03Z</time>
      </trkpt>
      <trkpt lat="44.58502" lon="4.95965">
        <ele>276</ele>
        <time>2012-01-22T09:08:06Z</time>
      </trkpt>
      <trkpt lat="44.58507" lon="4.95963">
        <ele>276</ele>
        <time>2012-01-22T09:08:08Z</time>
      </trkpt>
      <trkpt lat="44.58512" lon="4.95959">
        <ele>275</ele>
        <time>2012-01-22T09:08:11Z</time>
      </trkpt>
      <trkpt lat="44.58517" lon="4.95955">
        <ele>276</ele>
        <time>2012-01-22T09:08:13Z</time>
      </trkpt>
      <trkpt lat="44.58523" lon="4.95951">
        <ele>276</ele>
        <time>2012-01-22T09:08:16Z</time>
      </trkpt>
      <trkpt lat="44.58528" lon="4.95948">
        <ele>276</ele>
        <time>2012-01-22T09:08:18Z</time>
      </trkpt>
      <trkpt lat="44.58533" lon="4.95947">
        <ele>276</ele>
        <time>2012-01-22T09:08:20Z</time>
      </trkpt>
      <trkpt lat="44.58538" lon="4.95945">
        <ele>276</ele>
        <time>2012-01-22T09:08:22Z</time>
      </trkpt>
      <trkpt lat="44.58543" lon="4.95942">
        <ele>277</ele>
        <time>2012-01-22T09:08:24Z</time>
      </trkpt>
      <trkpt lat="44.58548" lon="4.95939">
        <ele>274</ele>
        <time>2012-01-22T09:08:27Z</time>
      </trkpt>
      <trkpt lat="44.58553" lon="4.95936">
        <ele>275</ele>
        <time>2012-01-22T09:08:30Z</time>
      </trkpt>
      <trkpt lat="44.58558" lon="4.95933">
        <ele>276</ele>
        <time>2012-01-22T09:08:33Z</time>
      </trkpt>
      <trkpt lat="44.58564" lon="4.95928">
        <ele>275</ele>
        <time>2012-01-22T09:08:36Z</time>
      </trkpt>
      <trkpt lat="44.5857" lon="4.95924">
        <ele>276</ele>
        <time>2012-01-22T09:08:39Z</time>
      </trkpt>
      <trkpt lat="44.58575" lon="4.9592">
        <ele>276</ele>
        <time>2012-01-22T09:08:42Z</time>
      </trkpt>
      <trkpt lat="44.58579" lon="4.95916">
        <ele>277</ele>
        <time>2012-01-22T09:08:44Z</time>
      </trkpt>
      <trkpt lat="44.58583" lon="4.9591">
        <ele>276</ele>
        <time>2012-01-22T09:08:47Z</time>
      </trkpt>
      <trkpt lat="44.58589" lon="4.95904">
        <ele>276</ele>
        <time>2012-01-22T09:08:50Z</time>
      </trkpt>
      <trkpt lat="44.58594" lon="4.959">
        <ele>275</ele>
        <time>2012-01-22T09:08:53Z</time>
      </trkpt>
      <trkpt lat="44.58599" lon="4.95895">
        <ele>272</ele>
        <time>2012-01-22T09:08:56Z</time>
      </trkpt>
      <trkpt lat="44.58603" lon="4.95889">
        <ele>271</ele>
        <time>2012-01-22T09:08:59Z</time>
      </trkpt>
      <trkpt lat="44.58607" lon="4.95885">
        <ele>272</ele>
        <time>2012-01-22T09:09:01Z</time>
      </trkpt>
      <trkpt lat="44.58611" lon="4.9588">
        <ele>272</ele>
        <time>2012-01-22T09:09:03Z</time>
      </trkpt>
      <trkpt lat="44.58616" lon="4.95877">
        <ele>272</ele>
        <time>2012-01-22T09:09:06Z</time>
      </trkpt>
      <trkpt lat="44.58619" lon="4.95872">
        <ele>271</ele>
        <time>2012-01-22T09:09:08Z</time>
      </trkpt>
      <trkpt lat="44.58624" lon="4.95868">
        <ele>271</ele>
        <time>2012-01-22T09:09:10Z</time>
      </trkpt>
      <trkpt lat="44.58627" lon="4.95864">
        <ele>270</ele>
        <time>2012-01-22T09:09:12Z</time>
      </trkpt>
      <trkpt lat="44.58632" lon="4.9586">
        <ele>269</ele>
        <time>2012-01-22T09:09:15Z</time>
      </trkpt>
      <trkpt lat="44.58636" lon="4.95857">
        <ele>271</ele>
        <time>2012-01-22T09:09:17Z</time>
      </trkpt>
      <trkpt lat="44.58641" lon="4.95851">
        <ele>271</ele>
        <time>2012-01-22T09:09:20Z</time>
      </trkpt>
      <trkpt lat="44.58647" lon="4.95845">
        <ele>271</ele>
        <time>2012-01-22T09:09:23Z</time>
      </trkpt>
      <trkpt lat="44.5865" lon="4.95842">
        <ele>271</ele>
        <time>2012-01-22T09:09:25Z</time>
      </trkpt>
      <trkpt lat="44.58655" lon="4.95836">
        <ele>271</ele>
        <time>2012-01-22T09:09:28Z</time>
      </trkpt>
      <trkpt lat="44.5866" lon="4.95832">
        <ele>271</ele>
        <time>2012-01-22T09:09:30Z</time>
      </trkpt>
      <trkpt lat="44.58665" lon="4.95826">
        <ele>272</ele>
        <time>2012-01-22T09:09:33Z</time>
      </trkpt>
      <trkpt lat="44.58671" lon="4.95821">
        <ele>273</ele>
        <time>2012-01-22T09:09:36Z</time>
      </trkpt>
      <trkpt lat="44.58675" lon="4.95818">
        <ele>273</ele>
        <time>2012-01-22T09:09:38Z</time>
      </trkpt>
      <trkpt lat="44.58678" lon="4.95814">
        <ele>273</ele>
        <time>2012-01-22T09:09:40Z</time>
      </trkpt>
      <trkpt lat="44.58682" lon="4.9581">
        <ele>273</ele>
        <time>2012-01-22T09:09:42Z</time>
      </trkpt>
      <trkpt lat="44.58688" lon="4.95804">
        <ele>273</ele>
        <time>2012-01-22T09:09:45Z</time>
      </trkpt>
      <trkpt lat="44.58692" lon="4.958">
        <ele>273</ele>
        <time>2012-01-22T09:09:47Z</time>
      </trkpt>
      <trkpt lat="44.58697" lon="4.95795">
        <ele>273</ele>
        <time>2012-01-22T09:09:49Z</time>
      </trkpt>
      <trkpt lat="44.58701" lon="4.95789">
        <ele>273</ele>
        <time>2012-01-22T09:09:52Z</time>
      </trkpt>
      <trkpt lat="44.58705" lon="4.95784">
        <ele>273</ele>
        <time>2012-01-22T09:09:54Z</time>
      </trkpt>
      <trkpt lat="44.5871" lon="4.9578">
        <ele>273</ele>
        <time>2012-01-22T09:09:56Z</time>
      </trkpt>
      <trkpt lat="44.58713" lon="4.95773">
        <ele>274</ele>
        <time>2012-01-22T09:09:59Z</time>
      </trkpt>
      <trkpt lat="44.58716" lon="4.95767">
        <ele>275</ele>
        <time>2012-01-22T09:10:02Z</time>
      </trkpt>
      <trkpt lat="44.58722" lon="4.95763">
        <ele>275</ele>
        <time>2012-01-22T09:10:04Z</time>
      </trkpt>
      <trkpt lat="44.58725" lon="4.95756">
        <ele>275</ele>
        <time>2012-01-22T09:10:06Z</time>
      </trkpt>
      <trkpt lat="44.5873" lon="4.9575">
        <ele>276</ele>
        <time>2012-01-22T09:10:09Z</time>
      </trkpt>
      <trkpt lat="44.58733" lon="4.95744">
        <ele>276</ele>
        <time>2012-01-22T09:10:11Z</time>
      </trkpt>
      <trkpt lat="44.58736" lon="4.95739">
        <ele>275</ele>
        <time>2012-01-22T09:10:13Z</time>
      </trkpt>
      <trkpt lat="44.58741" lon="4.95735">
        <ele>277</ele>
        <time>2012-01-22T09:10:16Z</time>
      </trkpt>
      <trkpt lat="44.58745" lon="4.95727">
        <ele>276</ele>
        <time>2012-01-22T09:10:19Z</time>
      </trkpt>
      <trkpt lat="44.58748" lon="4.95721">
        <ele>276</ele>
        <time>2012-01-22T09:10:21Z</time>
      </trkpt>
      <trkpt lat="44.58753" lon="4.95715">
        <ele>276</ele>
        <time>2012-01-22T09:10:24Z</time>
      </trkpt>
      <trkpt lat="44.58757" lon="4.95711">
        <ele>275</ele>
        <time>2012-01-22T09:10:26Z</time>
      </trkpt>
      <trkpt lat="44.58762" lon="4.95706">
        <ele>275</ele>
        <time>2012-01-22T09:10:29Z</time>
      </trkpt>
      <trkpt lat="44.58766" lon="4.95702">
        <ele>275</ele>
        <time>2012-01-22T09:10:31Z</time>
      </trkpt>
      <trkpt lat="44.58771" lon="4.95696">
        <ele>275</ele>
        <time>2012-01-22T09:10:34Z</time>
      </trkpt>
      <trkpt lat="44.58775" lon="4.95689">
        <ele>275</ele>
        <time>2012-01-22T09:10:37Z</time>
      </trkpt>
      <trkpt lat="44.5878" lon="4.95683">
        <ele>276</ele>
        <time>2012-01-22T09:10:39Z</time>
      </trkpt>
      <trkpt lat="44.58784" lon="4.95679">
        <ele>276</ele>
        <time>2012-01-22T09:10:41Z</time>
      </trkpt>
      <trkpt lat="44.58787" lon="4.95674">
        <ele>275</ele>
        <time>2012-01-22T09:10:43Z</time>
      </trkpt>
      <trkpt lat="44.58793" lon="4.95668">
        <ele>277</ele>
        <time>2012-01-22T09:10:45Z</time>
      </trkpt>
      <trkpt lat="44.58797" lon="4.95664">
        <ele>278</ele>
        <time>2012-01-22T09:10:47Z</time>
      </trkpt>
      <trkpt lat="44.58801" lon="4.95659">
        <ele>278</ele>
        <time>2012-01-22T09:10:50Z</time>
      </trkpt>
      <trkpt lat="44.58804" lon="4.95655">
        <ele>277</ele>
        <time>2012-01-22T09:10:52Z</time>
      </trkpt>
      <trkpt lat="44.58809" lon="4.9565">
        <ele>277</ele>
        <time>2012-01-22T09:10:55Z</time>
      </trkpt>
      <trkpt lat="44.58812" lon="4.95646">
        <ele>277</ele>
        <time>2012-01-22T09:10:57Z</time>
      </trkpt>
      <trkpt lat="44.58817" lon="4.95641">
        <ele>277</ele>
        <time>2012-01-22T09:11:00Z</time>
      </trkpt>
      <trkpt lat="44.58822" lon="4.95636">
        <ele>278</ele>
        <time>2012-01-22T09:11:03Z</time>
      </trkpt>
      <trkpt lat="44.58827" lon="4.9563">
        <ele>278</ele>
        <time>2012-01-22T09:11:06Z</time>
      </trkpt>
      <trkpt lat="44.58831" lon="4.95624">
        <ele>279</ele>
        <time>2012-01-22T09:11:09Z</time>
      </trkpt>
      <trkpt lat="44.58836" lon="4.95619">
        <ele>279</ele>
        <time>2012-01-22T09:11:12Z</time>
      </trkpt>
      <trkpt lat="44.5884" lon="4.95615">
        <ele>279</ele>
        <time>2012-01-22T09:11:14Z</time>
      </trkpt>
      <trkpt lat="44.58844" lon="4.95612">
        <ele>279</ele>
        <time>2012-01-22T09:11:16Z</time>
      </trkpt>
      <trkpt lat="44.58848" lon="4.95607">
        <ele>279</ele>
        <time>2012-01-22T09:11:19Z</time>
      </trkpt>
      <trkpt lat="44.58844" lon="4.95614">
        <ele>278</ele>
        <time>2012-01-22T09:11:26Z</time>
      </trkpt>
      <trkpt lat="44.5884" lon="4.95618">
        <ele>277</ele>
        <time>2012-01-22T09:11:29Z</time>
      </trkpt>
      <trkpt lat="44.58836" lon="4.95622">
        <ele>277</ele>
        <time>2012-01-22T09:11:31Z</time>
      </trkpt>
      <trkpt lat="44.58832" lon="4.95626">
        <ele>276</ele>
        <time>2012-01-22T09:11:33Z</time>
      </trkpt>
      <trkpt lat="44.58828" lon="4.95631">
        <ele>277</ele>
        <time>2012-01-22T09:11:36Z</time>
      </trkpt>
      <trkpt lat="44.58823" lon="4.95636">
        <ele>276</ele>
        <time>2012-01-22T09:11:39Z</time>
      </trkpt>
      <trkpt lat="44.58818" lon="4.95642">
        <ele>277</ele>
        <time>2012-01-22T09:11:42Z</time>
      </trkpt>
      <trkpt lat="44.58814" lon="4.95645">
        <ele>277</ele>
        <time>2012-01-22T09:11:45Z</time>
      </trkpt>
      <trkpt lat="44.5881" lon="4.9565">
        <ele>279</ele>
        <time>2012-01-22T09:11:49Z</time>
      </trkpt>
      <trkpt lat="44.58805" lon="4.95656">
        <ele>279</ele>
        <time>2012-01-22T09:11:52Z</time>
      </trkpt>
      <trkpt lat="44.58801" lon="4.95661">
        <ele>279</ele>
        <time>2012-01-22T09:11:54Z</time>
      </trkpt>
      <trkpt lat="44.58795" lon="4.95667">
        <ele>280</ele>
        <time>2012-01-22T09:11:57Z</time>
      </trkpt>
      <trkpt lat="44.5879" lon="4.95672">
        <ele>280</ele>
        <time>2012-01-22T09:12:00Z</time>
      </trkpt>
      <trkpt lat="44.58786" lon="4.95678">
        <ele>280</ele>
        <time>2012-01-22T09:12:03Z</time>
      </trkpt>
      <trkpt lat="44.58782" lon="4.95682">
        <ele>280</ele>
        <time>2012-01-22T09:12:05Z</time>
      </trkpt>
      <trkpt lat="44.58777" lon="4.95688">
        <ele>280</ele>
        <time>2012-01-22T09:12:08Z</time>
      </trkpt>
      <trkpt lat="44.58773" lon="4.95694">
        <ele>281</ele>
        <time>2012-01-22T09:12:11Z</time>
      </trkpt>
      <trkpt lat="44.58769" lon="4.95697">
        <ele>281</ele>
        <time>2012-01-22T09:12:13Z</time>
      </trkpt>
      <trkpt lat="44.58765" lon="4.95701">
        <ele>281</ele>
        <time>2012-01-22T09:12:15Z</time>
      </trkpt>
      <trkpt lat="44.58759" lon="4.95705">
        <ele>281</ele>
        <time>2012-01-22T09:12:18Z</time>
      </trkpt>
      <trkpt lat="44.58754" lon="4.95711">
        <ele>280</ele>
        <time>2012-01-22T09:12:21Z</time>
      </trkpt>
      <trkpt lat="44.58751" lon="4.95715">
        <ele>281</ele>
        <time>2012-01-22T09:12:23Z</time>
      </trkpt>
      <trkpt lat="44.58746" lon="4.95721">
        <ele>282</ele>
        <time>2012-01-22T09:12:26Z</time>
      </trkpt>
      <trkpt lat="44.58743" lon="4.95726">
        <ele>281</ele>
        <time>2012-01-22T09:12:28Z</time>
      </trkpt>
      <trkpt lat="44.58739" lon="4.95732">
        <ele>281</ele>
        <time>2012-01-22T09:12:31Z</time>
      </trkpt>
      <trkpt lat="44.58735" lon="4.95736">
        <ele>280</ele>
        <time>2012-01-22T09:12:34Z</time>
      </trkpt>
      <trkpt lat="44.5873" lon="4.95742">
        <ele>280</ele>
        <time>2012-01-22T09:12:37Z</time>
      </trkpt>
      <trkpt lat="44.58726" lon="4.95749">
        <ele>279</ele>
        <time>2012-01-22T09:12:40Z</time>
      </trkpt>
      <trkpt lat="44.58722" lon="4.95755">
        <ele>279</ele>
        <time>2012-01-22T09:12:42Z</time>
      </trkpt>
      <trkpt lat="44.58719" lon="4.95762">
        <ele>278</ele>
        <time>2012-01-22T09:12:45Z</time>
      </trkpt>
      <trkpt lat="44.58715" lon="4.95767">
        <ele>279</ele>
        <time>2012-01-22T09:12:47Z</time>
      </trkpt>
      <trkpt lat="44.58711" lon="4.95774">
        <ele>279</ele>
        <time>2012-01-22T09:12:50Z</time>
      </trkpt>
      <trkpt lat="44.58707" lon="4.95779">
        <ele>278</ele>
        <time>2012-01-22T09:12:52Z</time>
      </trkpt>
      <trkpt lat="44.58703" lon="4.95786">
        <ele>279</ele>
        <time>2012-01-22T09:12:55Z</time>
      </trkpt>
      <trkpt lat="44.58699" lon="4.95792">
        <ele>278</ele>
        <time>2012-01-22T09:12:58Z</time>
      </trkpt>
      <trkpt lat="44.58694" lon="4.95799">
        <ele>278</ele>
        <time>2012-01-22T09:13:01Z</time>
      </trkpt>
      <trkpt lat="44.5869" lon="4.95805">
        <ele>278</ele>
        <time>2012-01-22T09:13:03Z</time>
      </trkpt>
      <trkpt lat="44.58685" lon="4.9581">
        <ele>278</ele>
        <time>2012-01-22T09:13:05Z</time>
      </trkpt>
      <trkpt lat="44.5868" lon="4.95813">
        <ele>278</ele>
        <time>2012-01-22T09:13:08Z</time>
      </trkpt>
      <trkpt lat="44.58676" lon="4.95816">
        <ele>278</ele>
        <time>2012-01-22T09:13:10Z</time>
      </trkpt>
      <trkpt lat="44.58671" lon="4.95822">
        <ele>278</ele>
        <time>2012-01-22T09:13:13Z</time>
      </trkpt>
      <trkpt lat="44.58667" lon="4.95826">
        <ele>279</ele>
        <time>2012-01-22T09:13:16Z</time>
      </trkpt>
      <trkpt lat="44.58662" lon="4.95832">
        <ele>279</ele>
        <time>2012-01-22T09:13:19Z</time>
      </trkpt>
      <trkpt lat="44.58656" lon="4.95837">
        <ele>279</ele>
        <time>2012-01-22T09:13:22Z</time>
      </trkpt>
      <trkpt lat="44.58652" lon="4.95842">
        <ele>278</ele>
        <time>2012-01-22T09:13:25Z</time>
      </trkpt>
      <trkpt lat="44.58648" lon="4.95846">
        <ele>279</ele>
        <time>2012-01-22T09:13:27Z</time>
      </trkpt>
      <trkpt lat="44.58643" lon="4.95851">
        <ele>279</ele>
        <time>2012-01-22T09:13:30Z</time>
      </trkpt>
      <trkpt lat="44.58638" lon="4.95857">
        <ele>279</ele>
        <time>2012-01-22T09:13:33Z</time>
      </trkpt>
      <trkpt lat="44.5864" lon="4.95851">
        <ele>279</ele>
        <time>2012-01-22T09:13:41Z</time>
      </trkpt>
      <trkpt lat="44.58645" lon="4.95847">
        <ele>280</ele>
        <time>2012-01-22T09:13:44Z</time>
      </trkpt>
      <trkpt lat="44.58649" lon="4.95843">
        <ele>280</ele>
        <time>2012-01-22T09:13:47Z</time>
      </trkpt>
      <trkpt lat="44.58654" lon="4.9584">
        <ele>280</ele>
        <time>2012-01-22T09:13:50Z</time>
      </trkpt>
      <trkpt lat="44.58658" lon="4.95834">
        <ele>279</ele>
        <time>2012-01-22T09:13:53Z</time>
      </trkpt>
      <trkpt lat="44.58663" lon="4.9583">
        <ele>280</ele>
        <time>2012-01-22T09:13:56Z</time>
      </trkpt>
      <trkpt lat="44.58668" lon="4.95826">
        <ele>280</ele>
        <time>2012-01-22T09:13:59Z</time>
      </trkpt>
      <trkpt lat="44.58671" lon="4.95822">
        <ele>280</ele>
        <time>2012-01-22T09:14:02Z</time>
      </trkpt>
      <trkpt lat="44.58675" lon="4.95815">
        <ele>277</ele>
        <time>2012-01-22T09:14:06Z</time>
      </trkpt>
      <trkpt lat="44.58679" lon="4.95812">
        <ele>276</ele>
        <time>2012-01-22T09:14:09Z</time>
      </trkpt>
      <trkpt lat="44.58684" lon="4.95806">
        <ele>275</ele>
        <time>2012-01-22T09:14:12Z</time>
      </trkpt>
      <trkpt lat="44.58689" lon="4.95802">
        <ele>274</ele>
        <time>2012-01-22T09:14:15Z</time>
      </trkpt>
      <trkpt lat="44.58693" lon="4.95796">
        <ele>273</ele>
        <time>2012-01-22T09:14:18Z</time>
      </trkpt>
      <trkpt lat="44.58697" lon="4.9579">
        <ele>272</ele>
        <time>2012-01-22T09:14:21Z</time>
      </trkpt>
      <trkpt lat="44.58702" lon="4.95784">
        <ele>272</ele>
        <time>2012-01-22T09:14:24Z</time>
      </trkpt>
      <trkpt lat="44.58706" lon="4.95778">
        <ele>273</ele>
        <time>2012-01-22T09:14:27Z</time>
      </trkpt>
      <trkpt lat="44.58711" lon="4.95772">
        <ele>272</ele>
        <time>2012-01-22T09:14:30Z</time>
      </trkpt>
      <trkpt lat="44.58714" lon="4.95766">
        <ele>272</ele>
        <time>2012-01-22T09:14:33Z</time>
      </trkpt>
      <trkpt lat="44.58718" lon="4.95761">
        <ele>270</ele>
        <time>2012-01-22T09:14:36Z</time>
      </trkpt>
      <trkpt lat="44.58721" lon="4.95755">
        <ele>270</ele>
        <time>2012-01-22T09:14:39Z</time>
      </trkpt>
      <trkpt lat="44.58726" lon="4.95749">
        <ele>271</ele>
        <time>2012-01-22T09:14:42Z</time>
      </trkpt>
      <trkpt lat="44.5873" lon="4.95745">
        <ele>272</ele>
        <time>2012-01-22T09:14:45Z</time>
      </trkpt>
      <trkpt lat="44.58734" lon="4.95739">
        <ele>270</ele>
        <time>2012-01-22T09:14:48Z</time>
      </trkpt>
      <trkpt lat="44.58738" lon="4.95733">
        <ele>270</ele>
        <time>2012-01-22T09:14:51Z</time>
      </trkpt>
      <trkpt lat="44.58742" lon="4.95728">
        <ele>269</ele>
        <time>2012-01-22T09:14:54Z</time>
      </trkpt>
      <trkpt lat="44.58746" lon="4.95722">
        <ele>269</ele>
        <time>2012-01-22T09:14:57Z</time>
      </trkpt>
      <trkpt lat="44.58751" lon="4.95716">
        <ele>269</ele>
        <time>2012-01-22T09:15:00Z</time>
      </trkpt>
      <trkpt lat="44.58756" lon="4.9571">
        <ele>270</ele>
        <time>2012-01-22T09:15:03Z</time>
      </trkpt>
      <trkpt lat="44.5876" lon="4.95705">
        <ele>270</ele>
        <time>2012-01-22T09:15:06Z</time>
      </trkpt>
      <trkpt lat="44.58764" lon="4.95701">
        <ele>270</ele>
        <time>2012-01-22T09:15:09Z</time>
      </trkpt>
      <trkpt lat="44.58768" lon="4.95695">
        <ele>271</ele>
        <time>2012-01-22T09:15:12Z</time>
      </trkpt>
      <trkpt lat="44.58773" lon="4.95691">
        <ele>271</ele>
        <time>2012-01-22T09:15:15Z</time>
      </trkpt>
      <trkpt lat="44.58777" lon="4.95686">
        <ele>272</ele>
        <time>2012-01-22T09:15:18Z</time>
      </trkpt>
      <trkpt lat="44.58781" lon="4.95683">
        <ele>272</ele>
        <time>2012-01-22T09:15:20Z</time>
      </trkpt>
      <trkpt lat="44.58785" lon="4.9568">
        <ele>272</ele>
        <time>2012-01-22T09:15:22Z</time>
      </trkpt>
      <trkpt lat="44.58789" lon="4.95675">
        <ele>272</ele>
        <time>2012-01-22T09:15:25Z</time>
      </trkpt>
      <trkpt lat="44.58795" lon="4.95672">
        <ele>272</ele>
        <time>2012-01-22T09:15:28Z</time>
      </trkpt>
      <trkpt lat="44.58798" lon="4.95667">
        <ele>273</ele>
        <time>2012-01-22T09:15:31Z</time>
      </trkpt>
      <trkpt lat="44.58802" lon="4.95659">
        <ele>276</ele>
        <time>2012-01-22T09:15:34Z</time>
      </trkpt>
      <trkpt lat="44.58807" lon="4.95653">
        <ele>276</ele>
        <time>2012-01-22T09:15:37Z</time>
      </trkpt>
      <trkpt lat="44.5881" lon="4.95646">
        <ele>277</ele>
        <time>2012-01-22T09:15:40Z</time>
      </trkpt>
      <trkpt lat="44.58815" lon="4.95642">
        <ele>278</ele>
        <time>2012-01-22T09:15:43Z</time>
      </trkpt>
      <trkpt lat="44.5882" lon="4.95637">
        <ele>279</ele>
        <time>2012-01-22T09:15:46Z</time>
      </trkpt>
      <trkpt lat="44.58823" lon="4.95633">
        <ele>279</ele>
        <time>2012-01-22T09:15:49Z</time>
      </trkpt>
      <trkpt lat="44.58828" lon="4.95629">
        <ele>279</ele>
        <time>2012-01-22T09:15:52Z</time>
      </trkpt>
      <trkpt lat="44.58832" lon="4.95624">
        <ele>279</ele>
        <time>2012-01-22T09:15:55Z</time>
      </trkpt>
      <trkpt lat="44.58836" lon="4.9562">
        <ele>278</ele>
        <time>2012-01-22T09:15:58Z</time>
      </trkpt>
      <trkpt lat="44.58839" lon="4.95615">
        <ele>278</ele>
        <time>2012-01-22T09:16:01Z</time>
      </trkpt>
      <trkpt lat="44.58843" lon="4.95611">
        <ele>279</ele>
        <time>2012-01-22T09:16:03Z</time>
      </trkpt>
      <trkpt lat="44.58847" lon="4.95607">
        <ele>277</ele>
        <time>2012-01-22T09:16:06Z</time>
      </trkpt>
      <trkpt lat="44.58851" lon="4.95604">
        <ele>278</ele>
        <time>2012-01-22T09:16:08Z</time>
      </trkpt>
      <trkpt lat="44.58856" lon="4.95597">
        <ele>278</ele>
        <time>2012-01-22T09:16:11Z</time>
      </trkpt>
      <trkpt lat="44.5886" lon="4.95593">
        <ele>278</ele>
        <time>2012-01-22T09:16:13Z</time>
      </trkpt>
      <trkpt lat="44.58865" lon="4.95587">
        <ele>279</ele>
        <time>2012-01-22T09:16:16Z</time>
      </trkpt>
      <trkpt lat="44.58864" lon="4.9558">
        <ele>279</ele>
        <time>2012-01-22T09:16:18Z</time>
      </trkpt>
      <trkpt lat="44.58862" lon="4.95572">
        <ele>279</ele>
        <time>2012-01-22T09:16:20Z</time>
      </trkpt>
      <trkpt lat="44.5886" lon="4.95564">
        <ele>279</ele>
        <time>2012-01-22T09:16:22Z</time>
      </trkpt>
      <trkpt lat="44.58858" lon="4.95558">
        <ele>280</ele>
        <time>2012-01-22T09:16:24Z</time>
      </trkpt>
      <trkpt lat="44.58855" lon="4.95552">
        <ele>280</ele>
        <time>2012-01-22T09:16:26Z</time>
      </trkpt>
      <trkpt lat="44.58853" lon="4.95546">
        <ele>280</ele>
        <time>2012-01-22T09:16:28Z</time>
      </trkpt>
      <trkpt lat="44.58852" lon="4.95539">
        <ele>281</ele>
        <time>2012-01-22T09:16:30Z</time>
      </trkpt>
      <trkpt lat="44.58852" lon="4.95531">
        <ele>282</ele>
        <time>2012-01-22T09:16:33Z</time>
      </trkpt>
      <trkpt lat="44.58856" lon="4.95525">
        <ele>282</ele>
        <time>2012-01-22T09:16:36Z</time>
      </trkpt>
      <trkpt lat="44.58862" lon="4.95521">
        <ele>281</ele>
        <time>2012-01-22T09:16:39Z</time>
      </trkpt>
      <trkpt lat="44.58867" lon="4.95519">
        <ele>282</ele>
        <time>2012-01-22T09:16:41Z</time>
      </trkpt>
      <trkpt lat="44.58872" lon="4.95519">
        <ele>282</ele>
        <time>2012-01-22T09:16:43Z</time>
      </trkpt>
      <trkpt lat="44.58876" lon="4.95515">
        <ele>282</ele>
        <time>2012-01-22T09:16:45Z</time>
      </trkpt>
      <trkpt lat="44.58881" lon="4.95508">
        <ele>282</ele>
        <time>2012-01-22T09:16:48Z</time>
      </trkpt>
      <trkpt lat="44.58883" lon="4.95503">
        <ele>282</ele>
        <time>2012-01-22T09:16:50Z</time>
      </trkpt>
      <trkpt lat="44.58885" lon="4.95496">
        <ele>283</ele>
        <time>2012-01-22T09:16:52Z</time>
      </trkpt>
      <trkpt lat="44.58888" lon="4.9549">
        <ele>283</ele>
        <time>2012-01-22T09:16:54Z</time>
      </trkpt>
      <trkpt lat="44.58892" lon="4.95483">
        <ele>284</ele>
        <time>2012-01-22T09:16:56Z</time>
      </trkpt>
      <trkpt lat="44.58894" lon="4.95474">
        <ele>284</ele>
        <time>2012-01-22T09:16:58Z</time>
      </trkpt>
      <trkpt lat="44.58898" lon="4.9547">
        <ele>284</ele>
        <time>2012-01-22T09:17:00Z</time>
      </trkpt>
      <trkpt lat="44.58901" lon="4.95462">
        <ele>284</ele>
        <time>2012-01-22T09:17:03Z</time>
      </trkpt>
      <trkpt lat="44.58908" lon="4.95462">
        <ele>283</ele>
        <time>2012-01-22T09:17:07Z</time>
      </trkpt>
      <trkpt lat="44.58914" lon="4.95464">
        <ele>283</ele>
        <time>2012-01-22T09:17:10Z</time>
      </trkpt>
      <trkpt lat="44.5892" lon="4.95465">
        <ele>283</ele>
        <time>2012-01-22T09:17:12Z</time>
      </trkpt>
      <trkpt lat="44.58926" lon="4.95465">
        <ele>284</ele>
        <time>2012-01-22T09:17:14Z</time>
      </trkpt>
      <trkpt lat="44.58934" lon="4.95465">
        <ele>284</ele>
        <time>2012-01-22T09:17:16Z</time>
      </trkpt>
      <trkpt lat="44.58939" lon="4.95466">
        <ele>284</ele>
        <time>2012-01-22T09:17:18Z</time>
      </trkpt>
      <trkpt lat="44.58947" lon="4.95464">
        <ele>283</ele>
        <time>2012-01-22T09:17:21Z</time>
      </trkpt>
      <trkpt lat="44.58952" lon="4.95464">
        <ele>284</ele>
        <time>2012-01-22T09:17:23Z</time>
      </trkpt>
      <trkpt lat="44.58959" lon="4.95464">
        <ele>284</ele>
        <time>2012-01-22T09:17:25Z</time>
      </trkpt>
      <trkpt lat="44.58965" lon="4.95463">
        <ele>285</ele>
        <time>2012-01-22T09:17:27Z</time>
      </trkpt>
      <trkpt lat="44.5897" lon="4.95462">
        <ele>285</ele>
        <time>2012-01-22T09:17:29Z</time>
      </trkpt>
      <trkpt lat="44.58974" lon="4.95461">
        <ele>285</ele>
        <time>2012-01-22T09:17:31Z</time>
      </trkpt>
      <trkpt lat="44.58982" lon="4.95456">
        <ele>284</ele>
        <time>2012-01-22T09:17:33Z</time>
      </trkpt>
      <trkpt lat="44.58985" lon="4.95452">
        <ele>284</ele>
        <time>2012-01-22T09:17:35Z</time>
      </trkpt>
      <trkpt lat="44.58989" lon="4.95445">
        <ele>283</ele>
        <time>2012-01-22T09:17:38Z</time>
      </trkpt>
      <trkpt lat="44.58987" lon="4.95438">
        <ele>282</ele>
        <time>2012-01-22T09:17:41Z</time>
      </trkpt>
      <trkpt lat="44.58986" lon="4.95429">
        <ele>281</ele>
        <time>2012-01-22T09:17:44Z</time>
      </trkpt>
      <trkpt lat="44.58986" lon="4.9542">
        <ele>280</ele>
        <time>2012-01-22T09:17:48Z</time>
      </trkpt>
      <trkpt lat="44.58985" lon="4.95412">
        <ele>280</ele>
        <time>2012-01-22T09:17:50Z</time>
      </trkpt>
      <trkpt lat="44.58984" lon="4.95406">
        <ele>278</ele>
        <time>2012-01-22T09:17:52Z</time>
      </trkpt>
      <trkpt lat="44.58982" lon="4.95394">
        <ele>277</ele>
        <time>2012-01-22T09:17:54Z</time>
      </trkpt>
      <trkpt lat="44.58982" lon="4.95386">
        <ele>277</ele>
        <time>2012-01-22T09:17:56Z</time>
      </trkpt>
      <trkpt lat="44.58984" lon="4.95379">
        <ele>277</ele>
        <time>2012-01-22T09:17:57Z</time>
      </trkpt>
      <trkpt lat="44.58984" lon="4.95369">
        <ele>276</ele>
        <time>2012-01-22T09:17:59Z</time>
      </trkpt>
      <trkpt lat="44.58982" lon="4.9536">
        <ele>277</ele>
        <time>2012-01-22T09:18:01Z</time>
      </trkpt>
      <trkpt lat="44.58983" lon="4.95353">
        <ele>275</ele>
        <time>2012-01-22T09:18:03Z</time>
      </trkpt>
      <trkpt lat="44.58983" lon="4.95343">
        <ele>276</ele>
        <time>2012-01-22T09:18:05Z</time>
      </trkpt>
      <trkpt lat="44.58983" lon="4.95335">
        <ele>275</ele>
        <time>2012-01-22T09:18:07Z</time>
      </trkpt>
      <trkpt lat="44.58983" lon="4.95325">
        <ele>274</ele>
        <time>2012-01-22T09:18:09Z</time>
      </trkpt>
      <trkpt lat="44.58982" lon="4.95316">
        <ele>274</ele>
        <time>2012-01-22T09:18:11Z</time>
      </trkpt>
      <trkpt lat="44.58982" lon="4.95309">
        <ele>273</ele>
        <time>2012-01-22T09:18:13Z</time>
      </trkpt>
      <trkpt lat="44.58982" lon="4.95302">
        <ele>273</ele>
        <time>2012-01-22T09:18:15Z</time>
      </trkpt>
      <trkpt lat="44.5898" lon="4.95294">
        <ele>270</ele>
        <time>2012-01-22T09:18:17Z</time>
      </trkpt>
      <trkpt lat="44.5898" lon="4.95284">
        <ele>270</ele>
        <time>2012-01-22T09:18:19Z</time>
      </trkpt>
      <trkpt lat="44.58979" lon="4.95276">
        <ele>270</ele>
        <time>2012-01-22T09:18:21Z</time>
      </trkpt>
      <trkpt lat="44.58977" lon="4.95268">
        <ele>270</ele>
        <time>2012-01-22T09:18:23Z</time>
      </trkpt>
      <trkpt lat="44.58976" lon="4.95261">
        <ele>271</ele>
        <time>2012-01-22T09:18:25Z</time>
      </trkpt>
      <trkpt lat="44.58974" lon="4.95251">
        <ele>271</ele>
        <time>2012-01-22T09:18:27Z</time>
      </trkpt>
      <trkpt lat="44.58973" lon="4.95244">
        <ele>271</ele>
        <time>2012-01-22T09:18:29Z</time>
      </trkpt>
      <trkpt lat="44.58972" lon="4.95235">
        <ele>271</ele>
        <time>2012-01-22T09:18:32Z</time>
      </trkpt>
      <trkpt lat="44.58971" lon="4.95228">
        <ele>271</ele>
        <time>2012-01-22T09:18:34Z</time>
      </trkpt>
      <trkpt lat="44.5897" lon="4.95221">
        <ele>270</ele>
        <time>2012-01-22T09:18:36Z</time>
      </trkpt>
      <trkpt lat="44.58966" lon="4.9521">
        <ele>271</ele>
        <time>2012-01-22T09:18:39Z</time>
      </trkpt>
      <trkpt lat="44.58966" lon="4.95201">
        <ele>272</ele>
        <time>2012-01-22T09:18:42Z</time>
      </trkpt>
      <trkpt lat="44.58964" lon="4.95193">
        <ele>271</ele>
        <time>2012-01-22T09:18:44Z</time>
      </trkpt>
      <trkpt lat="44.58963" lon="4.95184">
        <ele>272</ele>
        <time>2012-01-22T09:18:46Z</time>
      </trkpt>
      <trkpt lat="44.58963" lon="4.95176">
        <ele>271</ele>
        <time>2012-01-22T09:18:48Z</time>
      </trkpt>
      <trkpt lat="44.58963" lon="4.95166">
        <ele>271</ele>
        <time>2012-01-22T09:18:50Z</time>
      </trkpt>
      <trkpt lat="44.58963" lon="4.95158">
        <ele>270</ele>
        <time>2012-01-22T09:18:52Z</time>
      </trkpt>
      <trkpt lat="44.58962" lon="4.9515">
        <ele>270</ele>
        <time>2012-01-22T09:18:54Z</time>
      </trkpt>
      <trkpt lat="44.58962" lon="4.95141">
        <ele>270</ele>
        <time>2012-01-22T09:18:56Z</time>
      </trkpt>
      <trkpt lat="44.58961" lon="4.95132">
        <ele>270</ele>
        <time>2012-01-22T09:18:58Z</time>
      </trkpt>
      <trkpt lat="44.5896" lon="4.9512">
        <ele>270</ele>
        <time>2012-01-22T09:19:00Z</time>
      </trkpt>
      <trkpt lat="44.58958" lon="4.9511">
        <ele>270</ele>
        <time>2012-01-22T09:19:02Z</time>
      </trkpt>
      <trkpt lat="44.58956" lon="4.95101">
        <ele>270</ele>
        <time>2012-01-22T09:19:04Z</time>
      </trkpt>
      <trkpt lat="44.58956" lon="4.95092">
        <ele>270</ele>
        <time>2012-01-22T09:19:07Z</time>
      </trkpt>
      <trkpt lat="44.58954" lon="4.95085">
        <ele>269</ele>
        <time>2012-01-22T09:19:09Z</time>
      </trkpt>
      <trkpt lat="44.58954" lon="4.95078">
        <ele>268</ele>
        <time>2012-01-22T09:19:11Z</time>
      </trkpt>
      <trkpt lat="44.58954" lon="4.9507">
        <ele>268</ele>
        <time>2012-01-22T09:19:13Z</time>
      </trkpt>
      <trkpt lat="44.58954" lon="4.95061">
        <ele>268</ele>
        <time>2012-01-22T09:19:15Z</time>
      </trkpt>
      <trkpt lat="44.58952" lon="4.95052">
        <ele>267</ele>
        <time>2012-01-22T09:19:17Z</time>
      </trkpt>
      <trkpt lat="44.58952" lon="4.95044">
        <ele>266</ele>
        <time>2012-01-22T09:19:19Z</time>
      </trkpt>
      <trkpt lat="44.58949" lon="4.95036">
        <ele>267</ele>
        <time>2012-01-22T09:19:21Z</time>
      </trkpt>
      <trkpt lat="44.58948" lon="4.95027">
        <ele>267</ele>
        <time>2012-01-22T09:19:23Z</time>
      </trkpt>
      <trkpt lat="44.58948" lon="4.9502">
        <ele>266</ele>
        <time>2012-01-22T09:19:25Z</time>
      </trkpt>
      <trkpt lat="44.58948" lon="4.95011">
        <ele>265</ele>
        <time>2012-01-22T09:19:27Z</time>
      </trkpt>
      <trkpt lat="44.58947" lon="4.95001">
        <ele>265</ele>
        <time>2012-01-22T09:19:29Z</time>
      </trkpt>
      <trkpt lat="44.58946" lon="4.94992">
        <ele>265</ele>
        <time>2012-01-22T09:19:31Z</time>
      </trkpt>
      <trkpt lat="44.58946" lon="4.94985">
        <ele>265</ele>
        <time>2012-01-22T09:19:33Z</time>
      </trkpt>
      <trkpt lat="44.58946" lon="4.94975">
        <ele>266</ele>
        <time>2012-01-22T09:19:35Z</time>
      </trkpt>
      <trkpt lat="44.58947" lon="4.94967">
        <ele>266</ele>
        <time>2012-01-22T09:19:37Z</time>
      </trkpt>
      <trkpt lat="44.58946" lon="4.94958">
        <ele>263</ele>
        <time>2012-01-22T09:19:39Z</time>
      </trkpt>
      <trkpt lat="44.58948" lon="4.94951">
        <ele>262</ele>
        <time>2012-01-22T09:19:41Z</time>
      </trkpt>
      <trkpt lat="44.58953" lon="4.94944">
        <ele>262</ele>
        <time>2012-01-22T09:19:43Z</time>
      </trkpt>
      <trkpt lat="44.58958" lon="4.9494">
        <ele>262</ele>
        <time>2012-01-22T09:19:45Z</time>
      </trkpt>
      <trkpt lat="44.58963" lon="4.94934">
        <ele>261</ele>
        <time>2012-01-22T09:19:47Z</time>
      </trkpt>
      <trkpt lat="44.58969" lon="4.94932">
        <ele>261</ele>
        <time>2012-01-22T09:19:49Z</time>
      </trkpt>
      <trkpt lat="44.58974" lon="4.94933">
        <ele>261</ele>
        <time>2012-01-22T09:19:51Z</time>
      </trkpt>
      <trkpt lat="44.58979" lon="4.94935">
        <ele>260</ele>
        <time>2012-01-22T09:19:53Z</time>
      </trkpt>
      <trkpt lat="44.58984" lon="4.94938">
        <ele>259</ele>
        <time>2012-01-22T09:19:55Z</time>
      </trkpt>
      <trkpt lat="44.58988" lon="4.94944">
        <ele>257</ele>
        <time>2012-01-22T09:19:57Z</time>
      </trkpt>
      <trkpt lat="44.58995" lon="4.9495">
        <ele>256</ele>
        <time>2012-01-22T09:20:00Z</time>
      </trkpt>
      <trkpt lat="44.59" lon="4.94954">
        <ele>255</ele>
        <time>2012-01-22T09:20:02Z</time>
      </trkpt>
      <trkpt lat="44.59005" lon="4.94958">
        <ele>255</ele>
        <time>2012-01-22T09:20:04Z</time>
      </trkpt>
      <trkpt lat="44.5901" lon="4.94962">
        <ele>255</ele>
        <time>2012-01-22T09:20:06Z</time>
      </trkpt>
      <trkpt lat="44.59016" lon="4.94965">
        <ele>255</ele>
        <time>2012-01-22T09:20:08Z</time>
      </trkpt>
      <trkpt lat="44.59021" lon="4.94969">
        <ele>254</ele>
        <time>2012-01-22T09:20:10Z</time>
      </trkpt>
      <trkpt lat="44.59026" lon="4.94972">
        <ele>253</ele>
        <time>2012-01-22T09:20:12Z</time>
      </trkpt>
      <trkpt lat="44.5903" lon="4.94976">
        <ele>252</ele>
        <time>2012-01-22T09:20:14Z</time>
      </trkpt>
      <trkpt lat="44.59035" lon="4.94979">
        <ele>252</ele>
        <time>2012-01-22T09:20:16Z</time>
      </trkpt>
      <trkpt lat="44.5904" lon="4.94983">
        <ele>251</ele>
        <time>2012-01-22T09:20:18Z</time>
      </trkpt>
      <trkpt lat="44.59047" lon="4.94987">
        <ele>252</ele>
        <time>2012-01-22T09:20:20Z</time>
      </trkpt>
      <trkpt lat="44.59052" lon="4.94991">
        <ele>251</ele>
        <time>2012-01-22T09:20:22Z</time>
      </trkpt>
      <trkpt lat="44.59057" lon="4.94996">
        <ele>251</ele>
        <time>2012-01-22T09:20:24Z</time>
      </trkpt>
      <trkpt lat="44.59063" lon="4.95">
        <ele>250</ele>
        <time>2012-01-22T09:20:26Z</time>
      </trkpt>
      <trkpt lat="44.59069" lon="4.95005">
        <ele>250</ele>
        <time>2012-01-22T09:20:28Z</time>
      </trkpt>
      <trkpt lat="44.59074" lon="4.95008">
        <ele>251</ele>
        <time>2012-01-22T09:20:30Z</time>
      </trkpt>
      <trkpt lat="44.59079" lon="4.95011">
        <ele>252</ele>
        <time>2012-01-22T09:20:32Z</time>
      </trkpt>
      <trkpt lat="44.59083" lon="4.95014">
        <ele>251</ele>
        <time>2012-01-22T09:20:34Z</time>
      </trkpt>
      <trkpt lat="44.59089" lon="4.95018">
        <ele>252</ele>
        <time>2012-01-22T09:20:36Z</time>
      </trkpt>
      <trkpt lat="44.59094" lon="4.9502">
        <ele>251</ele>
        <time>2012-01-22T09:20:38Z</time>
      </trkpt>
      <trkpt lat="44.591" lon="4.95023">
        <ele>251</ele>
        <time>2012-01-22T09:20:41Z</time>
      </trkpt>
      <trkpt lat="44.59105" lon="4.95026">
        <ele>251</ele>
        <time>2012-01-22T09:20:43Z</time>
      </trkpt>
      <trkpt lat="44.59111" lon="4.95028">
        <ele>250</ele>
        <time>2012-01-22T09:20:45Z</time>
      </trkpt>
      <trkpt lat="44.59116" lon="4.95033">
        <ele>250</ele>
        <time>2012-01-22T09:20:47Z</time>
      </trkpt>
      <trkpt lat="44.59122" lon="4.95035">
        <ele>250</ele>
        <time>2012-01-22T09:20:49Z</time>
      </trkpt>
      <trkpt lat="44.59128" lon="4.95038">
        <ele>249</ele>
        <time>2012-01-22T09:20:51Z</time>
      </trkpt>
      <trkpt lat="44.59135" lon="4.9504">
        <ele>249</ele>
        <time>2012-01-22T09:20:53Z</time>
      </trkpt>
      <trkpt lat="44.59141" lon="4.95043">
        <ele>249</ele>
        <time>2012-01-22T09:20:56Z</time>
      </trkpt>
      <trkpt lat="44.59146" lon="4.95045">
        <ele>249</ele>
        <time>2012-01-22T09:20:58Z</time>
      </trkpt>
      <trkpt lat="44.59152" lon="4.95046">
        <ele>250</ele>
        <time>2012-01-22T09:21:00Z</time>
      </trkpt>
      <trkpt lat="44.59157" lon="4.95049">
        <ele>250</ele>
        <time>2012-01-22T09:21:02Z</time>
      </trkpt>
      <trkpt lat="44.59162" lon="4.95052">
        <ele>250</ele>
        <time>2012-01-22T09:21:04Z</time>
      </trkpt>
      <trkpt lat="44.59167" lon="4.95055">
        <ele>250</ele>
        <time>2012-01-22T09:21:06Z</time>
      </trkpt>
      <trkpt lat="44.59174" lon="4.95057">
        <ele>249</ele>
        <time>2012-01-22T09:21:09Z</time>
      </trkpt>
      <trkpt lat="44.59179" lon="4.95061">
        <ele>249</ele>
        <time>2012-01-22T09:21:11Z</time>
      </trkpt>
      <trkpt lat="44.59186" lon="4.95062">
        <ele>251</ele>
        <time>2012-01-22T09:21:13Z</time>
      </trkpt>
      <trkpt lat="44.5919" lon="4.95064">
        <ele>251</ele>
        <time>2012-01-22T09:21:15Z</time>
      </trkpt>
      <trkpt lat="44.59196" lon="4.95066">
        <ele>251</ele>
        <time>2012-01-22T09:21:17Z</time>
      </trkpt>
      <trkpt lat="44.59202" lon="4.95069">
        <ele>250</ele>
        <time>2012-01-22T09:21:19Z</time>
      </trkpt>
      <trkpt lat="44.59206" lon="4.95073">
        <ele>252</ele>
        <time>2012-01-22T09:21:21Z</time>
      </trkpt>
      <trkpt lat="44.59212" lon="4.95077">
        <ele>253</ele>
        <time>2012-01-22T09:21:24Z</time>
      </trkpt>
      <trkpt lat="44.59217" lon="4.9508">
        <ele>253</ele>
        <time>2012-01-22T09:21:27Z</time>
      </trkpt>
      <trkpt lat="44.59221" lon="4.95085">
        <ele>257</ele>
        <time>2012-01-22T09:21:34Z</time>
      </trkpt>
    </trkseg>
  </trk>
</gpx>